[[{"header":{"parameterUnit":"m.s-1","parameterCategory":1,"la1":30.6,"la2":28.766,"lo1":-90.7593,"lo2":-88.6598,"dy":0.0162,"dx":0.0183,"nx":116,"ny":114,"refTime":"2024-03-29T06:00:00:Z","depth":0,"parameterNumber":2,"parameterNumberName":"U-component_of_WINDS"},"data":[0.0,0.0,0.0,0.0,0.0,0.0,0.0,0.0,0.0,0.0,0.0,0.0,0.0,0.0,0.0,0.0,0.0,0.0,0.0,0.0,0.0,0.0,0.0,0.0,0.0,0.0,0.0,0.0,0.0,0.0,0.0,0.0,0.0,0.0,0.0,0.0,0.0,0.0,0.0,0.0,0.0,0.0,0.0,0.0,0.0,0.0,0.0,0.0,0.0,0.0,0.0,0.0,0.0,0.0,0.0,0.0,0.0,0.0,0.0,0.0,0.0,0.0,0.0,0.0,0.0,0.0,0.0,0.0,0.0,0.0,0.0,0.0,0.0,0.0,0.0,0.0,0.0,0.0,0.0,0.0,0.0,0.0,0.0,0.0,0.0,0.0,0.0,0.0,0.0,0.0,0.0,0.0,0.0,0.0,0.0,0.0,0.0,0.0,0.0,0.0,0.0,0.0,0.0,0.0,0.0,0.0,0.0,0.0,0.0,0.0,0.0,0.0,0.0,0.0,0.0,0.0,0.0,0.0,0.0,0.0,0.0,0.0,0.0,0.0,0.0,0.0,0.0,0.0,0.0,0.0,0.0,0.0,0.0,0.0,0.0,0.0,0.0,0.0,0.0,0.0,0.0,0.0,0.0,0.0,0.0,0.0,0.0,0.0,0.0,0.0,0.0,0.0,0.0,0.0,0.0,0.0,0.0,0.0,0.0,0.0,0.0,0.0,0.0,0.0,0.0,0.0,0.0,0.0,0.0,0.0,0.0,0.0,0.0,0.0,0.0,0.0,0.0,0.0,0.0,0.0,0.0,0.0,0.0,0.0,0.0,0.0,0.0,0.0,0.0,0.0,0.0,0.0,0.0,0.0,0.0,0.0,0.0,0.0,0.0,0.0,0.0,0.0,0.0,0.0,0.0,0.0,0.0,0.0,0.0,0.0,0.0,0.0,0.0,0.0,0.0,0.0,0.0,0.0,0.0,0.0,0.0,0.0,0.0,0.0,0.0,0.0,0.0,0.0,0.0,0.0,0.0,0.0,0.0,0.0,0.0,0.0,0.0,0.0,0.0,0.0,0.0,0.0,0.0,0.0,0.0,0.0,0.0,0.0,0.0,0.0,0.0,0.0,0.0,0.0,0.0,0.0,0.0,0.0,0.0,0.0,0.0,0.0,0.0,0.0,0.0,0.0,0.0,0.0,0.0,0.0,0.0,0.0,0.0,0.0,0.0,0.0,0.0,0.0,0.0,0.0,0.0,0.0,0.0,0.0,0.0,0.0,0.0,0.0,0.0,0.0,0.0,0.0,0.0,0.0,0.0,0.0,0.0,0.0,0.0,0.0,0.0,0.0,0.0,0.0,0.0,0.0,0.0,0.0,0.0,0.0,0.0,0.0,0.0,0.0,0.0,0.0,0.0,0.0,0.0,0.0,0.0,0.0,0.0,0.0,0.0,0.0,0.0,0.0,0.0,0.0,0.0,0.0,0.0,0.0,0.0,0.0,0.0,0.0,0.0,0.0,0.0,0.0,0.0,0.0,0.0,0.0,0.0,0.0,0.0,0.0,0.0,0.0,0.0,0.0,0.0,0.0,0.0,0.0,0.0,0.0,0.0,0.0,0.0,0.0,0.0,0.0,0.0,0.0,0.0,0.0,0.0,0.0,0.0,0.0,0.0,0.0,0.0,0.0,0.0,0.0,0.0,0.0,0.0,0.0,0.0,0.0,0.0,0.0,0.0,0.0,0.0,0.0,0.0,0.0,0.0,0.0,0.0,0.0,0.0,0.0,0.0,0.0,0.0,0.0,0.0,0.0,0.0,0.0,0.0,0.0,0.0,0.0,0.0,0.0,0.0,0.0,0.0,0.0,0.0,0.0,0.0,0.0,0.0,0.0,0.0,0.0,0.0,0.0,0.0,0.0,0.0,0.0,0.0,0.0,0.0,0.0,0.0,0.0,0.0,0.0,0.0,0.0,0.0,0.0,0.0,0.0,0.0,0.0,0.0,0.0,0.0,0.0,0.0,0.0,0.0,0.0,0.0,0.0,0.0,0.0,0.0,0.0,0.0,0.0,0.0,0.0,0.0,0.0,0.0,0.0,0.0,0.0,0.0,0.0,0.0,0.0,0.0,0.0,0.0,0.0,0.0,0.0,0.0,0.0,0.0,0.0,0.0,0.0,0.0,0.0,0.0,0.0,0.0,0.0,0.0,0.0,0.0,0.0,0.0,0.0,0.0,0.0,0.0,0.0,0.0,0.0,0.0,0.0,0.0,0.0,0.0,0.0,0.0,0.0,0.0,0.0,0.0,0.0,0.0,0.0,0.0,0.0,0.0,0.0,0.0,0.0,0.0,0.0,0.0,0.0,0.0,0.0,0.0,0.0,0.0,0.0,0.0,0.0,0.0,0.0,0.0,0.0,0.0,0.0,0.0,0.0,0.0,0.0,0.0,0.0,0.0,0.0,0.0,0.0,0.0,0.0,0.0,0.0,0.0,0.0,0.0,0.0,0.0,0.0,0.0,0.0,0.0,0.0,0.0,0.0,0.0,0.0,0.0,0.0,0.0,0.0,0.0,0.0,0.0,0.0,0.0,0.0,0.0,0.0,0.0,0.0,0.0,0.0,0.0,0.0,0.0,0.0,0.0,0.0,0.0,0.0,0.0,0.0,0.0,0.0,0.0,0.0,0.0,0.0,0.0,0.0,0.0,0.0,0.0,0.0,0.0,0.0,0.0,0.0,0.0,0.0,0.0,0.0,0.0,0.0,0.0,0.0,0.0,0.0,0.0,0.0,0.0,0.0,0.0,0.0,0.0,0.0,0.0,0.0,0.0,0.0,0.0,0.0,0.0,0.0,0.0,0.0,0.0,0.0,0.0,0.0,0.0,0.0,0.0,0.0,0.0,0.0,0.0,0.0,0.0,0.0,0.0,0.0,0.0,0.0,0.0,0.0,0.0,0.0,0.0,0.0,0.0,0.0,0.0,0.0,0.0,0.0,0.0,0.0,0.0,0.0,0.0,0.0,0.0,0.0,0.0,0.0,0.0,0.0,0.0,0.0,0.0,0.0,0.0,0.0,0.0,0.0,0.0,0.0,0.0,0.0,0.0,0.0,0.0,0.0,0.0,0.0,0.0,0.0,0.0,0.0,0.0,0.0,0.0,0.0,0.0,0.0,0.0,0.0,0.0,0.0,0.0,0.0,0.0,0.0,0.0,0.0,0.0,0.0,0.0,0.0,0.0,0.0,0.0,0.0,0.0,0.0,0.0,0.0,0.0,0.0,0.0,0.0,0.0,0.0,0.0,0.0,0.0,0.0,0.0,0.0,0.0,0.0,0.0,0.0,0.0,0.0,0.0,0.0,0.0,0.0,0.0,0.0,0.0,0.0,0.0,0.0,0.0,0.0,0.0,0.0,0.0,0.0,0.0,0.0,0.0,0.0,0.0,0.0,0.0,0.0,0.0,0.0,0.0,0.0,0.0,0.0,0.0,0.0,0.0,0.0,0.0,0.0,0.0,0.0,0.0,0.0,0.0,0.0,0.0,0.0,0.0,0.0,0.0,0.0,0.0,0.0,0.0,0.0,0.0,0.0,0.0,0.0,0.0,0.0,0.0,0.0,0.0,0.0,0.0,0.0,0.0,0.0,0.0,0.0,0.0,0.0,0.0,0.0,0.0,0.0,0.0,0.0,0.0,0.0,0.0,0.0,0.0,0.0,0.0,0.0,0.0,0.0,0.0,0.0,0.0,0.0,0.0,0.0,0.0,0.0,0.0,0.0,0.0,0.0,0.0,0.0,0.0,0.0,0.0,0.0,0.0,0.0,0.0,0.0,0.0,0.0,0.0,0.0,0.0,0.0,0.0,0.0,0.0,0.0,0.0,0.0,0.0,0.0,0.0,0.0,0.0,0.0,0.0,0.0,0.0,0.0,0.0,0.0,0.0,0.0,0.0,0.0,0.0,0.0,0.0,0.0,0.0,0.0,0.0,0.0,0.0,0.0,0.0,0.0,0.0,0.0,0.0,0.0,0.0,0.0,0.0,0.0,0.0,0.0,0.0,0.0,0.0,0.0,0.0,0.0,0.0,0.0,0.0,0.0,0.0,0.0,0.0,0.0,0.0,0.0,0.0,0.0,0.0,0.0,0.0,0.0,0.0,0.0,0.0,0.0,0.0,0.0,0.0,0.0,0.0,0.0,0.0,0.0,0.0,0.0,0.0,0.0,0.0,0.0,0.0,0.0,0.0,0.0,0.0,0.0,0.0,0.0,0.0,0.0,0.0,0.0,0.0,0.0,0.0,0.0,0.0,0.0,0.0,0.0,0.0,0.0,0.0,0.0,0.0,0.0,0.0,0.0,0.0,0.0,0.0,0.0,0.0,0.0,0.0,0.0,0.0,0.0,0.0,0.0,0.0,0.0,0.0,0.0,0.0,0.0,0.0,0.0,0.0,0.0,0.0,0.0,0.0,0.0,0.0,0.0,0.0,0.0,0.0,0.0,0.0,0.0,0.0,0.0,0.0,0.0,0.0,0.0,0.0,0.0,0.0,0.0,0.0,0.0,0.0,0.0,0.0,0.0,0.0,0.0,0.0,0.0,0.0,0.0,0.0,0.0,0.0,0.0,0.0,0.0,0.0,0.0,0.0,0.0,0.0,0.0,0.0,0.0,0.0,0.0,0.0,0.0,0.0,0.0,0.0,0.0,0.0,0.0,0.0,0.0,0.0,0.0,0.0,0.0,0.0,0.0,0.0,0.0,0.0,0.0,0.0,0.0,0.0,0.0,0.0,0.0,0.0,0.0,0.0,0.0,0.0,0.0,0.0,0.0,0.0,0.0,0.0,0.0,0.0,0.0,0.0,0.0,0.0,0.0,0.0,0.0,0.0,0.0,0.0,0.0,0.0,0.0,0.0,0.0,0.0,0.0,0.0,0.0,0.0,0.0,0.0,0.0,0.0,0.0,0.0,0.0,0.0,0.0,0.0,0.0,0.0,0.0,0.0,0.0,0.0,0.0,0.0,0.0,0.0,0.0,0.0,0.0,0.0,0.0,0.0,0.0,0.0,0.0,0.0,0.0,0.0,0.0,0.0,0.0,0.0,0.0,0.0,0.0,0.0,0.0,0.0,0.0,0.0,0.0,0.0,0.0,0.0,0.0,0.0,0.0,0.0,0.0,0.0,0.0,0.0,0.0,0.0,0.0,0.0,0.0,0.0,0.0,0.0,0.0,0.0,0.0,0.0,0.0,0.0,0.0,0.0,0.0,0.0,0.0,0.0,0.0,0.0,0.0,0.0,0.0,0.0,0.0,0.0,0.0,0.0,0.0,0.0,0.0,0.0,0.0,0.0,0.0,0.0,0.0,0.0,0.0,0.0,0.0,0.0,0.0,0.0,0.0,0.0,0.0,0.0,0.0,0.0,0.0,0.0,0.0,0.0,0.0,0.0,0.0,0.0,0.0,0.0,0.0,0.0,0.0,0.0,0.0,0.0,0.0,0.0,0.0,0.0,0.0,0.0,0.0,0.0,0.0,0.0,0.0,0.0,0.0,0.0,0.0,0.0,0.0,0.0,0.0,0.0,0.0,0.0,0.0,0.0,0.0,0.0,0.0,0.0,0.0,0.0,0.0,0.0,0.0,0.0,0.0,0.0,0.0,0.0,0.0,0.0,0.0,0.0,0.0,0.0,0.0,0.0,0.0,0.0,0.0,0.0,0.0,0.0,0.0,0.0,0.0,0.0,0.0,0.0,0.0,0.0,0.0,0.0,0.0,0.0,0.0,0.0,0.0,0.0,0.0,0.0,0.0,0.0,0.0,0.0,0.0,0.0,0.0,0.0,0.0,0.0,0.0,0.0,0.0,0.0,0.0,0.0,0.0,0.0,0.0,0.0,0.0,0.0,0.0,0.0,0.0,0.0,0.0,0.0,0.0,0.0,0.0,0.0,0.0,0.0,0.0,0.0,0.0,0.0,0.0,0.0,0.0,0.0,0.0,0.0,0.0,0.0,0.0,0.0,0.0,0.0,0.0,0.0,0.0,0.0,0.0,0.0,0.0,0.0,0.0,0.0,0.0,0.0,0.0,0.0,0.0,0.0,0.0,0.0,0.0,0.0,0.0,0.0,0.0,0.0,0.0,0.0,0.0,-5.5314,0.0,0.0,0.0,0.0,0.0,0.0,0.0,0.0,0.0,0.0,0.0,0.0,0.0,0.0,0.0,0.0,0.0,0.0,0.0,0.0,0.0,0.0,0.0,0.0,-5.6012,-5.6012,-5.6012,-5.6012,-5.5995,-5.6016,0.0,0.0,0.0,0.0,0.0,-5.5756,-5.5724,-5.5649,-5.5497,-5.5649,-5.5554,-5.5301,-5.4867,-5.4544,-5.432,0.0,0.0,0.0,0.0,0.0,0.0,0.0,0.0,0.0,0.0,0.0,0.0,0.0,0.0,0.0,0.0,0.0,0.0,0.0,0.0,0.0,0.0,0.0,0.0,0.0,0.0,0.0,0.0,0.0,0.0,0.0,0.0,0.0,0.0,0.0,0.0,0.0,0.0,0.0,0.0,0.0,0.0,0.0,0.0,0.0,0.0,0.0,0.0,0.0,0.0,0.0,0.0,0.0,0.0,0.0,0.0,0.0,0.0,0.0,0.0,0.0,0.0,0.0,0.0,0.0,0.0,0.0,0.0,0.0,0.0,0.0,-5.5566,0.0,0.0,0.0,0.0,0.0,0.0,0.0,0.0,0.0,0.0,0.0,0.0,0.0,0.0,0.0,0.0,0.0,0.0,0.0,0.0,0.0,-5.431,-5.5818,-5.6128,-5.6235,-5.6235,-5.6235,-5.6209,-5.6212,-5.6077,0.0,0.0,-5.5787,-5.5756,-5.5703,-5.5671,-5.5508,-5.5301,-5.5528,-5.5555,-5.5334,-5.5215,-5.4889,-5.4444,-5.3766,0.0,0.0,0.0,0.0,0.0,0.0,0.0,0.0,0.0,0.0,0.0,0.0,0.0,0.0,0.0,0.0,0.0,0.0,0.0,0.0,0.0,0.0,0.0,0.0,0.0,0.0,0.0,0.0,0.0,0.0,0.0,0.0,0.0,0.0,0.0,0.0,0.0,0.0,0.0,0.0,0.0,0.0,0.0,0.0,0.0,0.0,0.0,0.0,0.0,0.0,0.0,0.0,0.0,0.0,0.0,0.0,0.0,0.0,0.0,0.0,0.0,0.0,0.0,-5.5909,-5.5885,-5.5835,-5.5885,-5.5848,-5.576,-5.586,-5.5756,-5.5473,-5.5531,0.0,0.0,0.0,0.0,0.0,0.0,0.0,0.0,0.0,0.0,0.0,0.0,0.0,0.0,0.0,0.0,0.0,0.0,0.0,-5.4967,-5.5896,-5.6661,-5.7125,-5.7125,-5.7098,-5.7032,-5.7032,-5.629,-5.5807,-5.5797,-5.5745,-5.5714,-5.5703,-5.5461,-5.5339,-5.5301,-5.5443,-5.5517,-5.5505,-5.6131,-5.6431,-5.6295,-5.5102,-5.5365,-5.6527,0.0,0.0,0.0,0.0,0.0,0.0,0.0,0.0,0.0,0.0,0.0,0.0,0.0,0.0,0.0,0.0,0.0,0.0,0.0,0.0,0.0,0.0,0.0,0.0,0.0,0.0,0.0,0.0,0.0,0.0,0.0,0.0,0.0,0.0,0.0,0.0,0.0,0.0,0.0,0.0,0.0,-5.3203,-5.4049,0.0,0.0,0.0,0.0,0.0,0.0,0.0,0.0,0.0,0.0,0.0,0.0,0.0,-5.6635,-5.6623,-5.7302,-5.766,-5.766,-5.7595,-5.7395,-5.7081,-5.7409,-5.7381,-5.7081,-5.7409,0.0,-5.5401,-5.5511,0.0,0.0,0.0,0.0,0.0,0.0,0.0,0.0,0.0,0.0,0.0,0.0,0.0,0.0,0.0,0.0,0.0,0.0,0.0,0.0,0.0,-5.6975,-5.7284,-5.7674,-5.7566,-5.7317,-5.6878,-5.6487,-5.6087,-5.5784,-5.5554,-5.5473,-5.5473,-5.5159,-5.5237,-5.5679,-5.587,-5.6276,-5.6926,-5.7528,-5.8047,-5.844,-5.6968,-5.637,-5.6428,-5.4852,0.0,0.0,0.0,0.0,0.0,0.0,0.0,0.0,0.0,0.0,0.0,0.0,0.0,0.0,0.0,0.0,0.0,0.0,0.0,0.0,0.0,0.0,0.0,0.0,0.0,0.0,0.0,0.0,0.0,0.0,0.0,0.0,0.0,0.0,0.0,0.0,0.0,0.0,0.0,-5.3395,-5.4087,-5.4434,-5.4511,-5.4808,0.0,0.0,0.0,0.0,0.0,0.0,0.0,0.0,0.0,-5.6165,-5.6536,-5.6945,-5.7405,-5.7761,-5.7939,-5.7939,-5.8358,-5.8238,-5.7654,-5.8276,-5.8238,-5.7654,-5.7832,-5.7212,-5.6066,-5.6128,-5.5909,-5.5473,0.0,0.0,0.0,0.0,-5.552,-5.552,0.0,0.0,0.0,0.0,0.0,0.0,0.0,0.0,0.0,0.0,0.0,0.0,-5.7071,-5.7243,-5.7505,-5.8181,-5.8092,-5.7769,-5.7158,-5.6687,-5.6282,-5.5911,-5.5516,-5.5326,-5.5401,-5.5223,-5.5419,-5.6074,-5.6649,-5.7427,-5.8483,-5.9045,-5.9664,-6.0184,-5.8995,-5.7789,-5.6623,-5.5303,-5.45,-5.3898,0.0,0.0,0.0,0.0,0.0,0.0,0.0,0.0,0.0,0.0,0.0,0.0,0.0,0.0,0.0,0.0,0.0,0.0,0.0,0.0,0.0,0.0,0.0,0.0,0.0,0.0,0.0,0.0,0.0,0.0,0.0,0.0,0.0,0.0,0.0,0.0,0.0,-5.4269,-5.4797,-5.4797,-5.4786,-5.4984,0.0,0.0,0.0,0.0,0.0,0.0,-5.5806,-5.6012,-5.637,-5.6984,-5.72,-5.7595,-5.8192,-5.8421,-5.8536,-5.8536,-5.9147,-5.9068,-5.8425,-5.9106,-5.9068,-5.8387,-5.8509,-5.8039,-5.7199,-5.6843,-5.618,-5.5389,-5.5437,-5.5461,-5.5485,-5.5461,-5.5461,-5.5488,0.0,0.0,0.0,0.0,0.0,0.0,0.0,0.0,0.0,0.0,0.0,-5.6067,-5.6904,-5.7559,-5.8196,-5.8817,-5.8849,-5.8734,-5.8524,-5.6937,-5.6168,-5.6459,-5.5721,-5.5413,-5.5682,-5.5853,-5.6045,-5.6268,-5.7827,-5.8995,-5.9834,-6.0667,-6.1113,-6.115,-6.1038,-6.0094,-5.8425,-5.6008,-5.5137,-5.5235,-5.3675,0.0,0.0,0.0,0.0,0.0,0.0,0.0,0.0,0.0,0.0,0.0,0.0,0.0,0.0,0.0,0.0,0.0,0.0,0.0,0.0,0.0,0.0,0.0,0.0,0.0,0.0,0.0,0.0,0.0,0.0,0.0,0.0,0.0,0.0,0.0,0.0,0.0,0.0,-5.555,-5.5493,0.0,0.0,0.0,0.0,-5.5485,-5.6203,-5.6626,-5.6626,-5.7366,-5.7785,-5.7862,-5.8574,-5.8994,-5.9033,-5.9873,-6.0269,-6.0269,-6.0332,-6.0112,-5.9728,-6.0127,-6.0097,-5.9744,-6.0103,-5.9797,-5.8842,-5.7237,-5.6129,-5.5389,-5.5389,-5.5425,-5.5473,-5.5413,-5.5427,-5.5415,0.0,0.0,0.0,0.0,0.0,-5.2801,-5.4542,-5.4039,-5.4,-5.5393,-5.6155,-5.6904,-5.7741,-5.8681,-5.9261,-5.9352,-5.9826,-5.9353,-5.7507,-5.7195,-5.6695,-5.5785,-5.5268,-5.4836,-5.449,-5.505,-5.5921,-5.7063,-5.8698,-6.0184,-6.1521,-6.2376,-6.2747,-6.2747,-6.219,-6.1373,-6.0184,-5.8215,-5.6846,-5.5939,-5.4783,-5.4383,0.0,0.0,0.0,0.0,0.0,0.0,0.0,0.0,0.0,0.0,0.0,0.0,0.0,0.0,0.0,0.0,0.0,0.0,0.0,0.0,0.0,0.0,0.0,0.0,0.0,0.0,0.0,0.0,0.0,0.0,0.0,0.0,0.0,0.0,0.0,0.0,0.0,-5.7131,-5.7184,0.0,-5.7838,-5.7404,-5.7085,-5.7047,-5.7328,-5.7467,-5.7467,-5.7747,-5.8154,-5.8651,-5.8956,-5.9376,-5.9911,-6.0217,-6.0285,-6.0038,-6.0532,-6.0302,-5.9432,-6.0138,-6.0083,-5.945,-5.9842,-5.9528,-5.8669,-5.8339,-5.7747,-5.7009,-5.7009,-5.7022,-5.6958,-5.641,-5.6167,-5.6091,0.0,0.0,0.0,0.0,-5.3149,-5.2801,-5.4542,-5.4039,-5.4116,-5.578,-5.6521,-5.7346,-5.8489,-5.9196,-5.97,-6.0085,-6.0409,-5.9643,-5.7438,-5.7484,-5.6958,-5.56,-5.5327,-5.5055,-5.4783,-5.5845,-5.7183,-5.8735,-6.011,-6.1447,-6.2822,-6.3379,-6.3602,-6.3602,-6.3044,-6.2524,-6.193,-6.0518,-5.8698,-5.6617,-5.5466,-5.4988,-5.4854,0.0,0.0,0.0,0.0,0.0,0.0,0.0,0.0,0.0,0.0,0.0,0.0,0.0,0.0,0.0,0.0,0.0,0.0,0.0,0.0,0.0,0.0,0.0,0.0,0.0,0.0,0.0,0.0,0.0,0.0,0.0,0.0,0.0,0.0,0.0,-5.7568,-5.8362,-5.8732,-5.9076,-5.9559,-5.91,-5.8666,-5.8345,-5.8574,-5.8612,-5.8307,-5.8842,-5.9262,-5.9529,-5.9797,-6.0217,-6.079,-6.0537,-6.0385,-6.0402,-6.0668,-6.0389,-5.9643,-6.019,-6.0135,-5.9605,-5.989,-5.968,-5.9163,-5.9445,-5.9224,-5.8689,-5.8116,-5.7818,-5.7634,-5.6866,-5.6587,-5.6473,0.0,0.0,0.0,-5.3614,-5.2724,-5.2763,-5.4503,-5.4039,-5.4116,-5.578,-5.6428,-5.7339,-5.8975,-5.904,-5.9528,-6.0925,-6.0447,-5.9627,-5.8543,-5.7709,-5.6876,-5.5973,-5.6011,-5.6231,-5.6683,-5.8353,-5.9846,-6.1187,-6.2004,-6.2822,-6.3602,-6.3602,-6.3602,-6.3602,-6.3639,-6.3639,-6.3602,-6.2822,-6.0667,-5.7546,-5.58,-5.5577,-5.5949,0.0,0.0,0.0,0.0,0.0,0.0,0.0,0.0,0.0,0.0,0.0,0.0,0.0,0.0,0.0,0.0,0.0,0.0,0.0,0.0,0.0,0.0,0.0,0.0,0.0,0.0,0.0,0.0,0.0,0.0,0.0,0.0,0.0,-5.6936,-5.7608,-5.8413,-5.9203,-5.9991,-6.0499,-6.0499,-6.0499,-6.0102,-5.9248,-5.9988,-6.0102,-5.9248,-6.0752,-6.1287,-6.0499,-6.1211,-6.1631,-6.1631,-6.0828,-6.0828,-6.1578,-6.0776,-6.0356,-6.0356,-6.0356,-6.0356,-6.0356,-6.0394,-6.0356,-6.037,-6.037,-6.037,-6.0217,-5.8612,-5.7744,-5.7339,-5.6861,-5.6625,-5.6473,0.0,0.0,-5.3575,-5.2732,-5.1834,-5.1834,-5.3575,-5.3652,-5.4116,-5.578,-5.6956,-5.7799,-5.8297,-5.9587,-6.0351,-6.0151,-6.001,-5.9251,-5.7725,-5.6815,-5.5873,-5.4823,-5.5881,-5.6496,-5.6423,-5.8601,-6.0215,-6.1187,-6.2004,-6.2822,-6.3602,-6.3602,-6.3602,-6.3639,-6.4233,-6.447,-6.4508,-6.4902,-6.3862,-6.167,-5.8846,-5.7138,-5.6134,0.0,0.0,0.0,0.0,0.0,0.0,0.0,0.0,0.0,0.0,0.0,0.0,0.0,0.0,0.0,0.0,0.0,0.0,0.0,0.0,0.0,0.0,0.0,0.0,0.0,0.0,0.0,0.0,0.0,0.0,0.0,-5.632,-5.6684,-5.7558,-5.8936,-6.0338,-6.1736,-6.2104,-6.2204,-6.2204,-6.2204,-6.186,-6.0981,-6.1707,-6.2128,-6.186,-6.228,-6.2433,-6.2204,-6.2433,-6.2548,-6.2548,-6.1707,-6.1209,-6.1169,-6.0333,-5.9826,-5.952,-5.952,-5.952,-5.9537,-5.9842,-5.9953,-5.9969,-6.0285,-6.0241,-5.9946,-5.9789,-5.964,-5.9455,-5.87,-5.7657,-5.6473,0.0,-5.3846,-5.3111,-5.1873,-5.1254,-5.1478,-5.3227,-5.3498,-5.4116,-5.578,-5.7187,-5.8144,-5.8489,-5.9841,-6.054,-6.0053,-5.9822,-5.8838,-5.6774,-5.5598,-5.4919,-5.4822,-5.6257,-5.7301,-5.7806,-5.9887,-6.1373,-6.2227,-6.2673,-6.3156,-6.3602,-6.3936,-6.4099,-6.4136,-6.4953,-6.5325,-6.5385,-6.5905,-6.5534,-6.4456,-6.219,-6.011,-5.8178,-5.6655,-5.5466,-5.4611,-5.4388,-5.3868,-5.3162,-5.2382,0.0,0.0,0.0,0.0,0.0,0.0,0.0,0.0,0.0,0.0,0.0,0.0,0.0,0.0,0.0,0.0,0.0,0.0,0.0,0.0,0.0,0.0,0.0,0.0,-5.7147,-5.7901,-5.9303,-6.0669,-6.1979,-6.3274,-6.3732,-6.3962,-6.3962,-6.3962,-6.3618,-6.2739,-6.3159,-6.3274,-6.293,-6.3236,-6.3274,-6.293,-6.3236,-6.3427,-6.3427,-6.2586,-6.204,-6.178,-6.0943,-6.0415,-6.0181,-5.9879,-5.9879,-6.0198,-6.0089,-5.9953,-5.9826,-6.0068,-5.9906,0.0,0.0,0.0,0.0,0.0,-5.8039,-5.6511,0.0,-5.3498,-5.2956,-5.1207,-5.0898,-5.1478,-5.3227,-5.3498,-5.4116,-5.578,-5.7208,-5.8258,-5.8897,-5.9779,-6.0212,-6.0067,-5.9482,-5.805,-5.5554,-5.4365,-5.4274,-5.554,-5.6982,-5.8496,-6.0062,-6.1692,-6.2918,-6.3669,-6.3624,-6.3653,-6.375,-6.447,-6.4842,-6.4953,-6.5868,-6.6239,-6.6239,-6.6351,-6.6314,-6.6165,-6.5362,-6.3602,-6.1076,-5.8809,-5.7806,-5.7435,-5.5949,-5.45,-5.3162,-5.2234,0.0,0.0,0.0,0.0,0.0,0.0,0.0,0.0,0.0,0.0,0.0,0.0,0.0,0.0,0.0,0.0,0.0,0.0,0.0,0.0,0.0,0.0,0.0,0.0,-5.8244,-5.9908,-6.1516,-6.2586,-6.3427,-6.4129,-6.4917,-6.5375,-6.5261,-6.5337,-6.507,-6.4282,-6.4282,-6.4,-6.3236,0.0,0.0,0.0,0.0,-6.4359,-6.4359,-6.3359,-6.2871,-6.2947,-6.1963,-6.1529,-6.1552,-6.0766,-6.0804,-6.1415,-6.0657,-6.0129,-5.9809,-5.9858,-5.9639,-5.9415,-6.0084,-6.0114,-5.9744,-5.9188,-5.8039,-5.6702,0.0,-5.3498,-5.2956,-5.1207,-5.0898,-5.1478,-5.3227,-5.3498,-5.4116,-5.578,-5.7312,-5.8033,-5.7495,-5.8758,-5.9403,-5.8688,-5.7081,-5.5402,-5.3641,-5.4522,-5.541,-5.6123,-5.8256,-6.0017,-6.1314,-6.2684,-6.3593,-6.4087,-6.3742,-6.3936,-6.4545,-6.473,-6.5176,-6.5905,-6.6722,-6.7094,-6.7131,-6.7763,-6.7688,-6.7057,-6.6908,-6.4939,-6.2041,-6.0927,-5.9664,-5.8438,-5.8103,-5.7769,-5.7323,-5.5837,-5.476,-5.3683,-5.1565,0.0,0.0,0.0,0.0,0.0,0.0,0.0,0.0,0.0,0.0,0.0,0.0,0.0,0.0,0.0,0.0,0.0,0.0,0.0,0.0,-5.7494,-5.9426,-6.1172,-6.248,-6.3962,-6.4726,-6.4282,-6.4917,-6.5146,-6.4511,-6.5031,-6.507,-6.4282,-6.4802,-6.5108,-6.4917,-6.507,-6.5108,-6.4917,-6.507,-6.5184,-6.5184,-6.3334,-6.2732,-6.3344,0.0,0.0,-6.1581,-6.0771,-6.0469,-6.0601,-6.0118,-5.9874,-5.9842,-6.0144,-6.0256,-6.0144,-5.9969,-5.9874,-5.9668,-5.8539,-5.7925,-5.7466,0.0,-5.3498,-5.2956,-5.1207,-5.1254,-5.1989,-5.3304,-5.3884,-5.4581,-5.5857,-5.6956,-5.7471,-5.7048,-5.8143,-5.838,-5.7077,-5.5274,-5.4091,-5.3858,-5.4559,-5.5767,-5.7418,-5.9032,-6.0587,-6.201,-6.3081,-6.3714,-6.3915,-6.4123,-6.4396,-6.4805,-6.5682,-6.6277,-6.676,-6.754,-6.7911,-6.7948,-6.8357,-6.8283,-6.7874,-6.7465,-6.6091,-6.4159,-6.3342,-6.2004,-6.0555,-6.0555,-5.9775,-5.8512,-5.7323,-5.606,-5.4648,-5.2642,-5.1416,-5.0599,0.0,0.0,0.0,0.0,0.0,0.0,0.0,0.0,0.0,0.0,0.0,0.0,0.0,0.0,-5.433,-5.563,0.0,-5.8052,-6.0116,-6.13,-6.2346,-6.3412,-6.4267,-6.4802,-6.4802,-6.5146,-6.5222,-6.484,-6.5146,-6.5222,-6.484,-6.5184,-6.5413,-6.5413,-6.5413,-6.5413,-6.5413,-6.5413,-6.5298,-6.5101,-6.4082,-6.3437,-6.3182,-6.2352,-6.2163,-6.254,-6.1943,-6.1667,-6.1629,-6.0972,-6.0349,-5.9809,-5.9809,-5.9809,-5.9809,-5.9809,-5.9922,-6.0015,-5.9397,-5.888,-5.8383,0.0,-5.3652,-5.3188,-5.1447,-5.1873,-5.2771,-5.3614,-5.4349,-5.5084,-5.5896,-5.6638,-5.6945,-5.6598,-5.733,-5.7079,-5.5168,-5.3968,-5.3678,-5.452,-5.5034,-5.6353,-5.8713,-6.0054,-6.13,-6.247,-6.3386,-6.384,-6.3792,-6.4487,-6.4948,-6.5165,-6.6635,-6.7391,-6.7577,-6.8208,-6.8481,-6.8481,-6.8481,-6.8481,-6.8407,-6.7614,-6.6834,-6.6017,-6.5125,-6.3899,-6.2599,-6.2301,-6.0778,-5.8809,-5.7843,-5.6506,-5.502,-5.3534,-5.2531,-5.1676,-5.0636,-4.9782,0.0,0.0,0.0,0.0,0.0,0.0,0.0,0.0,0.0,-5.188,-5.311,-5.4134,-5.5266,-5.6664,-5.869,-6.0684,-6.2262,-6.2886,-6.3388,-6.4091,-6.432,-6.4649,-6.5337,-6.5413,-6.5413,-6.5413,-6.5413,-6.5413,-6.5413,-6.5413,-6.5413,-6.5413,-6.5413,-6.5413,-6.5413,-6.5413,-6.522,-6.4792,-6.4641,-6.4065,-6.3158,-6.3294,-6.3477,-6.359,-6.2949,-6.2658,-6.262,-6.1667,-6.0738,-5.989,-5.9554,-5.9432,-5.9467,-5.9809,-6.0114,-6.037,-6.0217,-5.9682,-5.9071,0.0,-5.4116,-5.4116,-5.2376,-5.2763,-5.3652,-5.4503,-5.4735,-5.5084,-5.5896,-5.6729,-5.672,-5.5213,-5.5754,-5.5234,-5.2708,-5.3454,-5.4111,-5.4161,-5.6709,-5.8537,-5.9213,-6.2183,-6.3498,-6.2873,-6.4025,-6.4631,-6.4574,-6.4743,-6.533,-6.6432,-6.7021,-6.7688,-6.837,-6.8444,-6.8481,-6.8481,-6.8481,-6.8481,-6.8407,-6.7614,-6.6834,-6.6017,-6.5125,-6.4233,-6.3305,-6.1856,-6.0667,-5.9531,-5.8029,-5.6915,-5.5986,-5.502,-5.4203,-5.3237,-5.1714,0.0,-5.019,-5.1156,-5.1936,-5.2308,-5.1676,-5.147,-5.1802,0.0,0.0,-5.3831,-5.5413,-5.6554,-5.7303,-5.7397,-5.941,-6.1083,-6.1186,-6.2826,-6.4091,-6.4206,-6.4802,-6.5299,-6.5375,-6.5413,-6.5413,-6.5413,-6.5413,-6.5413,-6.5413,-6.5413,-6.5413,-6.5413,-6.5413,-6.5413,-6.5413,-6.5413,-6.522,-6.4792,-6.4089,-6.3801,-6.3984,-6.3292,-6.3349,-6.3968,-6.2523,-6.1827,-6.177,-6.0522,-6.0129,-6.0328,-6.0285,-6.027,-6.0285,-6.0313,-6.0342,-6.0293,-5.9529,-5.9185,-5.8994,0.0,0.0,-5.4581,-5.3846,-5.4,-5.4387,-5.4735,-5.52,-5.5625,-5.5973,-5.6313,-5.6274,-5.5586,-5.4929,-5.3906,-5.2232,-5.3022,-5.3958,-5.4795,-5.6906,-5.9024,-6.1022,-6.2446,-6.3699,-6.4745,-6.5294,-6.5669,-6.584,-6.6378,-6.6739,-6.7,-6.7686,-6.8208,-6.8481,-6.8481,-6.8481,-6.8481,-6.8481,-6.8246,-6.7725,-6.6945,-6.6128,-6.5162,-6.3379,-6.2524,-6.2041,-6.089,-5.9329,0.0,-5.7026,-5.6246,-5.5391,-5.4574,-5.4091,-5.3385,-5.1268,-5.0748,0.0,-5.1862,-5.2345,-5.2642,0.0,-5.2547,-5.2823,-5.4799,-5.5547,-5.6063,-5.7024,-5.8276,-5.9309,-5.9656,-6.1103,-6.2583,0.0,-6.4291,-6.4879,-6.4879,-6.4764,-6.4496,-6.4,-6.3962,-6.4344,-6.5299,-6.5413,-6.5413,-6.5413,-6.5413,-6.5413,-6.5413,-6.5413,-6.5413,-6.5413,-6.515,-6.4985,-6.4792,-6.418,-6.3973,-6.4096,-6.4049,-6.418,-6.4464,-6.3562,-6.2585,-6.1598,-6.0578,-6.0256,-6.0422,-6.0422,-6.0422,-6.0422,-6.0422,-6.0422,-6.0384,-5.9988,-5.9873,-5.9797,0.0,0.0,0.0,-5.4813,-5.4967,-5.5122,-5.5122,-5.5625,-5.6012,-5.6012,-5.6012,-5.5818,-5.5354,-5.4,-5.2754,-5.1863,-5.2489,-5.3475,-5.4776,-5.681,-5.9013,-6.1444,-6.265,-6.3946,-6.542,-6.6104,-6.6552,-6.673,-6.7406,-6.7576,-6.7307,-6.7761,-6.8068,-6.8171,-6.8171,-6.8296,-6.8481,-6.8481,-6.8036,-6.7205,-6.6165,-6.5125,-6.3899,-6.167,-6.0295,-5.9404,-5.8772,-5.7435,-5.5837,-5.5169,-5.4686,-5.424,-5.3645,-5.346,-5.3125,-5.1342,-5.1231,-5.1862,-5.2457,0.0,0.0,-5.3943,-5.4037,-5.4406,-5.6349,-5.7318,-5.7914,-5.8275,-5.9477,-6.0584,-6.0921,-6.2249,-6.3643,-6.4676,-6.5161,-6.5413,-6.5413,-6.4688,-6.3885,-6.3006,-6.2701,-6.3006,-6.4229,-6.4802,-6.507,-6.507,-6.5261,-6.5413,-6.5413,-6.5413,-6.5413,-6.5413,-6.5101,-6.4934,-6.4792,-6.4575,-6.4389,-6.4311,-6.4757,-6.4854,-6.4605,-6.3818,-6.2662,-6.1249,-6.0637,-6.0422,-6.0422,-6.0422,-6.0422,-6.0422,-6.0422,-6.0422,-6.0422,-6.0422,-6.0422,-6.0422,0.0,0.0,0.0,0.0,-5.547,-5.5973,-5.5973,-5.5973,-5.6012,-5.6012,-5.6012,-5.5393,-5.373,-5.2763,-5.1873,-5.1014,-5.171,-5.2608,-5.3489,-5.6699,-5.8818,-5.9379,-6.3245,-6.4896,-6.3823,-6.6112,-6.7175,-6.6821,-6.7131,-6.7326,-6.7309,-6.6854,-6.6896,-6.7354,-6.7354,-6.78,-6.8481,-6.8481,-6.8036,-6.7168,-6.5496,-6.3876,-6.2301,-6.0593,-5.7934,-5.5206,-5.5169,-5.5094,-5.4686,-5.2345,-5.2048,-5.2679,-5.2642,-5.2642,0.0,-5.2568,-5.2531,-5.2568,0.0,0.0,-5.398,-5.476,-5.5577,-5.6513,-5.7697,-5.8577,-5.914,-5.9178,-6.0144,-6.0818,-6.0336,-6.2198,-6.3747,-6.3596,-6.4584,-6.5413,-6.5413,-6.4688,-6.3885,-6.3006,-6.2166,-6.1669,0.0,-6.3236,-6.4244,-6.4244,-6.4955,-6.5413,-6.5413,-6.5413,-6.5413,-6.5413,-6.5398,-6.5166,-6.4792,-6.515,-6.515,-6.4775,-6.5204,-6.4978,-6.4153,-6.2471,-6.1211,-6.046,-6.0422,-6.0422,-6.0422,-6.0422,-6.0422,-6.0422,-6.0422,-6.0422,-6.0422,-6.0422,-6.0422,-6.0422,0.0,0.0,0.0,0.0,0.0,-5.6012,-5.6012,-5.6012,-5.6012,-5.6012,-5.6012,0.0,0.0,0.0,0.0,0.0,-5.1718,-5.2577,-5.342,-5.5625,-5.7446,-5.879,-6.1239,-6.3179,-6.4486,-6.5846,-6.6896,-6.7602,-6.7699,-6.761,-6.7359,-6.7033,-6.693,-6.7125,-6.7397,-6.7328,-6.7141,-6.7537,-6.6314,-6.401,-6.3453,-6.1893,-5.9775,-5.8141,-5.6469,-5.4797,0.0,-5.2234,-5.1639,-5.0822,0.0,0.0,-5.0933,-5.1342,-5.1899,-5.2457,-5.2751,-5.3118,-5.3981,0.0,-5.5057,-5.6989,-5.7286,-5.7624,-5.9665,-6.0074,-5.991,-5.9328,-6.0164,-6.0648,-5.9533,-6.0871,-6.236,-6.304,-6.3993,-6.4611,-6.4611,-6.4359,-6.3236,-6.0676,-6.1096,0.0,0.0,0.0,0.0,-6.4129,-6.4473,-6.484,-6.5375,-6.5413,-6.5413,-6.5413,-6.5134,-6.5068,-6.5204,-6.5068,-6.5068,-6.5182,-6.4795,-6.3847,-6.2471,-6.186,-6.1172,-6.0422,-6.0422,-6.0422,-6.0422,-6.0422,-6.0422,-6.0422,-6.0422,-6.0422,-6.0422,-6.0422,-6.0422,-6.0422,0.0,0.0,0.0,0.0,0.0,0.0,0.0,0.0,0.0,0.0,0.0,0.0,0.0,0.0,0.0,0.0,0.0,-5.2461,-5.2995,-5.4619,-5.6205,-5.7598,-5.899,-6.0635,-6.2616,-6.3467,-6.4288,-6.5115,-6.509,-6.5033,-6.4901,-6.4084,-6.4144,-6.4837,-6.4839,-6.485,-6.4963,-6.4956,-6.3605,-6.1404,-6.0703,-5.9191,-5.7155,-5.5827,-5.4779,0.0,-5.1915,-5.0837,-5.0233,-4.9817,0.0,0.0,-5.0116,-5.0896,-5.1936,-5.2457,-5.3161,-5.3959,-5.4781,-5.5652,-5.6692,-5.8326,-5.8772,-5.9223,-6.0634,-6.0566,-5.998,-5.9115,-5.9506,-5.9716,-5.8625,-5.9607,-6.081,-6.1524,-6.2323,-6.3059,-6.3656,-6.3212,-6.2128,-6.0217,-6.0408,-6.0102,0.0,0.0,0.0,-6.3121,-6.3862,-6.442,-6.4955,-6.5222,-6.5413,-6.5413,-6.5134,-6.5003,-6.4955,-6.5019,-6.5019,-6.4955,-6.4114,-6.2909,-6.1393,-6.1088,-6.0609,-5.9969,-6.0129,-6.0173,-6.0188,-6.0328,-6.0422,-6.0422,-6.0422,-6.0422,-6.0422,-6.0422,-6.0422,-6.0422,0.0,0.0,0.0,0.0,0.0,0.0,0.0,0.0,0.0,0.0,0.0,0.0,0.0,0.0,0.0,0.0,0.0,0.0,-5.219,-5.373,-5.5045,-5.5857,-5.6699,-5.7598,-5.8449,-5.93,-5.9803,-5.988,-5.9824,-6.0029,-6.0442,-5.8706,-5.8981,-6.0881,-6.0165,-6.0719,-6.2108,-6.1114,-6.0278,-5.9472,-5.7649,-5.6058,-5.467,-5.3867,-5.3072,-5.2267,-5.1419,-5.0929,0.0,0.0,0.0,0.0,0.0,-5.1212,-5.2512,-5.2568,-5.3776,-5.5039,-5.5169,-5.6952,-5.8772,-5.8884,-6.0035,-6.1034,-6.0602,-6.0033,-5.9365,-5.8581,-5.832,-5.805,0.0,0.0,-5.9179,-5.923,-5.9928,-6.1034,-6.2662,-6.1554,-6.0828,0.0,0.0,0.0,0.0,0.0,0.0,-6.1554,0.0,-6.4167,-6.4282,-6.4993,-6.5413,-6.5413,-6.5413,-6.5031,-6.4282,-6.5031,-6.4955,-6.4099,-6.3244,-6.2178,-6.0909,-6.0151,-5.9588,-5.9289,-5.9656,-5.9842,-5.9858,-6.0256,-6.0422,-6.0422,-6.0422,-6.0422,-6.0422,-6.0422,-6.0422,-6.0422,0.0,0.0,0.0,0.0,0.0,0.0,0.0,0.0,0.0,0.0,0.0,0.0,0.0,0.0,0.0,0.0,0.0,0.0,-5.219,-5.2616,-5.3227,-5.4116,-5.4967,-5.5818,-5.6631,-5.7521,-5.8604,-5.988,-5.9871,-5.9949,-6.0045,-5.9386,-5.9338,-5.9868,-5.9984,-6.0273,-6.0669,-6.0833,-5.9419,-5.7066,-5.7195,-5.5928,-5.3969,-5.4387,-5.4016,-5.3229,-5.3039,0.0,0.0,0.0,0.0,0.0,0.0,-5.0569,-5.1316,-5.2325,-5.3925,-5.5715,-5.733,-5.8661,-5.9887,-6.115,-6.0853,-6.029,-6.0376,-5.9384,-5.8165,-5.7192,-5.6994,-5.6792,0.0,0.0,0.0,-5.9165,-6.0481,0.0,-6.2825,-6.3126,0.0,-6.1745,0.0,-6.1669,-6.1019,-6.1554,0.0,0.0,-6.2968,-6.377,-6.5031,-6.5299,-6.5413,-6.5413,-6.5413,-6.5299,-6.5108,-6.5299,-6.4542,-6.2781,-6.2553,-6.1614,-6.0113,-5.9885,-5.9906,-6.0099,-6.0188,-6.0256,-6.027,-6.0342,-6.0422,-6.0422,-6.0422,-6.0422,-6.0422,-6.0422,-6.0422,-6.0422,0.0,0.0,0.0,0.0,0.0,0.0,0.0,0.0,0.0,0.0,0.0,0.0,0.0,0.0,0.0,0.0,0.0,0.0,0.0,-5.219,-5.2422,-5.2917,-5.3033,-5.3304,-5.376,-5.4619,-5.5354,-5.5935,-5.6708,-5.7095,-5.7095,-5.6541,-5.6686,-5.7409,-5.6862,-5.686,-5.7205,-5.7456,-5.6563,0.0,0.0,-5.4739,-5.3563,-5.4013,-5.409,-5.3951,0.0,0.0,0.0,0.0,0.0,-5.1268,-5.1602,-5.2082,-5.2821,-5.4297,0.0,-5.7228,-5.8777,-6.011,-6.115,-6.1744,-6.0981,-6.0085,-5.9927,-5.8548,-5.7194,-5.6608,-5.632,0.0,0.0,0.0,0.0,0.0,0.0,0.0,-6.2202,-6.2782,-6.2968,0.0,-6.2853,0.0,-6.2204,-6.2624,-6.3045,0.0,-6.3465,-6.3885,-6.4802,-6.5222,-6.5413,-6.5413,-6.5413,-6.5413,-6.5413,-6.4511,-6.3628,-6.2821,-6.248,-6.1523,-6.0066,-6.0274,-6.0183,-5.989,0.0,-6.0129,-6.0144,-6.0328,-6.0422,-6.0422,-6.0422,-6.0422,-6.0422,-6.0422,-6.0422,-6.0422,0.0,0.0,0.0,0.0,0.0,0.0,0.0,0.0,0.0,0.0,-5.8565,-5.7791,0.0,0.0,0.0,0.0,0.0,0.0,0.0,0.0,-5.2384,-5.2384,-5.1525,-5.1014,-5.0898,-5.1641,-5.1718,-5.1053,-5.2608,-5.3343,-5.3304,-5.2539,-5.2995,-5.4387,-5.2879,-5.2693,-5.3489,-5.3299,-5.3279,-5.3335,-5.3407,-5.3407,-5.3421,0.0,0.0,0.0,0.0,0.0,0.0,0.0,-5.2891,-5.2754,-5.3571,-5.4351,-5.5354,-5.7026,-5.8182,-5.9153,-5.9998,-6.1459,-6.2513,-6.1667,-6.093,-6.0248,-5.9364,-5.7794,-5.6459,-5.6422,0.0,-5.5703,-5.5703,-5.566,-5.5934,-5.6944,0.0,-5.9038,-6.1551,-6.184,-6.2433,-6.4153,-6.3579,-6.3121,-6.3236,-6.3236,-6.3541,-6.432,-6.4359,-6.4359,-6.4359,-6.5031,-6.5413,-6.5413,-6.5329,-6.5314,-6.5314,-6.347,-6.2866,-6.3399,-6.2714,-6.1687,-6.0492,-6.0832,-6.0396,-5.9379,-5.9744,-5.9874,-5.9906,-6.027,-6.0422,-6.0422,-6.0422,-6.0422,-6.0422,-6.0422,-6.0422,-6.0422,0.0,0.0,0.0,0.0,0.0,0.0,0.0,0.0,0.0,0.0,-5.841,-5.7134,0.0,0.0,0.0,0.0,0.0,0.0,0.0,0.0,0.0,-5.3265,-5.2453,-5.1641,-5.0937,-5.1053,-5.1409,-5.195,-5.2268,-5.2422,-5.2422,-5.2268,-5.2345,-5.2655,-5.2345,-5.2693,-5.3498,-5.3481,-5.3056,-5.2531,-5.3967,-5.4066,-5.3537,-5.4996,0.0,0.0,0.0,0.0,0.0,0.0,-5.3111,-5.2754,-5.3571,-5.4351,-5.5354,-5.7026,-5.8796,-6.045,-6.1629,-6.3113,-6.4049,-6.2873,-6.1732,-6.0556,-5.933,-5.7739,0.0,0.0,0.0,-5.5703,-5.5703,-5.5703,0.0,-5.7796,0.0,0.0,0.0,0.0,-6.3312,0.0,0.0,0.0,0.0,0.0,0.0,0.0,0.0,-6.5184,-6.5184,-6.5337,-6.5413,-6.5413,-6.5068,-6.4879,-6.4879,-6.4143,-6.3538,-6.2993,-6.2843,-6.2145,-6.0901,-6.0951,-6.0697,-6.0188,-6.027,0.0,-6.0299,-6.0356,-6.0422,-6.0422,-6.0422,-6.0422,-6.0422,-6.0422,-6.0422,-6.0422,0.0,0.0,0.0,0.0,0.0,0.0,0.0,-6.1118,-6.0963,-6.0576,-5.9416,-5.8139,-5.6815,-5.7095,-5.667,0.0,0.0,0.0,0.0,0.0,0.0,0.0,0.0,0.0,-5.226,-5.2685,-5.2917,0.0,0.0,-5.373,-5.2879,0.0,0.0,-5.219,-5.1718,-5.1757,-5.2182,-5.2647,-5.2577,-5.2306,-5.3614,-5.3837,0.0,0.0,0.0,0.0,0.0,0.0,0.0,0.0,-5.3482,-5.3266,-5.4332,-5.5137,-5.6172,-5.8698,-6.0217,-6.141,-6.2693,-6.3814,-6.4307,-6.2672,-6.142,-6.019,-5.8658,0.0,0.0,0.0,-5.5703,-5.5703,-5.5703,0.0,0.0,0.0,0.0,0.0,0.0,0.0,0.0,0.0,0.0,0.0,0.0,0.0,0.0,0.0,0.0,-6.5413,-6.5413,-6.5413,-6.5298,-6.5085,-6.4917,-6.4686,-6.4445,-6.3563,-6.3273,-6.3516,-6.3122,-6.2673,-6.2311,-6.2547,-6.23,-6.1669,-6.1211,-6.1019,-6.0981,-6.0575,-6.0422,-6.0422,-6.0422,-6.0422,-6.0422,-6.0422,-6.0422,-6.0422,0.0,0.0,0.0,0.0,0.0,0.0,-6.1118,-6.1118,-6.1041,-6.0886,-6.0422,-5.9571,-5.8023,-5.8294,-5.8062,0.0,0.0,0.0,0.0,0.0,0.0,0.0,0.0,0.0,0.0,0.0,0.0,0.0,0.0,0.0,0.0,0.0,0.0,0.0,0.0,0.0,-5.0937,-5.1641,-5.1912,0.0,0.0,0.0,0.0,0.0,0.0,0.0,0.0,0.0,0.0,0.0,-5.3428,-5.3209,-5.4694,-5.5842,-5.7203,-6.0041,-6.1314,-6.2071,-6.3248,-6.4238,-6.4474,-6.2444,-6.1115,-5.9903,-5.822,-5.6709,0.0,0.0,-5.5703,-5.5703,-5.5703,0.0,0.0,0.0,0.0,0.0,0.0,0.0,0.0,0.0,0.0,0.0,0.0,0.0,0.0,0.0,0.0,0.0,-6.5283,-6.5267,-6.5085,-6.4668,-6.4576,-6.4388,-6.4096,-6.3062,-6.3105,-6.4235,-6.3615,-6.3444,-6.3681,-6.4047,-6.3618,-6.2586,-6.1898,-6.1516,-6.1287,-6.0637,-6.0422,-6.0422,-6.0422,-6.0422,-6.0422,-6.0422,-6.0422,-6.0422,0.0,0.0,0.0,0.0,0.0,0.0,-6.1118,-6.1118,-6.0847,-6.0112,-6.0576,-6.0654,-5.9764,-5.9029,-5.8535,0.0,0.0,0.0,0.0,0.0,0.0,0.0,0.0,0.0,0.0,0.0,0.0,0.0,0.0,0.0,0.0,0.0,0.0,0.0,0.0,0.0,0.0,-5.0975,0.0,0.0,0.0,0.0,0.0,0.0,0.0,0.0,0.0,0.0,0.0,0.0,0.0,-5.1561,-5.3451,-5.5813,-5.8108,-5.9462,0.0,0.0,-6.3268,-6.4619,-6.5293,-6.3221,-6.1707,-6.0323,-5.8631,0.0,0.0,-5.5703,-5.5703,-5.5703,-5.5703,-5.5703,-5.5972,0.0,0.0,0.0,0.0,0.0,0.0,0.0,0.0,0.0,0.0,0.0,0.0,0.0,0.0,0.0,-6.4862,-6.4882,-6.463,-6.4156,-6.3803,-6.3782,-6.4096,-6.3621,-6.3834,-6.4739,-6.4664,-6.4436,-6.4161,-6.4191,-6.3274,-6.1707,-6.1631,-6.1172,0.0,-6.0422,-6.0422,-6.0422,-6.0422,-6.0422,-6.0422,-6.0422,-6.0422,-6.0422,0.0,0.0,0.0,0.0,0.0,0.0,-6.046,-6.0383,-6.0267,-5.9919,-6.019,-6.0422,-6.0615,-6.0306,-6.0112,-6.0112,0.0,0.0,0.0,0.0,0.0,0.0,0.0,0.0,0.0,0.0,-5.5006,-5.5006,-5.5006,0.0,0.0,0.0,0.0,0.0,0.0,0.0,0.0,0.0,0.0,0.0,0.0,0.0,0.0,0.0,0.0,0.0,0.0,0.0,0.0,0.0,0.0,0.0,-5.2433,-5.404,0.0,0.0,-6.0279,-6.2071,-6.3196,-6.4672,-6.541,-6.3308,-6.1812,-6.0358,-5.8665,0.0,-5.5703,-5.5703,-5.5703,-5.5703,-5.5703,-5.5703,-5.5818,-5.6165,0.0,0.0,0.0,0.0,0.0,0.0,0.0,0.0,0.0,0.0,0.0,0.0,0.0,0.0,-6.4074,-6.4501,-6.4464,-6.3761,-6.3825,-6.3825,-6.3739,-6.3825,-6.4194,-6.4792,-6.4792,-6.4828,-6.4917,-6.442,-6.3809,-6.3121,-6.2051,-6.1402,0.0,-6.0599,-6.0422,-6.0422,-6.0422,-6.0422,-6.0422,-6.0422,-6.0422,-6.0422,0.0,0.0,0.0,0.0,0.0,-6.0925,-6.0344,-6.0267,-6.0267,-6.0267,-6.0267,-6.046,-6.1041,-6.1118,-6.1002,-6.077,-6.0731,0.0,0.0,0.0,0.0,0.0,0.0,0.0,0.0,0.0,-5.6012,-5.6012,-5.6012,-5.5702,0.0,0.0,0.0,0.0,0.0,0.0,0.0,0.0,0.0,0.0,0.0,0.0,0.0,0.0,0.0,0.0,0.0,0.0,0.0,0.0,0.0,0.0,0.0,0.0,0.0,0.0,-5.9112,-6.1082,-6.233,-6.39,-6.4654,-6.2692,-6.1288,-5.9973,0.0,0.0,-5.5703,-5.5703,-5.5703,-5.5703,-5.5703,-5.5703,-5.5703,-5.5703,0.0,-5.5945,0.0,0.0,0.0,0.0,0.0,0.0,0.0,0.0,0.0,0.0,0.0,0.0,-6.3718,-6.4273,-6.4253,-6.3535,-6.3684,-6.3791,-6.3888,-6.3911,-6.4293,-6.4985,-6.4985,-6.5117,-6.5375,-6.4444,-6.3879,-6.3558,-6.1979,-6.118,0.0,-6.0327,-6.0114,-6.0188,-6.0099,-6.0114,-6.0203,-6.0203,-6.0452,-6.0752,0.0,0.0,0.0,0.0,0.0,-6.1118,-6.1079,-6.1079,-6.1079,-6.1079,-6.1079,-6.1079,-6.1118,-6.1118,-6.077,-5.9996,-5.9919,0.0,0.0,0.0,0.0,0.0,0.0,0.0,0.0,0.0,-5.6012,-5.6012,-5.6012,-5.6012,-5.6012,-5.6012,-5.5548,0.0,0.0,0.0,0.0,0.0,0.0,0.0,0.0,0.0,0.0,0.0,0.0,0.0,0.0,0.0,0.0,0.0,0.0,0.0,0.0,-5.1856,-5.3538,0.0,-5.7337,-5.9356,-6.0517,-6.205,-6.2923,-6.1243,-6.0165,-5.905,0.0,0.0,-5.5703,-5.5703,-5.5703,-5.5703,-5.5703,-5.5703,-5.5703,-5.5703,-5.5703,0.0,0.0,0.0,0.0,0.0,0.0,0.0,0.0,0.0,0.0,0.0,0.0,0.0,-6.4076,-6.4096,-6.393,-6.3513,-6.3102,-6.3502,-6.4775,-6.3923,-6.4149,-6.5375,-6.5375,-6.5413,-6.536,-6.4144,-6.3141,-6.2252,-6.1053,-6.0259,0.0,-5.9379,-5.945,-5.9777,-5.9379,-5.9467,-5.9809,-5.9809,-6.0563,-6.1593,0.0,0.0,0.0,0.0,0.0,0.0,-6.0344,-6.0267,-6.0267,-6.0267,-6.0267,-6.0267,-6.0267,-6.0267,-5.9919,-5.9068,-5.9571,0.0,0.0,0.0,0.0,0.0,0.0,0.0,0.0,-5.6012,-5.6274,-5.6893,-5.6893,-5.6893,-5.6893,-5.6893,-5.6429,-5.5625,-5.5625,0.0,0.0,0.0,0.0,0.0,0.0,0.0,0.0,0.0,0.0,0.0,0.0,0.0,0.0,0.0,0.0,0.0,0.0,0.0,0.0,-5.401,-5.6148,-5.8765,-5.9642,-6.0742,-6.132,-6.0204,-5.9281,-5.8396,-5.7253,0.0,-5.5703,-5.5703,-5.5703,-5.5703,-5.5703,-5.5703,-5.5703,-5.5703,-5.5703,0.0,0.0,0.0,0.0,0.0,0.0,0.0,0.0,0.0,0.0,0.0,0.0,0.0,-6.3718,-6.452,-6.4648,-6.395,-6.4086,-6.4403,-6.4792,-6.4509,-6.4736,-6.5375,-6.481,-6.4666,-6.4947,-6.314,-6.2165,-6.1807,-6.0248,-5.9514,-5.9379,-5.9252,-5.9289,-5.9452,-6.0158,-6.0505,-6.0714,-6.1599,-6.2154,-6.251,0.0,0.0,0.0,0.0,0.0,0.0,-6.0422,-6.0344,-6.0344,-6.0344,-6.0344,-6.0344,-6.0344,-6.0074,-5.9532,-5.869,-5.8797,0.0,0.0,0.0,0.0,0.0,0.0,0.0,-5.6012,-5.6012,-5.6429,-5.728,-5.728,-5.7473,-5.7791,-5.7434,-5.7009,-5.6467,-5.6158,-5.6012,0.0,0.0,0.0,0.0,0.0,0.0,-5.5243,0.0,0.0,0.0,0.0,0.0,0.0,0.0,0.0,0.0,0.0,0.0,0.0,0.0,-5.5395,-5.7511,0.0,-5.9204,-5.9665,-5.8781,-5.8165,0.0,0.0,0.0,-5.5703,-5.5703,-5.5703,-5.5703,-5.5703,-5.5703,-5.5703,-5.5703,-5.5703,0.0,0.0,0.0,0.0,0.0,0.0,0.0,0.0,0.0,0.0,0.0,0.0,0.0,-6.3739,-6.4668,-6.4981,-6.4612,-6.4558,-6.4731,-6.5035,-6.4541,-6.4592,-6.515,-6.4464,-6.4084,-6.4029,-6.2255,-6.1307,-6.0933,-5.9427,-5.8831,0.0,-5.8811,-5.8929,-5.929,-6.0228,-6.0745,-6.1131,-6.2252,-6.2979,-6.3388,0.0,0.0,0.0,0.0,0.0,0.0,0.0,-6.1118,-6.1118,-6.1118,-6.1118,-6.1079,-6.1041,-6.0344,-5.9532,-5.869,-5.7869,0.0,0.0,0.0,0.0,0.0,0.0,0.0,-5.6012,-5.6012,-5.6467,-5.7396,-5.7396,-5.783,-5.8681,-5.7869,-5.7434,-5.7241,-5.6429,-5.6051,-5.6012,-5.6012,-5.6012,-5.6003,-5.6003,-5.6016,0.0,0.0,0.0,0.0,0.0,0.0,0.0,0.0,0.0,0.0,0.0,0.0,0.0,0.0,0.0,0.0,0.0,-5.7511,-5.7934,-5.7099,-5.6907,-5.6714,-5.5857,0.0,0.0,0.0,-5.5703,-5.5703,-5.5703,-5.5703,-5.5703,-5.5703,-5.5703,0.0,0.0,0.0,0.0,0.0,0.0,0.0,0.0,0.0,0.0,0.0,0.0,0.0,-6.4076,-6.4557,-6.5019,-6.5398,-6.4634,-6.4581,-6.5345,-6.4137,-6.3909,-6.4664,-6.4235,-6.3603,-6.2798,-6.1656,-6.072,0.0,-5.8606,-5.8268,-5.8566,-5.8246,-5.8593,-5.9366,-5.9933,-6.0566,-6.1304,-6.2172,-6.3258,-6.4282,0.0,0.0,0.0,0.0,0.0,0.0,0.0,0.0,0.0,0.0,-6.1118,-6.0886,-6.0267,-5.9996,-5.9532,0.0,0.0,0.0,0.0,0.0,0.0,0.0,0.0,0.0,-5.6012,-5.6012,-5.6747,-5.8294,-5.8294,-5.872,-5.9571,-5.9377,-5.8565,-5.728,-5.7086,-5.6622,-5.6012,-5.6012,-5.6012,-5.6003,-5.6007,-5.5989,0.0,0.0,0.0,0.0,-5.5514,-5.5406,0.0,0.0,0.0,0.0,0.0,0.0,0.0,0.0,-5.5049,-5.5742,-5.5934,0.0,-5.6242,-5.6049,-5.6011,-5.5934,0.0,0.0,0.0,0.0,0.0,0.0,0.0,0.0,0.0,0.0,0.0,0.0,0.0,0.0,0.0,0.0,0.0,0.0,0.0,0.0,0.0,0.0,0.0,-6.3975,-6.4076,-6.4845,-6.5298,-6.5413,-6.4911,-6.4761,-6.4951,-6.3986,-6.3447,-6.3332,-6.3178,-6.2877,-6.2417,-6.18,-6.1051,-6.0217,-5.9328,-5.8784,-5.8624,-5.9208,-5.976,-6.036,-6.205,-6.2834,-6.3137,-6.4257,-6.4856,-6.5108,0.0,0.0,0.0,0.0,0.0,0.0,0.0,0.0,0.0,0.0,-6.1118,-6.0925,-6.0499,-6.0112,-5.9725,0.0,0.0,0.0,0.0,0.0,0.0,0.0,0.0,-5.6012,-5.6012,-5.6012,-5.6863,-5.8613,-5.8613,-5.9223,-6.0422,-6.0074,-5.9184,-5.7869,-5.7056,-5.6429,-5.6012,-5.6012,-5.5995,-5.6016,-5.5989,0.0,0.0,0.0,0.0,0.0,-5.5714,-5.5703,0.0,-5.5703,-5.5703,-5.5626,0.0,0.0,0.0,0.0,-5.5357,-5.5703,-5.5703,-5.5703,-5.5703,-5.5703,-5.5703,-5.5703,-5.5703,0.0,0.0,0.0,0.0,0.0,0.0,0.0,0.0,0.0,0.0,0.0,0.0,0.0,0.0,0.0,0.0,0.0,0.0,0.0,0.0,0.0,0.0,-6.4176,-6.4407,-6.4862,-6.5117,-6.5117,-6.418,-6.3823,-6.4261,-6.3368,-6.2864,-6.2612,-6.2013,-6.1592,-6.1408,-6.1163,-6.0603,-5.9869,-5.9992,-5.9967,-5.9817,-6.0455,-6.0979,-6.1462,-6.2997,-6.3698,-6.3997,-6.5009,-6.5413,-6.5413,0.0,0.0,0.0,0.0,0.0,0.0,0.0,0.0,0.0,0.0,0.0,0.0,0.0,0.0,0.0,0.0,0.0,0.0,0.0,0.0,0.0,0.0,-5.6128,-5.6042,-5.6197,-5.6197,-5.7056,-5.8806,-5.8806,-5.9571,-6.1079,-6.0383,-5.9532,-5.8535,-5.694,-5.6119,-5.6003,-5.6003,-5.6016,-5.6009,-5.6,0.0,0.0,0.0,0.0,0.0,0.0,0.0,0.0,-5.5703,-5.5703,-5.5703,-5.5703,0.0,0.0,0.0,0.0,0.0,-5.5703,-5.5703,-5.5703,-5.5703,-5.5703,-5.5703,-5.5703,0.0,0.0,0.0,0.0,0.0,0.0,0.0,0.0,0.0,0.0,0.0,0.0,0.0,0.0,0.0,0.0,0.0,0.0,0.0,0.0,0.0,-6.4275,-6.4199,-6.4686,-6.4643,-6.4568,-6.4514,-6.2956,-6.2408,-6.3043,-6.2346,-6.2027,-6.2005,-6.0927,-6.0419,-6.0419,-6.0419,-6.0063,-5.9568,0.0,0.0,-6.1144,-6.1599,-6.1951,-6.226,-6.3149,-6.3769,-6.4282,-6.4955,-6.5299,-6.5413,0.0,0.0,0.0,0.0,0.0,0.0,0.0,0.0,0.0,0.0,0.0,0.0,0.0,0.0,0.0,0.0,0.0,0.0,0.0,0.0,0.0,-5.8255,-5.6786,-5.6351,-5.7086,-5.7086,-5.7946,-5.9687,-5.9687,-6.019,-6.1118,-6.0963,-6.0074,-5.8574,-5.7559,-5.6699,-5.6003,-5.6007,-5.598,-5.6009,-5.5885,0.0,0.0,0.0,0.0,0.0,0.0,0.0,0.0,-5.5703,-5.5703,-5.5703,-5.5703,0.0,0.0,0.0,0.0,0.0,-5.5703,-5.5703,-5.5703,-5.5703,-5.5703,-5.5703,-5.5703,0.0,0.0,0.0,0.0,0.0,0.0,0.0,0.0,0.0,0.0,0.0,0.0,0.0,0.0,0.0,0.0,0.0,0.0,0.0,0.0,-6.4178,-6.3841,-6.3764,-6.4215,-6.3932,-6.3608,-6.3181,-6.1931,-6.1013,-6.0472,-6.0618,-6.0685,-6.0685,-6.048,-6.0419,-6.0419,-6.0419,-6.0545,-6.084,0.0,-6.1065,-6.1097,-6.1885,-6.2005,-6.1787,-6.2665,-6.3497,-6.4206,-6.4359,-6.4802,-6.5413,0.0,0.0,0.0,0.0,0.0,0.0,0.0,0.0,0.0,0.0,0.0,0.0,0.0,0.0,0.0,0.0,0.0,0.0,0.0,0.0,-5.9029,-5.8613,-5.7366,-5.7095,-5.7985,-5.7985,-5.8642,-5.988,-5.988,-6.0306,-6.1079,-6.0654,-5.9803,-5.8574,-5.7675,-5.6807,-5.6007,-5.5989,-5.5943,-5.5895,0.0,0.0,0.0,0.0,0.0,0.0,0.0,0.0,0.0,0.0,-5.5703,-5.5703,-5.5703,0.0,0.0,0.0,0.0,0.0,-5.5703,-5.5703,-5.5818,-5.6291,-5.6406,-5.6406,-5.6406,-5.678,0.0,0.0,0.0,0.0,0.0,0.0,0.0,0.0,0.0,0.0,0.0,0.0,0.0,0.0,0.0,0.0,0.0,0.0,-6.3777,-6.4407,-6.3457,-6.3134,-6.3784,-6.303,-6.2372,-6.1956,-6.0744,-5.9885,-5.9516,-5.9251,-5.9318,-5.9758,-5.9758,-5.9758,-5.9758,-5.9978,-6.0448,-6.1119,0.0,-6.1976,-6.2366,-6.2563,-6.2491,-6.2357,-6.2739,-6.3427,-6.4244,-6.4688,-6.4802,-6.4802,0.0,0.0,0.0,0.0,0.0,0.0,0.0,0.0,0.0,0.0,0.0,0.0,0.0,0.0,0.0,0.0,0.0,0.0,0.0,-5.9841,-5.9416,-5.9184,-5.8565,-5.841,-5.8874,-5.8913,-5.9416,-6.0499,-6.0267,-6.0499,-6.1079,-6.046,-5.9725,-5.8865,-5.8199,-5.7398,-5.657,-5.656,-5.6474,-5.6403,0.0,0.0,0.0,0.0,0.0,0.0,0.0,0.0,0.0,0.0,0.0,0.0,0.0,0.0,0.0,-5.5703,-5.5703,-5.5703,-5.5703,-5.5703,-5.5895,-5.6791,-5.6983,-5.706,-5.7253,-5.7819,0.0,0.0,0.0,0.0,0.0,0.0,0.0,0.0,0.0,0.0,0.0,0.0,0.0,0.0,0.0,0.0,0.0,-6.3661,-6.3434,-6.4024,-6.2859,-6.2437,-6.3134,-6.2033,-6.1157,-6.0685,-5.9527,-5.8914,-5.8914,-5.851,-5.8584,-5.9184,-5.9001,-5.9001,-5.9208,-5.9412,-6.0062,-6.1011,-6.1673,-6.2383,-6.2997,-6.262,-6.2315,-6.2162,-6.2086,-6.2665,-6.3708,-6.4508,-6.453,-6.4264,0.0,0.0,0.0,0.0,0.0,0.0,0.0,0.0,0.0,0.0,0.0,0.0,0.0,0.0,0.0,0.0,0.0,0.0,0.0,-6.2162,-6.1776,-6.0963,-6.0847,-6.0499,-5.9803,-5.9803,-6.0615,-6.224,-6.1427,-6.1041,-6.1118,-6.1041,-6.0548,-5.9698,-5.966,-5.909,-5.8209,-5.8168,-5.8137,-5.8126,-5.811,0.0,0.0,0.0,0.0,0.0,0.0,0.0,0.0,0.0,0.0,0.0,0.0,0.0,-5.5703,-5.5703,-5.5703,-5.5703,-5.5703,-5.5703,-5.5895,-5.6791,-5.6983,-5.7214,-5.8011,-5.8242,0.0,-5.8319,0.0,0.0,0.0,0.0,0.0,0.0,0.0,0.0,0.0,0.0,0.0,0.0,0.0,-6.4307,-6.3162,-6.2631,-6.2269,-6.1958,-6.1744,-6.1711,-6.1827,-6.1055,-6.0214,-5.9352,-5.8534,-5.8107,-5.8107,-5.8767,-5.9148,-5.9184,-5.8437,-5.8474,-5.9171,-5.882,-5.9353,-6.0548,-6.0946,-6.1353,-6.1726,-6.1299,-6.0676,-6.0015,-5.9621,-6.0473,-6.1977,-6.2786,-6.3538,-6.4101,0.0,0.0,0.0,0.0,0.0,0.0,0.0,0.0,0.0,0.0,0.0,0.0,0.0,0.0,0.0,0.0,0.0,0.0,0.0,-6.1582,-6.1234,-6.0383,-6.0344,-6.019,-5.9919,-6.0925,-6.1776,-6.2394,-6.2085,-6.1621,-6.1118,-6.1118,-6.0626,-5.9814,-5.9814,-5.9253,-5.8351,-5.8291,-5.8297,-5.8303,-5.828,-5.8588,0.0,0.0,0.0,0.0,0.0,0.0,0.0,0.0,-5.6406,-5.5703,-5.5703,-5.5703,-5.5703,-5.5703,-5.5703,-5.5703,-5.5703,-5.6088,-5.6714,-5.7588,-5.8165,0.0,0.0,-5.9473,-5.9858,-5.9858,-5.9858,0.0,0.0,0.0,0.0,0.0,0.0,0.0,0.0,0.0,0.0,0.0,-6.4676,-6.383,-6.3329,-6.2188,-6.1637,-6.2027,-6.1072,-6.0627,-6.0962,-5.9905,-5.9048,-5.846,-5.8143,-5.7997,-5.7997,-5.829,-5.8437,-5.8474,-5.8657,-5.8657,-5.846,-5.8582,-5.9298,-6.0454,-6.0057,-6.0396,-6.1147,-6.0231,-5.9696,-5.9528,-6.0398,-6.083,-6.1111,-6.297,-6.3533,-6.3438,0.0,0.0,0.0,0.0,0.0,0.0,0.0,0.0,0.0,0.0,0.0,0.0,0.0,0.0,0.0,0.0,0.0,0.0,-6.2046,-6.166,-6.1157,-6.0306,-5.9764,-5.9609,-5.988,-6.1273,-6.2124,-6.2394,-6.2394,-6.1959,-6.1051,-6.1051,-6.0751,-6.0141,-6.0141,-5.9742,-5.9106,-5.9106,-5.9084,-5.9088,-5.9088,-5.9435,0.0,0.0,0.0,0.0,0.0,0.0,0.0,0.0,-5.6819,-5.6049,-5.578,-5.5703,-5.5703,-5.5703,-5.5703,-5.5742,-5.6049,-5.656,-5.7291,-5.8396,0.0,0.0,-5.9858,-6.0589,-6.1204,-6.1204,-6.1204,0.0,0.0,0.0,0.0,0.0,0.0,0.0,0.0,0.0,0.0,0.0,-6.4101,-6.3413,-6.2969,-6.175,-6.1086,-6.1306,-6.0387,-5.9836,-5.9908,-5.9069,-5.8434,-5.802,-5.7997,-5.7997,-5.7997,-5.8119,-5.8186,-5.8186,-5.8739,-5.8649,-5.802,-5.8434,-5.9069,-5.9889,-5.9384,-5.9662,-6.0365,-5.9422,-5.8949,-5.898,-6.036,-6.0713,-6.0638,-6.2598,-6.3099,-6.2971,0.0,0.0,0.0,0.0,0.0,0.0,0.0,0.0,-6.4986,-6.4986,-6.5721,0.0,0.0,0.0,0.0,0.0,0.0,0.0,-6.3797,-6.2897,-6.2008,-6.1118,-5.9493,-5.899,-5.988,-6.0692,-6.1505,-6.2394,-6.2394,-6.1901,-6.1002,-6.1002,-6.0941,-6.0911,-6.0911,-6.0877,-6.0781,-6.0781,-6.0781,-6.0781,-6.0781,-6.0781,-6.0781,0.0,0.0,0.0,0.0,0.0,0.0,0.0,-5.7703,-5.6868,-5.5972,-5.5703,-5.5703,-5.5703,-5.5703,-5.5895,-5.6791,-5.7022,-5.7407,0.0,0.0,0.0,-6.0589,-6.1485,-6.2101,-6.2101,0.0,-6.155,-5.9819,0.0,0.0,0.0,0.0,0.0,0.0,0.0,0.0,-6.3845,-6.3571,-6.3025,-6.1807,-6.1291,-6.0475,-5.9309,-5.9571,-5.945,-5.8648,-5.8586,-5.8412,-5.802,-5.7997,-5.7997,-5.7997,-5.8412,-5.8607,-5.8607,-5.8607,-5.8391,-5.802,-5.8434,-5.8586,-5.8628,-5.9026,-5.9197,-5.9178,-5.877,-5.8369,-5.8107,-5.8914,-5.9722,-6.0529,-6.1324,-6.2108,-6.288,0.0,0.0,0.0,0.0,0.0,0.0,0.0,0.0,-6.5837,-6.5837,-6.6031,0.0,0.0,0.0,0.0,0.0,0.0,0.0,-6.3797,-6.2897,-6.1776,-6.0306,-5.9764,-5.9339,-5.899,-5.9775,-6.0925,-6.2394,-6.1776,-6.1331,-6.1002,-6.0354,-6.037,-6.0911,-6.0911,-6.0877,-6.0781,-6.0781,-6.0781,-6.0781,-6.0781,-6.0781,-6.0781,0.0,0.0,0.0,0.0,0.0,0.0,0.0,0.0,0.0,-5.5972,-5.5703,-5.5818,-5.6445,-5.6599,-5.6791,-5.7665,-5.8319,0.0,0.0,0.0,0.0,0.0,-6.1012,0.0,0.0,0.0,0.0,0.0,0.0,0.0,-6.0781,-6.1743,-6.2666,0.0,0.0,0.0,-6.2969,-6.2493,-6.1976,-6.1269,-6.0577,-6.0025,-5.966,-5.9467,-5.9159,-5.8628,-5.8326,-5.8119,-5.7997,-5.7997,-5.8142,-5.8434,-5.8524,-5.8607,-5.8607,-5.8607,-5.8524,-5.8434,-5.8238,-5.8326,-5.8586,-5.8434,-5.854,-5.875,-5.8348,-5.8465,-5.8914,-5.9722,-6.0743,-6.1841,-6.2655,-6.3267,-6.3723,0.0,0.0,0.0,0.0,0.0,0.0,0.0,0.0,-6.6185,-6.6185,-6.6185,-6.6185,0.0,0.0,0.0,0.0,0.0,0.0,-6.43,-6.2743,-6.1427,-6.0422,-5.9416,-5.8943,-5.9079,-5.9862,-6.078,-6.1823,-6.0953,-6.0691,-6.0941,-6.0408,-6.0432,-6.0877,-6.0877,-6.0854,-6.0781,-6.0781,-6.0781,-6.0781,-6.0781,-6.0781,-6.0781,0.0,0.0,0.0,0.0,0.0,0.0,0.0,0.0,0.0,-5.6588,-5.6434,-5.678,-5.6945,-5.7253,-5.7703,-5.855,-5.9127,0.0,0.0,0.0,0.0,0.0,0.0,0.0,0.0,0.0,0.0,0.0,0.0,0.0,-6.0686,-6.1326,-6.1863,-6.1896,-6.2597,-6.2791,-6.1885,-6.1606,-6.1385,-6.1044,-6.0431,-5.9906,-5.9588,-5.9343,-5.8968,-5.8391,-5.8119,-5.7997,-5.7997,-5.8142,-5.8348,-5.8586,-5.8929,-5.9026,-5.885,-5.885,-5.877,-5.8586,-5.8186,-5.8119,-5.8348,-5.8097,-5.8142,-5.8348,-5.8097,-5.829,-5.8864,-6.0153,-6.1166,-6.1974,-6.3264,-6.3909,-6.4116,0.0,0.0,-6.6185,-6.6185,0.0,0.0,0.0,0.0,-6.6185,-6.6185,-6.6185,-6.6185,0.0,0.0,0.0,0.0,0.0,0.0,0.0,-6.2665,-6.1225,-6.1234,-5.8865,-5.8258,-5.9882,-6.0529,-6.0923,-6.0987,-6.011,-6.0117,-6.0911,-6.0823,-6.08,-6.0781,-6.0781,-6.0781,-6.0781,-6.0781,-6.0781,-6.0781,-6.0781,-6.0781,-6.0781,-6.0781,0.0,0.0,0.0,0.0,0.0,0.0,0.0,0.0,-5.7627,-5.7665,-5.8165,-5.7434,-5.778,-5.8588,-5.9396,0.0,0.0,0.0,0.0,0.0,0.0,0.0,0.0,0.0,0.0,0.0,0.0,0.0,0.0,-6.0502,-6.0919,-6.0995,-5.9934,-6.1124,-6.1719,-6.071,-6.0951,-6.1121,-6.0909,-6.0601,-6.0084,-5.927,-5.9215,-5.885,-5.8042,-5.7997,-5.7997,-5.7997,-5.8348,-5.8566,-5.8607,-5.9343,-5.9502,-5.9159,-5.9159,-5.8949,-5.8524,-5.8164,-5.7997,-5.7997,-5.7997,-5.802,-5.8065,-5.8139,-5.8235,-5.851,-6.0506,-6.1332,-6.164,-6.3491,-6.4176,-6.4254,0.0,0.0,-6.6185,-6.6185,0.0,0.0,0.0,0.0,0.0,-6.6185,0.0,0.0,0.0,0.0,0.0,0.0,0.0,0.0,0.0,-6.3477,-6.2085,-6.2114,-6.0268,-5.9717,-6.0699,-6.0194,-6.025,-6.0933,-6.0046,-6.0074,-6.0872,-6.0173,-6.0177,-6.0781,-6.0781,-6.0781,-6.0781,-6.0781,-6.0781,-6.0781,-6.0781,-6.0781,-6.0781,-6.0781,-6.0781,0.0,0.0,0.0,0.0,0.0,0.0,0.0,-5.8319,-5.8165,-5.8396,-5.8819,-5.9088,-5.9435,0.0,-6.0512,0.0,0.0,0.0,0.0,0.0,0.0,0.0,0.0,0.0,0.0,0.0,0.0,0.0,-6.0502,-6.0446,-6.0385,-5.9858,-6.056,-6.0794,-5.9946,-6.0605,-6.0855,-6.021,-6.0303,-6.0084,-5.927,-5.9215,-5.885,-5.8042,-5.7997,-5.7997,-5.7997,-5.8074,-5.826,-5.8586,-5.8791,-5.8831,-5.873,-5.873,-5.8503,-5.8119,-5.8042,-5.7997,-5.7997,-5.7997,-5.8186,-5.8535,-5.9223,-6.0045,-6.0988,-6.2081,-6.3105,-6.4067,-6.448,-6.4845,-6.5085,0.0,0.0,0.0,0.0,0.0,0.0,0.0,0.0,0.0,0.0,0.0,0.0,0.0,0.0,0.0,0.0,0.0,0.0,0.0,0.0,-6.1899,-6.1157,-6.0634,-6.0555,-6.0955,-6.0459,-6.0437,-6.0866,-6.0404,-6.0404,-6.0827,-6.0331,-6.0358,-6.0781,-6.0781,-6.0781,-6.0781,-6.0781,-6.0781,-6.0781,-6.0781,-6.0781,-6.0781,-6.0781,-6.0781,-6.0781,-6.0781,0.0,0.0,0.0,0.0,0.0,0.0,0.0,-5.9511,-5.9511,-5.9819,-6.0204,0.0,0.0,0.0,0.0,0.0,0.0,0.0,0.0,0.0,0.0,0.0,0.0,0.0,0.0,0.0,-6.0235,-5.9899,-5.9723,-5.9537,-5.9807,-6.0007,-5.9906,-6.0295,-6.0525,-6.0226,-6.0159,-5.9858,-5.9252,-5.9026,-5.8628,-5.8042,-5.7997,-5.8074,-5.826,-5.8282,-5.8498,-5.889,-5.889,-5.8811,-5.8607,-5.8607,-5.8576,-5.8584,-5.8584,-5.8584,-5.8621,-5.8988,-5.9374,-5.9834,-6.028,-6.0961,-6.1807,-6.2843,-6.3648,-6.4296,-6.4866,-6.5236,-6.5345,0.0,0.0,0.0,0.0,0.0,0.0,0.0,0.0,0.0,0.0,0.0,0.0,0.0,0.0,0.0,0.0,0.0,0.0,0.0,0.0,0.0,-5.9963,-6.059,-6.0955,-6.09,-6.09,-6.0877,-6.0781,-6.0781,-6.0781,-6.0781,-6.0781,-6.0781,-6.0781,-6.0781,-6.0781,-6.0781,-6.0627,-6.0589,-6.0589,-6.0589,-6.0589,-6.0589,-6.0742,-6.0704,-6.0589,-6.0742,-6.0704,-6.0589,-6.0742,0.0,0.0,0.0,0.0,-6.0666,-5.9935,-6.0242,-6.0781,0.0,0.0,0.0,0.0,0.0,0.0,0.0,0.0,0.0,0.0,0.0,0.0,0.0,0.0,0.0,-5.9907,-5.9485,-5.9289,-5.9215,-5.9325,-5.9622,-6.015,-6.0217,-6.0275,-6.048,-6.0076,-5.9639,-5.9234,-5.8831,-5.8434,-5.802,-5.8088,-5.8231,-5.8482,-5.8566,-5.873,-5.8988,-5.9007,-5.8831,-5.8482,-5.863,-5.8902,-5.9324,-5.9619,-5.9656,-5.9582,-6.0207,-6.0811,-6.133,-6.1479,-6.1781,-6.2239,-6.3427,-6.3909,-6.4018,-6.5016,-6.5345,-6.5298,0.0,0.0,0.0,0.0,0.0,0.0,0.0,0.0,0.0,0.0,-6.6144,-6.6112,0.0,0.0,0.0,0.0,0.0,0.0,-6.5847,0.0,0.0,-6.0739,-6.0823,-6.09,-6.0793,-6.0793,-6.0793,-6.0781,-6.0781,-6.0781,-6.0781,-6.0781,-6.0781,-6.0781,-6.0781,-6.0781,-6.0742,-5.9973,-5.9665,-5.9665,-5.9665,-5.9665,-5.9742,-6.0512,-6.0319,-5.9781,-6.0512,-6.0319,-5.9781,-6.055,-6.0781,0.0,0.0,0.0,-6.0781,-6.0666,-6.0704,-6.0781,0.0,0.0,0.0,0.0,0.0,0.0,0.0,0.0,0.0,0.0,0.0,0.0,0.0,0.0,0.0,0.0,-5.952,-5.9588,-5.9252,-5.9734,-6.0208,-6.0279,-6.0481,-6.061,-6.0572,-6.0165,-5.9706,-5.9252,-5.8831,-5.8434,-5.802,-5.8326,-5.8391,-5.8074,-5.8434,-5.8476,-5.8164,-5.8164,-5.8119,-5.8111,-5.8787,-5.936,-5.9844,-6.127,-6.1508,-6.084,-6.0951,-6.1436,-6.2191,-6.2947,-6.3512,-6.397,-6.4802,-6.5161,-6.5161,-6.5322,-6.5204,-6.49,0.0,0.0,0.0,0.0,0.0,0.0,0.0,0.0,0.0,0.0,0.0,-6.6102,0.0,0.0,0.0,-6.6005,-6.6005,-6.5558,-6.4559,-6.3365,-6.2148,-6.0858,-6.0843,-6.0816,-6.0781,-6.0781,-6.0781,-6.0781,-6.0781,-6.0781,-6.0781,-6.0781,-6.0781,-6.0781,-6.0781,-6.0781,-6.0781,-6.0396,-6.0242,-6.0242,-6.0242,-6.0242,-6.0281,-6.0666,-6.055,-6.0281,-6.0666,-6.055,-6.0281,-6.0666,-6.0781,-6.0781,-6.0781,0.0,0.0,0.0,-6.0781,0.0,0.0,0.0,0.0,0.0,0.0,0.0,0.0,0.0,0.0,0.0,0.0,0.0,0.0,0.0,0.0,0.0,-5.9639,-5.9554,-5.9766,-6.0082,-6.0362,-6.0559,-6.066,-6.0685,-6.0648,-6.0007,-5.9482,-5.9287,-5.8648,-5.8186,-5.802,-5.8391,-5.8628,-5.8669,-5.9053,-5.909,-5.8669,-5.9116,-5.9458,-5.9753,-5.9642,-6.0311,-6.1606,-6.2317,-6.2446,-6.2109,-6.2595,-6.3123,-6.3731,-6.411,-6.4519,-6.4902,-6.5019,-6.5068,-6.5035,-6.4792,-6.4557,-6.4407,0.0,0.0,0.0,0.0,0.0,0.0,0.0,0.0,0.0,0.0,0.0,0.0,0.0,0.0,0.0,0.0,-6.5984,-6.5216,-6.3435,-6.2551,-6.1716,-6.0819,-6.0781,-6.0781,-6.0781,-6.0781,-6.0781,-6.0781,-6.0781,-6.0781,-6.0781,-6.0781,-6.0781,-6.0781,-6.0781,-6.0781,-6.0781,-6.055,-6.0473,-6.0473,-6.0473,-6.0473,-6.0473,-6.0704,-6.0666,-6.0512,-6.0704,-6.0666,-6.0512,-6.0742,-6.0781,-6.0781,-6.0781,-6.0781,0.0,0.0,0.0,0.0,0.0,0.0,0.0,0.0,0.0,0.0,0.0,0.0,0.0,0.0,0.0,0.0,0.0,0.0,0.0,0.0,0.0,-5.9652,-6.0237,-6.0362,-6.052,-6.0757,-6.0746,-6.0685,-6.0559,-5.983,-5.9286,-5.9196,-5.8418,-5.7997,-5.7997,-5.8391,-5.8689,-5.889,-5.9285,-5.9376,-5.9189,-5.9996,-6.0531,-6.08,-6.0598,-6.1351,-6.2897,-6.3219,-6.3389,-6.3427,-6.401,-6.4538,-6.4968,-6.4968,-6.5117,-6.5345,-6.4968,-6.4792,-6.4739,-6.4254,-6.4016,-6.3934,0.0,0.0,0.0,0.0,0.0,0.0,0.0,0.0,0.0,0.0,0.0,0.0,-6.5924,-6.5946,-6.591,-6.591,-6.591,-6.5166,-6.3423,-6.2551,-6.1716,-6.0819,-6.0781,0.0,-6.0781,-6.0781,-6.0781,-6.0781,-6.0781,-6.0781,-6.0781,-6.0781,-6.0781,-6.0781,-6.0781,-6.0781,-6.0742,-5.9935,-5.9588,-5.9588,-5.9588,-5.9588,-5.9665,-6.0473,-6.0281,-5.9665,-6.0512,0.0,0.0,0.0,0.0,0.0,0.0,0.0,0.0,0.0,0.0,0.0,0.0,0.0,0.0,0.0,0.0,0.0,0.0,0.0,0.0,0.0,0.0,0.0,0.0,0.0,0.0,0.0,0.0,-6.0265,-6.0293,-6.0572,-6.0769,-6.0781,-6.0781,-6.0622,-6.0251,-5.9712,-5.9232,-5.8831,-5.8319,-5.7997,-5.7997,-5.8391,-5.8455,-5.8088,-5.8449,-5.8841,-5.9205,-6.0002,-6.0236,-5.9966,-6.1469,-6.2412,-6.2954,-6.4141,-6.4681,-6.4681,-6.4757,-6.5002,-6.5345,-6.5345,-6.5398,-6.5345,-6.4968,-6.4792,-6.4739,-6.4254,-6.3867,-6.3602,0.0,0.0,0.0,0.0,0.0,0.0,0.0,0.0,0.0,0.0,0.0,0.0,0.0,-6.596,-6.5897,-6.5897,-6.4897,-6.3743,-6.2589,-6.1743,-6.1127,-6.0819,-6.0781,-6.0781,-6.0781,-6.0781,-6.0781,-6.0781,-6.0781,-6.0781,-6.0781,-6.0781,-6.0781,-6.0781,-6.0781,-6.0781,-6.0781,-6.0473,-6.0319,-6.0319,-6.0319,-6.0319,-6.0358,-6.0666,0.0,0.0,0.0,0.0,0.0,0.0,0.0,0.0,0.0,0.0,0.0,0.0,0.0,0.0,0.0,0.0,0.0,0.0,0.0,0.0,0.0,0.0,0.0,0.0,0.0,0.0,0.0,0.0,0.0,0.0,0.0,0.0,-6.0585,-6.0722,-6.0781,-6.0781,-6.0781,-6.0673,-6.0293,-5.9728,-5.9268,-5.889,-5.8341,-5.8097,-5.8369,-5.9313,-5.951,-5.877,-5.9938,-6.0641,-6.075,-6.0305,-6.0948,-6.262,-6.2973,-6.3612,-6.4529,-6.4731,-6.4951,-6.5134,-6.4593,-6.4593,-6.5002,-6.4684,-6.4575,-6.4538,-6.4134,-6.395,-6.3909,-6.3431,-6.3168,-6.3062,0.0,0.0,0.0,0.0,0.0,-6.5627,-6.4508,-6.4343,-6.4343,-6.4354,0.0,0.0,0.0,0.0,-6.5359,-6.5051,-6.3705,-6.2666,-6.2139,-6.1293,-6.0781,-6.0781,-6.0781,-6.0781,-6.0781,-6.0512,-6.0512,-6.0781,-6.0512,-6.0512,-6.0781,-6.0781,-6.0781,-6.0781,-6.0781,-6.0781,-6.0781,-6.0781,0.0,-6.0781,-6.0781,-6.0781,-6.0781,0.0,0.0,0.0,0.0,0.0,0.0,0.0,0.0,0.0,0.0,0.0,0.0,0.0,0.0,0.0,0.0,0.0,0.0,0.0,0.0,0.0,0.0,0.0,0.0,0.0,0.0,0.0,0.0,0.0,0.0,0.0,0.0,0.0,-6.0757,-6.0781,-6.0781,-6.0781,-6.071,-6.0507,-6.0179,-5.9564,-5.9065,-5.8767,-5.8275,0.0,-5.8995,-5.9682,-5.9929,-5.9611,-6.0431,-6.089,-6.101,-6.0796,-6.1637,-6.3484,-6.3671,-6.4209,-6.4947,-6.4845,-6.4845,-6.493,-6.452,-6.4501,-6.4757,-6.4274,-6.4284,-6.4449,-6.3764,-6.3676,-6.3794,-6.3076,-6.278,-6.278,0.0,0.0,-6.6001,-6.6001,-6.6001,-6.5423,-6.3764,-6.3488,-6.3476,-6.3522,0.0,0.0,0.0,0.0,0.0,-6.3358,-6.2551,-6.2101,-6.2062,-6.1281,-6.0781,-6.0781,-6.0781,-6.0781,-6.0781,-5.9973,-5.9935,-6.0781,-5.9935,-5.9973,-6.0781,-6.0781,-6.0781,-6.0781,-6.0781,-6.0781,-6.0781,0.0,-6.0781,-6.0781,0.0,-6.0781,-6.0781,0.0,0.0,0.0,-6.0781,-6.0781,0.0,-6.0781,0.0,0.0,0.0,0.0,0.0,0.0,0.0,0.0,0.0,0.0,0.0,0.0,0.0,0.0,-6.0781,0.0,0.0,0.0,0.0,0.0,0.0,0.0,0.0,0.0,0.0,0.0,-6.0781,-6.0781,-6.0781,-6.0781,-6.052,-6.0179,-5.9842,-5.9289,-5.8788,-5.8437,-5.8193,-5.8577,-5.9855,-5.953,-5.9635,-6.043,-5.9648,-5.9439,-5.9791,-6.1447,-6.232,-6.2328,-6.354,-6.4096,-6.4096,-6.4538,-6.4501,-6.4116,-6.4538,-6.4739,-6.4721,-6.4292,-6.4564,-6.5141,-6.3966,-6.3951,-6.4513,-6.3272,-6.278,-6.278,0.0,-6.5982,-6.597,-6.5921,-6.5909,-6.5562,-6.4446,-6.428,-6.428,0.0,0.0,0.0,-6.4922,-6.4179,-6.332,-6.2512,-6.2216,-6.1831,-6.1204,-6.0935,-6.0781,-6.0781,-6.0781,-6.0781,-6.0781,-6.055,-6.055,-6.0781,-6.055,-6.055,-6.0781,-6.0781,-6.0781,-6.0781,-6.0781,-6.0781,-6.0781,-6.0781,0.0,-6.0781,-6.0781,-6.0781,0.0,0.0,0.0,0.0,0.0,-6.0781,-6.0781,0.0,-6.0781,-6.0781,0.0,0.0,0.0,0.0,0.0,0.0,-6.0781,0.0,0.0,0.0,0.0,0.0,-6.0781,-6.0781,-6.0781,0.0,0.0,0.0,0.0,0.0,0.0,0.0,0.0,0.0,0.0,-6.0781,-6.0781,-6.0781,-6.0722,-6.0416,-5.9874,-5.9551,-5.914,0.0,-5.9069,-5.9715,-6.0301,-6.0743,-6.1131,-6.1338,-6.0521,-5.9992,-5.9791,-6.1447,-6.2454,-6.2768,-6.3668,-6.4096,-6.4076,-6.393,-6.395,-6.4056,-6.3565,-6.3557,-6.3846,-6.3718,-6.3802,-6.3944,-6.3255,-6.3113,-6.3297,-6.2928,-6.278,-6.289,-6.5972,-6.596,-6.5947,-6.591,-6.5897,-6.559,-6.4743,-6.4589,-6.4589,0.0,0.0,0.0,-6.3589,-6.3089,-6.2474,-6.1639,-6.1562,-6.1331,-6.0819,-6.0781,-6.0781,-6.0781,-6.0781,-6.0781,-6.0781,-6.0435,-6.0435,-6.0781,-6.0435,-6.0435,-6.0781,-6.0781,-6.0781,-6.0781,-6.0781,-6.0781,-6.0781,0.0,0.0,0.0,-6.0781,0.0,0.0,-6.0781,-6.0781,0.0,0.0,0.0,-6.0781,-6.0781,-6.0781,0.0,0.0,0.0,0.0,0.0,0.0,0.0,0.0,0.0,0.0,0.0,0.0,0.0,-6.061,-6.0585,-6.0546,0.0,0.0,0.0,0.0,0.0,0.0,0.0,0.0,0.0,0.0,-6.0697,-6.0622,-6.0769,-6.0546,-6.0237,-5.9858,-5.9554,-5.9122,-5.8486,-5.9001,-5.9669,-6.0485,-6.1274,-6.1836,-6.2135,-6.0855,-6.0433,-6.109,-6.1891,-6.2576,-6.3163,-6.38,-6.3995,-6.3846,-6.3624,-6.3609,-6.3846,-6.3476,-6.3498,-6.3739,-6.358,-6.3599,-6.3685,-6.3076,-6.3025,-6.3307,-6.3161,-6.327,-6.3688,0.0,-6.5897,-6.5897,-6.5897,-6.5897,-6.5628,-6.4859,-6.4666,-6.4589,0.0,-6.3782,-6.2897,-6.2178,-6.2024,-6.1639,-6.0858,-6.0781,-6.0781,-6.0781,-6.0781,-6.0781,-6.0781,-6.0781,-6.0781,-6.0781,-6.005,-6.0012,-6.0781,-6.0012,-6.005,-6.0781,-6.0781,-6.0781,-6.0781,-6.0781,-6.0781,-6.0781,0.0,0.0,-6.0781,-6.0781,-6.0781,0.0,0.0,-6.0781,-6.0781,-6.0781,-6.0781,-6.0781,-6.0781,-6.0781,0.0,0.0,0.0,0.0,0.0,-6.0781,0.0,0.0,0.0,0.0,0.0,0.0,0.0,-6.0403,-6.0349,-6.0265,-5.9984,0.0,0.0,0.0,0.0,0.0,0.0,0.0,0.0,0.0,0.0,-6.0481,-6.0757,-6.0279,-5.989,-5.9826,-5.9415,-5.8986,-5.8513,-5.865,-5.9383,-6.0839,-6.1537,-6.2146,-6.272,-6.1092,-6.1027,-6.2763,-6.2593,-6.2845,-6.3507,-6.3859,-6.3867,-6.349,-6.3557,-6.3497,-6.3445,-6.3878,-6.4087,-6.4033,-6.3631,-6.3719,-6.397,-6.3124,-6.3344,-6.4131,-6.3776,-6.419,-6.4972,-6.5897,-6.5897,-6.5897,-6.5897,-6.5897,-6.582,-6.5667,-6.5051,-6.4589,-6.4589,-6.3281,-6.2293,-6.2139,-6.1485,-6.0973,-6.0819,-6.0781,-6.0781,-6.0781,-6.0781,-6.0781,-6.0781,-6.0781,-6.0781,-6.0781,-6.0627,-6.0627,-6.0781,-6.0627,-6.0627,-6.0781,-6.0781,-6.0781,-6.0781,-6.0781,-6.0781,-6.0781,0.0,0.0,-6.0781,-6.0781,0.0,-6.0781,-6.0781,-6.0781,-6.0781,-6.0781,-6.0781,-6.0781,-6.0781,-6.0781,-6.0781,0.0,0.0,0.0,0.0,0.0,0.0,0.0,0.0,0.0,0.0,0.0,0.0,-6.0722,-6.071,-6.0697,0.0,0.0,0.0,0.0,0.0,0.0,0.0,0.0,0.0,0.0,0.0,0.0,-6.0781,-6.0697,-6.0376,-5.9858,-5.9727,-5.9325,-5.8556,-5.985,-6.1361,-6.2935,-6.3089,-6.2925,-6.239,-6.2666,-6.2519,-6.1937,-6.3123,-6.3672,-6.3507,-6.3559,-6.358,-6.3527,-6.3848,-6.3579,-6.299,-6.3775,-6.3928,-6.3587,-6.3535,-6.3557,-6.3567,-6.299,-6.3517,-6.4587,-6.4493,-6.5195,-6.6298,-6.5897,-6.5897,-6.5897,-6.5897,-6.5897,-6.5743,-6.532,-6.4897,-6.4436,-6.4012,-6.2858,-6.1947,-6.1512,-6.105,-6.0781,-6.0781,-6.0781,-6.0781,-6.0781,-6.0781,-6.0781,-6.0781,-6.0781,-6.0781,-6.0781,-6.0781,-6.0781,-6.0781,-6.0781,-6.0781,-6.0781,-6.0781,-6.0781,-6.0781,-6.0781,-6.0781,-6.0781,0.0,-6.0781,-6.0781,-6.0781,0.0,-6.0781,-6.0781,-6.0781,-6.0781,-6.0781,-6.1089,-6.1512,-6.1897,-6.1927,0.0,0.0,-6.1645,-6.1173,0.0,-6.1127,-6.0781,0.0,0.0,0.0,-6.0781,0.0,0.0,0.0,-6.0546,-6.0507,-6.0335,0.0,0.0,0.0,0.0,0.0,0.0,0.0,0.0,0.0,0.0,0.0,-6.0769,-6.0634,-6.0349,-5.9858,-5.9809,-5.952,-5.8908,-5.9833,-6.1037,-6.2372,-6.2533,-6.2694,-6.2881,-6.3078,-6.3225,-6.3238,-6.3853,-6.4024,-6.3785,-6.3787,-6.3565,-6.3158,-6.337,-6.3358,-6.3158,-6.3601,-6.3808,-6.3803,-6.3803,-6.4065,-6.4438,-6.4197,-6.4465,-6.5117,-6.5782,-6.6646,-6.7634,-6.582,-6.5743,-6.5628,-6.5628,-6.5513,-6.5166,-6.4474,-6.4205,-6.382,-6.2935,-6.2243,-6.1601,-6.0858,-6.0781,-6.0781,-6.0781,-6.0781,-6.0781,-6.0781,-6.0781,-6.0781,-6.0781,-6.0781,-6.0781,-6.0781,-6.0781,-6.0781,-6.0781,-6.0627,-6.0627,-6.0781,-6.0627,-6.0627,-6.0781,-6.0781,-6.0781,0.0,0.0,0.0,-6.0781,0.0,-6.0781,-6.0781,-6.0781,-6.0781,-6.0781,-6.0781,-6.1243,-6.1935,-6.2589,-6.2631,-6.2484,-6.2746,-6.2273,0.0,0.0,0.0,0.0,0.0,0.0,0.0,0.0,0.0,-6.0734,0.0,0.0,0.0,0.0,0.0,0.0,0.0,0.0,0.0,0.0,0.0,0.0,0.0,0.0,0.0,-6.0757,-6.0559,-6.0237,-5.9858,-5.9744,-5.9571,-5.9343,-5.9822,-6.0505,-6.1364,-6.1821,-6.2507,-6.3476,-6.3252,-6.3653,-6.4792,-6.4572,-6.4389,-6.4215,-6.4136,-6.3696,-6.2953,-6.3101,-6.3281,-6.3513,-6.3751,-6.4091,-6.4479,-6.4479,-6.5027,-6.5839,-6.553,-6.5622,-6.6119,-6.7051,-6.8073,-6.9058,-6.559,-6.5282,-6.4743,-6.4743,-6.4128,-6.3551,-6.3462,-6.282,-6.205,-6.1204,-6.1012,-6.0896,-6.0819,0.0,0.0,0.0,0.0,0.0,-6.0781,0.0,-6.0781,-6.0781,-6.0781,-6.0781,-6.0781,-6.0781,-6.0781,-6.0781,-6.0012,-6.005,-6.0781,-6.0012,-6.005,-6.0781,-6.0781,0.0,0.0,0.0,-6.0781,0.0,-6.0781,-6.0781,0.0,-6.0781,-6.0781,-6.0781,-6.0781,-6.0858,-6.0973,0.0,-6.1065,-6.1015,0.0,-6.1538,-6.1899,0.0,0.0,0.0,0.0,0.0,0.0,0.0,-6.1358,0.0,0.0,0.0,0.0,-6.071,0.0,0.0,0.0,0.0,0.0,0.0,0.0,0.0,0.0,0.0,0.0,-6.0781,-6.0757,-6.0507,-5.9874,-5.9485,-5.9397,-5.9689,-6.1018,-6.1782,-6.177,-6.2807,-6.3444,-6.3513,-6.3797,-6.4218,-6.4792,-6.5105,-6.5073,-6.4721,-6.4311,-6.3867,-6.346,-6.4179,-6.4128,-6.355,-6.4636,-6.5346,-6.5782,-6.5782,-6.6508,-6.7469,-6.5992,-6.6537,-6.8111,-6.7929,-6.9048,-7.0608,-6.4166,-6.4089,-6.3858,-6.3858,-6.3538,-6.3128,-6.2666,-6.1897,-6.1204,-6.0858,-6.0781,-6.0781,0.0,0.0,0.0,0.0,0.0,-6.0781,0.0,0.0,-6.0781,-6.0781,-6.0781,-6.0781,-6.0781,-6.0781,-6.0781,-6.0781,-5.9935,-5.9704,-6.005,-5.9665,-5.9704,-6.0089,-6.055,0.0,-6.0781,0.0,-6.0781,0.0,0.0,0.0,0.0,-6.0781,-6.0781,-6.0858,-6.1358,-6.1858,-6.232,0.0,-6.3169,0.0,0.0,0.0,0.0,0.0,0.0,0.0,0.0,0.0,0.0,0.0,0.0,0.0,-6.0674,0.0,-6.0781,0.0,0.0,0.0,0.0,0.0,0.0,0.0,-6.0781,0.0,0.0,0.0,0.0,0.0,0.0,0.0,-5.9874,-5.945,-5.9379,-5.9777,-6.1033,-6.1885,-6.2197,-6.29,-6.3608,-6.4253,-6.4136,-6.4445,-6.5134,-6.5085,-6.4827,-6.4388,-6.3971,-6.3653,-6.349,-6.3862,-6.4097,-6.4291,-6.5294,-6.597,-6.6429,-6.6924,-6.7997,-6.9278,-6.8572,-6.8658,-6.9285,-7.0113,-7.0784,-7.1272,-6.2512,0.0,-6.2974,-6.2974,-6.2781,-6.2435,-6.182,-6.1204,-6.0781,-6.0781,-6.0781,0.0,-6.0781,-6.1204,0.0,0.0,-6.1204,-6.1281,0.0,0.0,-6.0781,0.0,0.0,0.0,0.0,-6.0781,-6.0781,-6.0781,-5.9704,-5.9396,-5.9858,-5.9396,-5.9435,-5.9896,0.0,-6.0781,-6.0781,0.0,0.0,-6.0781,-6.0781,-6.0781,-6.0781,-6.0781,-6.0781,-6.0858,-6.1524,-6.2127,-6.2704,-6.3358,-6.3949,0.0,-6.4757,0.0,0.0,0.0,0.0,0.0,-6.1989,0.0,0.0,0.0,0.0,0.0,0.0,0.0,0.0,0.0,0.0,0.0,0.0,0.0,0.0,0.0,0.0,-6.0781,0.0,0.0,0.0,0.0,0.0,0.0,0.0,-5.9689,-5.9601,-5.9937,-6.1029,-6.1927,-6.2512,-6.2907,-6.3632,-6.4772,-6.4369,-6.452,-6.5413,-6.5002,-6.4557,-6.4096,-6.4049,-6.3847,-6.3513,-6.4,-6.4532,-6.5171,-6.5883,-6.6641,-6.7439,-6.8241,-6.936,-7.0594,-7.1052,-7.0858,-7.0475,-7.1584,-7.1858,-7.1658,-6.0858,-6.1562,0.0,-6.2139,-6.1435,-6.0858,-6.0858,-6.0819,-6.0781,-6.0781,0.0,0.0,0.0,0.0,0.0,0.0,0.0,-6.2551,-6.0896,0.0,-6.0781,0.0,0.0,-6.0781,0.0,0.0,-6.0781,-6.0781,-5.9165,-5.9165,-6.0704,-5.9088,-5.9204,-6.0742,-6.0781,-6.0781,-6.0781,-6.0781,-6.0781,-6.0781,-6.0781,-6.0781,-6.0781,0.0,-6.0781,-6.0781,-6.0819,0.0,0.0,-6.0896,-6.1473,0.0,0.0,0.0,0.0,0.0,0.0,0.0,0.0,0.0,0.0,-6.2849,0.0,0.0,0.0,0.0,-6.0774,0.0,0.0,0.0,0.0,0.0,0.0,0.0,0.0,0.0,0.0,0.0,0.0,0.0,0.0,0.0,0.0,-6.0279,-6.0265,-6.0279,-6.1403,-6.2234,-6.2567,-6.2904,-6.3668,-6.4858,-6.437,-6.452,-6.5413,-6.5002,-6.4557,-6.4096,-6.496,-6.4695,-6.3572,-6.5198,-6.5932,-6.5985,-6.6478,-6.7614,-6.9196,-6.9999,-7.058,-7.1142,-7.2772,-7.2792,-7.1888,-7.1635,-7.1719,-7.1921,-6.0781,0.0,0.0,0.0,0.0,-6.0781,-6.0781,-6.0781,-6.1204,0.0,0.0,0.0,0.0,-6.4666,-6.4782,0.0,0.0,-6.3666,-6.2551,-6.1973,0.0,0.0,0.0,-6.0781,0.0,0.0,0.0,0.0,-5.9665,-5.9396,-5.9935,-5.9358,-5.9396,-5.9973,0.0,-6.0781,0.0,0.0,0.0,0.0,0.0,-6.0781,-6.0781,0.0,-6.0781,-6.0781,-6.0781,-6.1166,0.0,-6.2281,-6.3012,-6.3858,-6.4436,-6.4589,-6.4474,-6.3935,-6.3578,-6.3455,0.0,0.0,-6.3334,-6.2945,0.0,0.0,0.0,0.0,0.0,0.0,0.0,0.0,0.0,0.0,0.0,0.0,0.0,0.0,0.0,0.0,0.0,0.0,0.0,0.0,0.0,0.0,-6.0076,-6.0279,-6.1155,-6.1835,-6.218,-6.2862,-6.36,-6.4474,-6.4347,-6.4593,-6.5413,-6.4684,-6.4536,-6.4902,-6.4369,-6.4342,-6.4716,-6.503,-6.5956,-6.7278,-6.804,-6.9311,-7.0899,-7.1403,-7.1997,-7.2694,-7.2876,-7.2923,-7.2878,-7.2721,-7.2552,-7.2235,-6.0781,-6.0781,0.0,0.0,0.0,-6.0781,-6.0781,-6.132,0.0,0.0,-6.3858,0.0,-6.5782,0.0,-6.6551,0.0,-6.5936,-6.5205,-6.3423,-6.3089,0.0,-6.132,-6.1243,0.0,0.0,0.0,0.0,0.0,0.0,-5.9665,-5.9973,-5.9665,-5.9665,-5.9973,0.0,-6.0781,-6.0781,0.0,-6.0781,0.0,0.0,-6.0781,0.0,0.0,-6.0781,-6.0781,0.0,-6.1166,-6.1743,-6.2589,-6.3373,-6.4089,-6.4972,-6.4942,-6.459,-6.4283,-6.387,-6.355,-6.3778,-6.3883,0.0,-6.3087,-6.3254,0.0,-6.2107,0.0,0.0,0.0,0.0,0.0,0.0,0.0,0.0,0.0,0.0,0.0,0.0,-6.0781,0.0,0.0,0.0,0.0,0.0,0.0,-6.0208,-6.0293,-6.0901,-6.1467,-6.2016,-6.2557,-6.3301,-6.4326,-6.4355,-6.4701,-6.545,-6.4574,-6.4479,-6.5142,-6.4512,-6.4512,-6.5161,-6.5644,-6.6788,-6.8394,-6.9273,-7.0489,-7.1914,-7.2452,-7.2797,-7.2965,-7.2946,-7.2956,-7.3034,-7.322,-7.2778,-7.2018,-6.0781,-6.0781,0.0,0.0,-6.0781,0.0,0.0,0.0,-6.332,0.0,-6.4936,-6.6051,-6.6128,-6.759,-6.7898,-6.6282,-6.759,-6.709,-6.3782,-6.4243,0.0,0.0,-6.2139,-6.2101,-6.2101,0.0,0.0,0.0,0.0,0.0,-6.0781,-5.9935,-6.0012,0.0,-6.0781,0.0,-6.0781,-6.0781,-6.0781,-6.0781,-6.0781,-6.0781,-6.0781,-6.0781,-6.0819,-6.0858,-6.0819,-6.0781,-6.0923,-6.1769,-6.2387,-6.2901,-6.3726,-6.4324,-6.4547,-6.3772,-6.4075,-6.453,-6.3772,-6.4095,-6.4385,-6.3256,-6.2932,0.0,0.0,0.0,-6.2385,0.0,0.0,0.0,0.0,0.0,0.0,0.0,0.0,0.0,0.0,0.0,0.0,0.0,0.0,0.0,0.0,-6.0572,-6.0622,-6.0335,-6.0585,-6.1142,0.0,-6.2017,-6.2743,-6.4385,-6.4436,-6.4769,-6.5594,-6.4661,-6.4464,-6.4934,-6.5218,-6.5198,-6.4982,-6.699,-6.8432,-6.9387,-7.019,-7.1228,-7.2393,-7.3187,-7.2958,-7.2184,-7.2975,-7.2926,-7.248,-7.3024,-7.2344,-7.1219,-6.0781,-6.0781,-6.0781,0.0,-6.0781,-6.0781,0.0,0.0,0.0,0.0,-6.6705,-6.8244,-6.9475,-7.0014,-7.009,-6.9667,-6.9475,0.0,0.0,0.0,0.0,-6.4012,-6.2755,-6.2101,-6.2101,-6.1243,0.0,-6.0781,0.0,0.0,-6.0781,0.0,0.0,0.0,0.0,0.0,-6.0781,-6.0781,-6.0781,-6.0781,-6.0781,-6.0781,-6.0781,0.0,-6.1204,-6.1678,-6.1012,-6.0622,-6.057,-6.1374,-6.1963,-6.2482,-6.3372,-6.4103,-6.4661,-6.4434,-6.435,-6.4332,-6.4401,-6.4142,-6.3867,-6.3869,-6.3871,-6.3776,0.0,0.0,0.0,0.0,0.0,0.0,0.0,0.0,0.0,0.0,0.0,0.0,0.0,0.0,0.0,-6.0781,0.0,0.0,0.0,-6.0293,-6.0237,-6.0622,-6.0293,-6.0356,-6.1115,0.0,-6.2579,-6.3514,-6.4182,-6.4875,-6.5594,-6.4769,-6.4821,-6.579,-6.4992,-6.5294,-6.6632,-6.7507,-6.9043,-7.1107,-7.1947,-7.3233,-7.4635,-7.4098,-7.3717,-7.345,-7.2933,-7.2271,-7.1615,-7.1747,-7.1241,-7.033,-6.0781,-6.0781,0.0,-6.0781,0.0,0.0,-6.1858,-6.2704,0.0,-6.5667,-6.7359,0.0,-6.9706,-7.0475,-7.0898,-7.0898,-7.0475,0.0,-6.8475,0.0,0.0,-6.5205,-6.3512,-6.2627,-6.2627,-6.1435,0.0,-6.0781,0.0,0.0,-6.0781,0.0,0.0,0.0,0.0,-6.0781,0.0,-6.0781,-6.0781,-6.0781,-6.0781,-6.1012,0.0,-6.1358,-6.1897,-6.2551,-6.2089,-6.1761,-6.1747,-6.2565,-6.2841,-6.2935,-6.3954,-6.4269,-6.4253,-6.4445,-6.4231,-6.3963,-6.4192,-6.392,-6.3647,-6.3894,-6.3958,-6.3958,-6.3958,-6.407,-6.4273,0.0,-6.4049,-6.3502,0.0,0.0,0.0,0.0,0.0,0.0,0.0,0.0,0.0,0.0,-6.0968,0.0,0.0,-6.0194,-6.003,-6.0546,-6.0237,-6.0194,0.0,0.0,-6.2433,-6.2998,-6.4084,-6.4909,-6.5456,-6.4938,-6.5052,-6.5686,-6.5252,-6.5742,-6.7013,-6.8373,-6.996,-7.1756,-7.2767,-7.3952,-7.5076,-7.4101,-7.3677,-7.3566,-7.242,-7.1284,-7.0257,-7.0257,-6.9963,-6.9522,-6.0781,0.0,0.0,0.0,0.0,0.0,0.0,-6.3743,0.0,-6.6013,0.0,-6.8744,-6.8744,-7.0014,-7.0898,-7.0898,0.0,-7.0244,-6.8667,-6.8462,-6.7705,-6.6128,-6.4397,-6.3423,-6.3308,-6.1781,0.0,0.0,0.0,0.0,0.0,0.0,0.0,0.0,0.0,0.0,0.0,-6.0781,-6.0781,-6.0819,-6.0935,-6.1396,-6.2101,-6.2216,-6.2743,-6.3462,-6.3462,-6.3372,-6.3347,-6.4116,-6.3976,-6.3689,-6.4724,-6.4463,-6.383,-6.4151,-6.4025,-6.3742,-6.3742,-6.3698,-6.3691,-6.3691,-6.3647,-6.3602,-6.3602,-6.3602,-6.3714,-6.4046,-6.3334,-6.279,-6.3276,0.0,0.0,0.0,0.0,0.0,0.0,0.0,0.0,0.0,0.0,0.0,0.0,0.0,-6.0129,-6.0335,-6.0321,0.0,0.0,0.0,-6.2417,-6.2777,-6.4101,-6.4992,-6.5359,-6.5215,-6.5213,-6.5372,-6.5889,-6.6526,-6.7301,-6.954,-7.1107,-7.2083,-7.3269,-7.4101,-7.4644,-7.375,-7.325,-7.2918,-7.1628,-7.022,-6.8898,-6.8788,-6.8752,-6.8752,0.0,0.0,0.0,0.0,0.0,-6.3628,-6.5205,-6.6013,-6.6782,-6.7821,-6.9436,-7.0475,-7.0475,-7.0706,-7.0898,-7.0898,-7.0898,0.0,0.0,0.0,0.0,-6.6936,-6.5282,-6.4051,-6.332,-6.2358,-6.1524,0.0,0.0,0.0,-6.0781,0.0,0.0,0.0,0.0,0.0,-6.0781,-6.0781,0.0,-6.0858,-6.1601,-6.1947,-6.2178,-6.2858,-6.3628,-6.4359,-6.4359,-6.3719,-6.2901,-6.3054,-6.3314,-6.352,-6.374,-6.4151,-6.4519,-6.4592,-6.4556,-6.4501,-6.4501,-6.4292,-6.4087,-6.4087,-6.3851,-6.3602,-6.3602,-6.3602,-6.3624,-6.3691,-6.3825,-6.3613,-6.2769,0.0,0.0,0.0,0.0,0.0,0.0,0.0,0.0,0.0,0.0,-6.2462,0.0,0.0,0.0,0.0,0.0,0.0,0.0,0.0,-6.2718,0.0,-6.436,-6.5412,0.0,-6.5456,-6.5756,-6.6657,-6.6389,-6.7561,-6.9941,-7.0986,-7.2291,-7.3819,-7.4743,-7.4999,-7.4664,-7.4087,-7.3006,-7.1572,-7.0652,-6.9743,-6.8825,-6.8128,-6.7907,-6.7907,0.0,0.0,0.0,0.0,0.0,0.0,0.0,-6.7898,-6.8436,-6.8385,-6.909,-6.959,-6.959,-7.0398,-7.0898,-7.0898,-7.0898,-7.0552,-6.9744,-6.8475,-6.7552,-6.7128,-6.5051,0.0,-6.3308,-6.2512,-6.1678,-6.0781,0.0,0.0,-6.0781,0.0,0.0,0.0,0.0,-6.0781,0.0,0.0,0.0,-6.0819,-6.1243,-6.1716,-6.2178,-6.2974,-6.3858,-6.4666,-6.5128,-6.4898,-6.4394,-6.4394,-6.4426,-6.4448,-6.4672,-6.4715,-6.4751,-6.4976,-6.4854,-6.4699,-6.4699,-6.4574,-6.4464,-6.4464,-6.4311,-6.4131,-6.3942,-6.3915,-6.3851,-6.3647,-6.3742,-6.3568,-6.2606,-6.2551,0.0,0.0,0.0,0.0,0.0,0.0,0.0,0.0,0.0,0.0,0.0,0.0,0.0,0.0,0.0,0.0,0.0,0.0,-6.2703,0.0,0.0,0.0,-6.5284,0.0,-6.6298,-6.6434,-6.7904,-6.9282,-7.0646,-7.2248,-7.3437,-7.4205,-7.458,-7.4705,-7.4626,-7.3452,-7.2329,-7.1219,-7.0403,-6.9596,-6.8862,-6.8458,-6.8054,-6.7687,0.0,-6.1204,0.0,0.0,-6.4589,0.0,-6.809,-6.9283,-6.9706,-6.9013,-6.8936,-6.8936,-6.8936,-7.0129,-7.0898,-7.0898,-7.0744,-7.0283,-6.9475,-6.7975,-6.7013,-6.6859,-6.4936,-6.3782,-6.3589,-6.2974,-6.2127,0.0,0.0,0.0,-6.0512,0.0,0.0,0.0,0.0,0.0,0.0,0.0,-6.0781,-6.0819,-6.1204,-6.1743,-6.2474,-6.3474,-6.4282,-6.4974,-6.5628,-6.5897,-6.5897,-6.5897,-6.5676,-6.5485,-6.5795,-6.547,-6.5025,-6.5329,-6.5184,-6.4976,-6.4976,-6.4888,-6.4803,-6.4734,-6.4646,-6.452,-6.4131,-6.4067,-6.4004,-6.3764,-6.3786,-6.3627,-6.3014,-6.337,0.0,0.0,0.0,0.0,0.0,0.0,0.0,0.0,0.0,0.0,0.0,0.0,0.0,0.0,0.0,0.0,-6.0165,0.0,0.0,0.0,0.0,-6.536,-6.5204,0.0,-6.696,-6.6733,-6.9428,-7.0884,-7.1245,-7.333,-7.4278,-7.4346,-7.4358,-7.4384,-7.4341,-7.2974,-7.1995,-7.1276,-7.0541,-6.975,-6.9024,-6.8733,-6.8238,-6.7724,0.0,0.0,0.0,0.0,0.0,0.0,-6.8359,-6.9744,-7.0744,-7.0667,-7.0667,-7.0667,-7.0667,-7.0821,-7.0898,-7.0898,-7.0244,-6.9436,-6.859,-6.7628,-6.6782,-6.6051,-6.5782,-6.5282,-6.4512,-6.4397,-6.3589,0.0,0.0,-6.1166,0.0,0.0,0.0,0.0,0.0,0.0,-6.0781,-6.0781,-6.0781,-6.0935,-6.2435,-6.3128,-6.3358,-6.5013,-6.5705,-6.5782,-6.5859,-6.5897,-6.5897,-6.5897,-6.5885,-6.5872,-6.5897,-6.5872,-6.5795,-6.5821,-6.5808,-6.5781,-6.5781,-6.5513,-6.5175,-6.4786,-6.4483,-6.4149,-6.3742,-6.3669,-6.3742,-6.4067,-6.4388,-6.4554,-6.4478,-6.455,-6.446,0.0,0.0,0.0,0.0,0.0,0.0,0.0,0.0,0.0,0.0,-6.2748,0.0,0.0,-6.0585,0.0,0.0,0.0,0.0,-6.3923,-6.5189,-6.6192,-6.6871,-6.7038,-6.7871,-6.9355,-7.0326,-7.1579,-7.3061,-7.4059,-7.4601,-7.4847,-7.5279,-7.4751,-7.3621,-7.3755,-7.2904,-7.1424,-7.0933,-7.0239,-6.9409,-6.8231,-6.776,-6.7797,0.0,0.0,0.0,0.0,0.0,0.0,0.0,-7.0475,-7.0898,-7.0898,-7.0898,-7.0898,-7.0898,-7.0898,-7.0898,-7.0898,-7.0167,-6.9321,-6.8462,-6.7128,-6.6244,-6.5897,-6.5397,-6.4974,-6.4628,-6.4589,-6.3782,0.0,0.0,0.0,0.0,0.0,0.0,0.0,0.0,-6.0781,-6.0781,-6.0781,-6.0781,-6.0896,-6.2089,-6.2589,-6.2781,-6.4474,-6.5128,-6.5205,-6.5705,-6.5897,-6.5897,-6.5897,-6.5897,-6.5897,-6.5897,-6.5897,-6.5897,-6.5897,-6.5897,-6.5897,-6.5897,-6.5781,-6.5622,-6.547,-6.5299,-6.5112,-6.4701,-6.4612,-6.4593,-6.452,-6.4592,-6.4699,-6.4699,-6.4888,-6.4942,-6.4575,0.0,0.0,0.0,0.0,0.0,0.0,0.0,0.0,0.0,0.0,0.0,0.0,0.0,0.0,0.0,0.0,0.0,-6.4067,0.0,-6.6665,-6.6806,-6.8048,-6.9163,-7.0141,-7.1588,-7.2937,-7.4128,-7.4896,-7.5098,-7.4865,-7.4505,-7.3835,-7.2956,-7.2328,-7.1664,-7.1018,-7.0565,-6.9874,-6.9184,-6.9127,-6.8825,-6.8531,-6.3628,0.0,-6.5089,0.0,-6.7898,-6.8821,-7.0629,-7.0898,-7.0898,-7.0898,-7.0898,-7.0898,-7.0898,-7.0898,-7.0898,-7.0898,-6.9937,-6.8936,-6.809,-6.6705,-6.5782,-6.5513,-6.5166,0.0,-6.4974,-6.4974,-6.4166,-6.2435,-6.2435,0.0,0.0,0.0,-6.055,-6.0781,-6.0781,-6.0781,-6.0781,-6.0781,-6.0781,-6.0896,-6.2012,-6.2435,-6.2627,-6.432,-6.4974,-6.5051,-6.5667,-6.5897,-6.5897,-6.5897,-6.5897,-6.5897,-6.5897,-6.5897,-6.5897,-6.5897,-6.5897,-6.5897,-6.5897,-6.5897,-6.5885,-6.5755,-6.5742,-6.5622,-6.5222,-6.5105,-6.5073,-6.4888,-6.4992,-6.5057,-6.5057,-6.5284,-6.5299,-6.4786,0.0,0.0,0.0,0.0,0.0,0.0,-6.4009,-6.3716,-6.3524,-6.3398,0.0,0.0,0.0,0.0,0.0,0.0,0.0,0.0,0.0,0.0,-6.7514,-6.8957,-7.0109,-7.0938,-7.2586,-7.3812,-7.4657,-7.5222,-7.5233,-7.4732,-7.3857,-7.3068,-7.2369,-7.1568,-7.1098,-7.0802,-7.0169,-6.9757,-6.9473,-6.9651,-6.9522,-6.9376,-6.4436,-6.5936,-6.7321,-6.8244,-6.9744,-7.086,-7.0898,-7.0898,-7.0898,-7.0898,-7.0898,-7.0898,-7.0898,-7.0898,-7.0898,-7.0898,-6.9398,-6.8052,-6.7167,-6.6359,-6.5513,0.0,0.0,-6.5859,-6.5859,-6.5859,-6.5013,-6.3269,0.0,0.0,-5.9511,-5.9511,-5.9973,-6.0781,-6.0781,-6.0781,-6.0781,-6.0781,-6.0781,-6.0935,-6.2627,-6.3269,-6.3462,-6.5205,-6.5859,-6.5897,-6.5897,-6.5897,-6.5897,-6.5897,-6.5897,-6.5897,-6.5897,-6.5897,-6.5897,-6.5897,-6.5897,-6.5897,-6.5897,-6.5897,-6.5795,-6.5427,-6.5299,-6.5222,-6.4803,-6.4716,-6.482,-6.5222,-6.5622,-6.5897,-6.5897,-6.5897,-6.5635,-6.482,0.0,0.0,0.0,0.0,0.0,0.0,-6.5374,-6.5249,-6.3664,-6.414,0.0,0.0,0.0,0.0,0.0,0.0,0.0,-6.7013,-6.709,0.0,-6.9667,-6.9706,-7.0514,-7.2206,-7.3091,-7.3923,-7.4716,-7.491,-7.4819,-7.4456,-7.3783,-7.2832,-7.1723,-7.2111,-7.1749,-7.0893,-6.9953,-7.0091,-7.061,-6.9372,-6.9412,-7.0183,-6.5436,-6.5936,-6.6744,-6.8167,-6.8859,-6.9398,-6.9975,-7.009,-6.986,-6.9283,-6.9706,-7.009,-7.009,-7.009,-7.009,0.0,-6.8513,-6.7398,0.0,-6.5782,-6.4897,-6.4628,-6.4859,-6.5282,-6.5897,-6.5897,-6.532,-6.4205,0.0,0.0,-6.0396,-6.0396,-6.0858,-6.1678,-6.105,-6.1127,-6.1678,-6.1678,-6.1678,-6.182,-6.3512,-6.4205,-6.432,-6.5474,-6.5897,-6.5897,-6.5897,-6.5897,-6.5897,-6.5897,-6.5897,-6.5897,-6.5897,-6.5897,-6.5897,-6.5897,-6.5897,-6.5897,-6.5897,-6.5897,-6.5885,-6.5755,-6.5728,-6.5663,-6.5527,-6.5513,-6.5542,-6.5676,-6.5795,-6.5897,-6.5897,-6.5663,-6.5427,-6.5137,-6.4992,0.0,-6.4556,0.0,0.0,0.0,-6.4921,-6.4975,-6.4762,-6.5186,0.0,0.0,0.0,0.0,0.0,0.0,0.0,0.0,-6.8244,0.0,-6.9706,-7.0821,-7.1975,-7.3091,-7.3937,-7.4784,-7.5577,-7.5507,-7.5135,-7.445,-7.3539,-7.2609,-7.1646,-7.1156,-7.0771,-7.0498,-7.0089,-7.0116,-7.0347,-7.0459,-7.0367,-7.0293,-6.5897,-6.6128,-6.6782,-6.8167,-6.8667,-6.909,-6.9629,-6.9706,-6.9398,-6.85,-6.9167,-6.959,-6.9244,-6.9206,0.0,-6.9667,-6.8398,-6.7321,-6.6667,-6.5936,-6.5243,-6.4628,-6.4897,-6.532,-6.5897,-6.5897,0.0,-6.4589,-6.3435,-6.2166,-6.0819,-6.1127,-6.1601,-6.2101,-6.1524,-6.1601,-6.2101,-6.2101,-6.2101,-6.2255,-6.3935,-6.4589,-6.4705,-6.5551,-6.5897,-6.5897,-6.5897,-6.5897,-6.5897,-6.5897,-6.5897,-6.5897,-6.5897,-6.5897,-6.5897,-6.5897,-6.5897,-6.5897,-6.5897,-6.5897,-6.5897,-6.5897,-6.5897,-6.5897,-6.5897,-6.5897,-6.5897,-6.5897,-6.5897,-6.5872,-6.569,-6.547,-6.5222,-6.4909,-6.4769,-6.4664,-6.4538,0.0,0.0,0.0,0.0,0.0,0.0,-6.5649,-6.5897,0.0,0.0,0.0,0.0,0.0,-6.6666,-6.7327,-6.8883,-6.986,-7.0167,-7.1514,-7.2629,-7.3514,-7.4668,-7.5476,-7.5976,-7.5841,-7.5149,-7.4005,-7.3325,-7.2448,-7.1383,-7.0629,-7.0369,-7.0453,-7.0206,-7.011,-7.0146,-7.066,-7.0734,-7.0697,-6.6051,-6.6628,-6.7398,-6.8321,-6.9129,-6.9629,-6.9629,-6.9552,-6.9206,-6.8359,-6.8975,-6.9244,-6.8475,-6.8385,-6.8744,-6.9629,0.0,0.0,-6.6013,-6.6551,-6.6244,-6.4666,-6.5397,-6.582,-6.5897,-6.5897,-6.5474,-6.4589,-6.3051,-6.182,-6.0973,-6.1793,-6.2216,-6.2255,-6.2216,-6.2216,-6.2255,-6.2255,-6.2255,-6.2409,-6.4051,-6.4705,-6.4782,-6.559,-6.5897,-6.5897,-6.5897,-6.5897,-6.5897,-6.5897,-6.5897,-6.5897,-6.5897,-6.5897,-6.5897,-6.5897,-6.5897,-6.5897,-6.5897,-6.5897,-6.5897,-6.5897,-6.5897,-6.5897,-6.5897,-6.5897,-6.5897,-6.5872,-6.5872,-6.5742,-6.5329,-6.5238,-6.4976,-6.431,-6.4445,-6.4501,-6.4192,-6.4426,0.0,0.0,0.0,0.0,-6.5329,-6.5775,-6.6026,0.0,0.0,0.0,0.0,0.0,-6.7431,-6.7921,-6.9145,-7.0129,-7.0898,-7.1822,-7.2745,-7.3707,-7.5245,-7.6015,-7.6015,-7.5925,-7.4966,-7.3277,-7.3166,-7.2345,-7.1046,-7.0535,-7.0551,-7.0845,-7.0367,-7.022,-7.0257,-7.0257,-7.0697,-7.1293,-6.7552,0.0,-6.759,-6.9129,-6.9013,-6.8706,-6.8706,-6.8129,-6.7398,-6.659,-6.7205,-6.7898,-6.8359,-6.8385,-6.8744,-6.9629,-6.7744,-6.632,-6.5936,-6.5474,-6.5013,-6.4628,-6.4782,-6.5205,-6.5897,-6.5897,-6.5474,-6.4589,-6.4205,-6.3551,-6.2704,-6.2935,-6.3358,-6.3974,-6.332,-6.3397,-6.4012,-6.4012,-6.4012,-6.4089,-6.5166,-6.559,-6.559,-6.582,-6.5897,-6.5897,-6.5897,-6.5897,-6.5897,-6.5897,-6.5897,-6.5897,-6.5897,-6.5897,-6.5897,-6.5897,-6.5897,-6.5897,-6.5897,-6.5897,-6.5897,-6.5897,-6.5897,-6.5897,-6.5897,-6.5897,-6.5808,-6.5499,-6.5441,-6.5314,-6.4904,-6.463,-6.4407,-6.4249,-6.4004,-6.3814,-6.3742,-6.383,-6.3984,0.0,-6.4935,-6.5521,-6.5811,-6.6733,-6.7072,0.0,0.0,-6.6767,-6.6734,-6.7585,-6.8448,-6.9226,-7.014,-7.0706,-7.0898,-7.2437,-7.3937,-7.5399,-7.5822,-7.6015,-7.6015,-7.5925,-7.5273,-7.4181,-7.3697,-7.2871,-7.1859,-7.1004,-7.107,-7.1661,-7.1213,-7.1394,-7.1945,-7.1945,-7.1651,-7.1366,-6.8244,-6.7705,-6.7628,-6.9398,-6.8975,-6.8552,-6.8936,-6.8244,-6.7552,-6.709,-6.709,-6.7436,-6.8321,-6.8052,-6.8167,-6.9052,-6.8205,-6.7282,-6.6513,-6.6397,-6.6013,-6.5243,-6.5205,-6.5436,-6.5897,-6.5897,-6.5474,-6.4589,-6.4589,-6.4166,-6.3308,-6.3705,-6.4166,-6.4589,-6.4128,-6.4166,-6.4589,-6.4589,-6.4589,-6.4666,-6.5551,-6.5897,-6.5897,-6.5897,-6.5897,-6.5897,-6.5897,-6.5897,-6.5897,-6.5897,-6.5897,-6.5897,-6.5897,-6.5897,-6.5897,-6.5897,-6.5897,-6.5897,-6.5897,-6.5897,-6.5897,-6.5897,-6.5897,-6.5897,-6.5897,-6.5897,-6.5781,-6.5359,-6.5456,-6.5329,-6.4612,-6.4445,-6.433,-6.3963,-6.372,-6.3602,-6.3602,-6.3602,-6.3691,-6.3915,-6.4799,-6.5492,-6.569,-6.6818,-6.7398,-6.714,-6.7285,0.0,-6.8009,-6.8625,-6.9152,-6.9409,-7.0368,-7.1091,-7.1475,-7.3206,-7.4514,-7.5399,-7.5822,-7.5784,-7.5438,-7.5778,-7.5188,-7.3913,-7.372,-7.2754,-7.1308,-7.0942,-7.115,-7.1625,-7.1397,-7.1578,-7.1945,-7.1945,-7.1688,-7.1329,-6.8552,-6.8013,-6.8013,-6.959,-6.9052,-6.8706,-6.959,-6.8859,-6.8244,-6.8385,-6.7628,-6.7475,-6.8513,-6.7821,-6.7705,-6.8706,-6.9436,-6.9167,-6.7398,-6.7859,-6.759,-6.6128,-6.5974,-6.5897,-6.5897,-6.5897,-6.5551,-6.4782,-6.4782,-6.4436,-6.3705,-6.4436,-6.4782,-6.4782,-6.4782,-6.4782,-6.4782,-6.4782,-6.4782,-6.4859,-6.559,-6.5897,-6.5897,-6.5897,-6.5897,-6.5897,-6.5897,-6.5897,-6.5897,-6.5897,-6.5897,-6.5897,-6.5897,-6.5897,-6.5897,-6.5897,-6.5897,-6.5897,-6.5897,-6.5897,-6.5897,-6.5897,-6.5897,-6.5897,-6.5897,-6.5897,-6.5781,-6.5359,-6.558,-6.5523,-6.4483,-6.452,-6.4482,-6.3857,-6.3764,-6.3742,-6.3714,0.0,-6.3751,-6.3862,-6.4882,-6.5656,-6.583,-6.6957,-6.7739,-6.798,-6.8043,-6.854,-6.9654,-6.9706,-6.9596,-6.9383,-7.035,-7.136,-7.2399,-7.3937,-7.4707,-7.4707,-7.5438,-7.5438,-7.4707,-7.5278,-7.4712,-7.3297,-7.3439,-7.2381,-7.0586,-7.0921,-7.1145,-7.1293,-7.1431,-7.1403,-7.1293,-7.1293,-7.1366,-7.1505,-6.9206,-6.9398,-6.959,-7.0552,-6.9436,-6.8706,-6.959,-6.8321,-6.7552,-6.8321,-6.7628,-6.7705,-6.9321,-6.8706,-6.8821,-7.0398,-7.0629,-7.0014,-6.8321,-6.7628,-6.7167,-6.6936,-6.6244,-6.5897,-6.5897,-6.5897,-6.582,-6.5705,-6.5705,-6.5628,-6.5513,-6.5628,-6.5705,-6.5705,-6.5705,-6.5705,-6.5705,-6.5705,-6.5705,-6.5705,-6.5859,-6.5897,-6.5897,-6.5897,-6.5897,-6.5897,-6.5897,-6.5897,-6.5897,-6.5897,-6.5897,-6.5897,-6.5897,-6.5897,-6.5897,-6.5897,-6.5897,-6.5897,-6.5897,-6.5897,-6.5897,-6.5897,-6.5897,-6.5897,-6.5897,-6.5897,-6.5781,-6.5359,-6.5329,-6.5238,-6.4699,-6.4664,-6.4664,-6.4537,-6.4519,-6.4445,-6.4169,0.0,-6.4333,-6.5049,-6.5916,-6.6889,-6.7922,-6.9102,-6.9568,-6.8951,-6.9227,-6.9498,-6.9706,-6.9706,-6.9986,-7.0612,-7.0794,-7.1668,-7.3283,-7.4245,-7.4707,-7.4707,-7.4861,-7.4822,-7.4654,-7.3782,-7.3514,-7.3684,-7.2924,-7.2256,-7.1776,-7.2088,-7.1883,-7.1394,-7.2055,-7.1908,-7.1293,-7.1293,-7.1725,-7.2312,-7.009,-6.9629,-6.9398,-7.0667,-6.9898,-6.9398,-7.0206,-6.9283,-6.8783,-6.9629,-6.8629,-6.8282,-6.9552,-6.8936,-6.8898,-7.0167,-6.9821,-6.9436,-6.9129,-6.8282,-6.7398,-6.6474,-6.609,-6.5897,-6.5897,-6.5897,-6.5897,-6.5897,-6.5897,-6.5897,-6.5897,-6.5897,-6.5897,-6.5897,-6.5897,-6.5897,-6.5897,-6.5897,-6.5897,-6.5897,-6.5897,-6.5897,-6.5897,-6.5897,-6.5897,-6.5897,-6.5897,-6.5897,-6.5897,-6.5897,-6.5897,-6.5897,-6.5897,-6.5897,-6.5897,-6.5897,-6.5897,-6.5897,-6.5897,-6.5897,-6.5897,-6.5897,-6.5897,-6.5897,-6.5897,-6.5897,-6.5781,-6.5359,-6.547,-6.5441,-6.482,-6.4871,-6.4976,-6.4734,-6.4699,-6.4646,-6.4501,-6.4483,-6.4785,-6.5634,-6.6446,-6.7392,-6.8413,-6.9393,-6.9912,-6.9753,-6.9911,-7.0041,-7.0041,-7.0239,-7.0406,-7.0578,-7.1699,-7.2706,-7.35,-7.4745,-7.5168,-7.4707,-7.4707,-7.458,-7.4357,-7.333,-7.2899,-7.2849,-7.2094,-7.1402,-7.0822,-7.0642,-7.0587,-7.066,-7.0587,-7.0587,-7.066,-7.066,-7.1174,-7.1945,-7.0244,-6.9436,-6.9129,-7.0398,-6.9937,-6.9744,-7.0744,-7.0206,-6.9975,-7.0783,-6.9629,-6.9052,-6.9898,-6.9206,-6.9052,-6.9898,-6.936,-6.9206,-6.9667,-6.909,-6.7936,-6.6244,-6.6013,-6.5897,-6.5897,-6.5897,-6.5897,-6.5897,-6.5897,-6.5897,-6.5897,-6.5897,-6.5897,-6.5897,-6.5897,-6.5897,-6.5897,-6.5897,-6.5897,-6.5897,-6.5897,-6.5897,-6.5897,-6.5897,-6.5897,-6.5897,-6.5897,-6.5897,-6.5897,-6.5897,-6.5897,-6.5897,-6.5897,-6.5897,-6.5897,-6.5897,-6.5897,-6.5897,-6.5897,-6.5897,-6.5897,-6.5897,-6.5897,-6.5897,-6.5897,-6.5897,-6.5795,-6.5499,-6.5676,-6.569,-6.5089,-6.5238,-6.5329,-6.5041,0.0,-6.4976,-6.4837,-6.5027,-6.5445,-6.6319,-6.7065,-6.7881,-6.8825,-6.9379,-6.9833,-7.0133,-7.015,-7.0183,-7.0304,-7.0593,-7.0767,-7.0738,-7.2539,-7.3591,-7.3783,-7.5245,-7.5553,-7.4707,-7.4634,-7.4312,-7.3764,-7.2767,-7.2168,-7.1878,-7.1093,-7.0437,-6.9868,-6.9399,-6.9449,-6.9816,-6.9559,-6.9743,-7.011,-7.0293,-7.1027,-7.1945,-6.8744,-6.9129,-6.9629,-6.9783,-6.909,-6.9052,-7.0667,-7.0206,-6.9975,-7.0783,-7.0129,-6.9898,-7.0706,-7.009,-6.9937,-7.0744,-7.0744,-7.0437,-6.9744,-6.9629,-6.8821,-6.709,-6.6282,-6.5897,-6.5897,-6.5897,-6.5897,-6.5897,-6.5897,-6.5897,-6.5897,-6.5897,-6.5897,-6.5897,-6.5897,-6.5897,-6.5897,-6.5897,-6.5897,-6.5897,-6.5897,-6.5897,-6.5897,-6.5897,-6.5897,-6.5897,-6.5897,-6.5897,-6.5897,-6.5897,-6.5897,-6.5897,-6.5897,-6.5897,-6.5897,-6.5897,-6.5897,-6.5897,-6.5897,-6.5897,-6.5897,-6.5897,-6.5897,-6.5897,-6.5897,-6.5897,-6.5897,-6.5872,-6.5885,-6.5885,-6.5808,-6.5859,-6.5859,-6.5808,0.0,0.0,-6.5299,-6.5956,-6.6773,-6.7576,-6.8116,-6.8881,-7.0047,-6.9885,-6.9702,-6.974,-6.974,-6.9905,-7.0288,-7.0337,-7.0861,-7.2024,-7.3,-7.386,-7.4591,-7.5515,-7.5553,-7.4692,-7.4309,-7.3722,-7.2941,-7.1229,-7.084,-7.1381,-7.0016,-6.9743,-7.0273,-7.0083,-6.9596,-6.9119,-7.0587,-7.0697,-7.0183,-7.0954,-7.2202,-7.3523,-6.9937,-6.9821,-6.986,-7.036,-7.0167,-7.0167,-7.0783,-7.0629,-7.0552,-7.086,-7.0629,-7.0552,-7.086,-7.0629,-7.0552,-7.086,-7.0437,-7.0014,-6.9706,-6.9206,-6.8359,-6.7128,-6.6821,-6.6397,-6.5897,-6.5897,-6.5897,-6.5897,-6.5897,-6.5897,-6.5897,-6.5897,-6.5897,-6.5897,-6.5897,-6.5897,-6.5897,-6.5897,-6.5897,-6.5897,-6.5897,-6.5897,-6.5897,-6.5897,-6.5897,-6.5897,-6.5897,-6.5897,-6.5897,-6.5897,-6.5897,-6.5897,-6.5897,-6.5897,-6.5897,-6.5897,-6.5897,-6.5897,-6.5897,-6.5897,-6.5897,-6.5897,-6.5897,-6.5897,-6.5897,-6.5897,-6.5897,-6.5897,-6.6282,-6.6628,-6.6628,-6.6628,-6.6628,-6.6628,0.0,-6.6485,-6.6093,-6.6993,-6.7932,-6.854,-6.8777,-6.9239,-7.0228,-6.9941,-6.9702,-6.9702,-6.9923,-7.0258,-7.0702,-7.1502,-7.247,-7.3692,-7.4091,-7.4399,-7.4707,-7.528,-7.5398,-7.5053,-7.3606,-7.287,-7.2762,-7.1084,-7.0578,-7.1044,-7.0357,-7.0186,-7.0438,-7.0707,-7.0367,-6.9743,-7.0881,-7.0807,-7.0183,-7.1027,-7.2018,-7.3083,-7.0475,-7.009,-6.986,-7.0437,-7.0514,-7.0591,-7.086,-7.0898,-7.0898,-7.0898,-7.0898,-7.0898,-7.0898,-7.0898,-7.0898,-7.0898,-7.0398,-7.009,-7.009,-6.9513,-6.8552,-6.7167,-6.6859,-6.6436,-6.5897,-6.5897,-6.5897,-6.5897,-6.5897,-6.5897,-6.5897,-6.5897,-6.5897,-6.5897,-6.5897,-6.5897,-6.5897,-6.5897,-6.5897,-6.5897,-6.5897,-6.5897,-6.5897,-6.5897,-6.5897,-6.5897,-6.5897,-6.5897,-6.5897,-6.5897,-6.5897,-6.5897,-6.5897,-6.5897,-6.5897,-6.5897,-6.5897,-6.5897,-6.5897,-6.5897,-6.5897,-6.5897,-6.5897,-6.5897,-6.5897,-6.5897,-6.5897,-6.5897,-6.632,-6.6705,-6.6705,-6.6936,-6.709,-6.709,-6.7203,-6.7218,-6.6942,-6.776,-6.851,-6.8858,-6.9005,-6.9315,-6.9847,-6.9548,-6.9385,-6.9488,-7.0005,-7.0684,-7.154,-7.2788,-7.3829,-7.4654,-7.4976,-7.513,-7.513,-7.5363,-7.5468,-7.5271,-7.3479,-7.2549,-7.238,-7.1373,-7.0904,-7.0932,-7.1168,-7.1283,-7.1293,-7.1581,-7.1211,-7.055,-7.1358,-7.1358,-7.0954,-7.1762,-7.2716,-7.378,-6.986,-6.9706,-6.9706,-6.9706,-6.9706,-6.9975,-7.0783,-7.0898,-7.0898,-7.0898,-7.0898,-7.0898,-7.0898,-7.0898,-7.0898,-7.0898,-7.0898,-7.0898,-7.0898,-7.0898,-6.9744,-6.7205,-6.6359,-6.5936,-6.5897,-6.5897,-6.5897,-6.5897,-6.5897,-6.5897,-6.5897,-6.5897,-6.5897,-6.5897,-6.5897,-6.5897,-6.5897,-6.5897,-6.5897,-6.5897,-6.5897,-6.5897,-6.5897,-6.5897,-6.5897,-6.5897,-6.5897,-6.5897,-6.5897,-6.5897,-6.5897,-6.5897,-6.5897,-6.5897,-6.5897,-6.5897,-6.5897,-6.5897,-6.5897,-6.5897,-6.5897,-6.5897,-6.5897,-6.5897,-6.5897,-6.5897,-6.5897,-6.5897,-6.5897,-6.5936,-6.5936,-6.659,-6.7128,-6.7128,-6.752,-6.7805,-6.7805,-6.8136,-6.8414,-6.8414,-6.8816,-6.9091,-6.9091,-6.874,-6.8684,-6.9069,-6.9923,-7.1151,-7.2809,-7.4044,-7.4707,-7.4707,-7.5553,-7.5976,-7.5976,-7.5976,-7.5772,-7.5271,-7.4049,-7.2834,-7.1629,-7.1988,-7.1738,-7.1007,-7.2415,-7.2982,-7.2982,-7.2647,-7.2055,-7.1366,-7.2202,-7.2496,-7.2606,-7.3413,-7.4698,-7.6093,-7.0591,-7.0552,-7.0552,-7.0552,-7.0552,-7.0629,-7.086,-7.0898,-7.0898,-7.0898,-7.0898,-7.0898,-7.0898,-7.0898,-7.0898,-7.0898,-7.0898,-7.0898,-7.0898,-7.036,-6.9706,-6.8975,-6.8706,-6.8282,-6.7667,-6.7051,-6.6744,-6.6744,-6.6167,-6.5897,-6.5897,-6.5897,-6.5897,-6.5897,-6.5897,-6.5897,-6.5897,-6.5897,-6.5897,-6.5897,-6.5897,-6.5897,-6.5897,-6.5897,-6.5897,-6.5897,-6.5897,-6.5897,-6.5897,-6.5897,-6.5897,-6.5897,-6.5897,-6.5897,-6.5897,-6.5897,-6.5897,-6.5897,-6.5897,-6.632,-6.659,-6.6051,-6.5897,-6.5897,-6.5897,-6.632,-6.6744,-6.6744,-6.7705,-6.8552,-6.8552,-6.8744,-6.8936,-6.8936,-6.8799,-6.8602,-6.8253,-6.8848,-6.9208,-6.8909,-6.9257,-6.9508,-6.9508,-6.9388,-6.9368,-6.9508,-7.1181,-7.2494,-7.3277,-7.4779,-7.563,-7.563,-7.5517,-7.5518,-7.5518,-7.5518,-7.4986,-7.403,-7.3343,-7.2335,-7.1106,-7.1851,-7.2395,-7.2704,-7.3498,-7.3832,-7.3868,-7.4081,-7.3377,-7.2239,-7.3046,-7.301,-7.2679,-7.4037,-7.4845,-7.5432,-7.0898,-7.0898,-7.0898,-7.0898,-7.0898,-7.0898,-7.0898,-7.0898,-7.0898,-7.0898,-7.0898,-7.0898,-7.0898,-7.0898,-7.0898,-7.0898,-7.0898,-7.0898,-7.0898,-7.0437,-7.0167,-7.0167,-7.0167,-6.9629,-6.8436,-6.7552,-6.709,-6.709,-6.6282,-6.5897,-6.5897,-6.5897,-6.5897,-6.5897,-6.5897,-6.5897,-6.5897,-6.5897,-6.5897,-6.5897,-6.5897,-6.5897,-6.5897,-6.5897,-6.5897,-6.5897,-6.5897,-6.5897,-6.5897,-6.5897,-6.5897,-6.5974,-6.6282,-6.6359,-6.6436,-6.6782,-6.6898,-6.6898,-6.6898,-6.7244,-6.7513,-6.7013,-6.6898,-6.6898,-6.6898,-6.7282,-6.7628,-6.7628,-6.8436,-6.9206,-6.9206,-6.9475,-6.9706,-6.9706,-6.9643,-6.9458,-6.9198,-6.9454,-6.9606,-6.9385,-6.9548,-6.9702,-6.9702,-6.9702,-7.0043,-7.0892,-7.2133,-7.327,-7.4152,-7.4998,-7.5506,-7.5506,-7.5203,-7.5037,-7.5037,-7.5037,-7.458,-7.3699,-7.3274,-7.259,-7.1688,-7.2726,-7.3338,-7.3703,-7.464,-7.4893,-7.469,-7.4874,-7.4206,-7.301,-7.3487,-7.3377,-7.3083,-7.4074,-7.4625,-7.5102,-7.0898,-7.0898,-7.0898,-7.0898,-7.0898,-7.0898,-7.0898,-7.0898,-7.0898,-7.0898,-7.0898,-7.0898,-7.0898,-7.0898,-7.0898,-7.0898,-7.0898,-7.0898,-7.0898,-7.0898,-7.0898,-7.0898,-7.0898,-7.0206,-6.8667,-6.7782,-6.7282,-6.7205,-6.6397,-6.5974,-6.5897,-6.5897,-6.5897,-6.5897,-6.5897,-6.5897,-6.5897,-6.5897,-6.5897,-6.5897,-6.5897,-6.5897,-6.5897,-6.5897,-6.5897,-6.5897,-6.5897,-6.5897,-6.5897,-6.5974,-6.5974,-6.6051,-6.6859,-6.7051,-6.7128,-6.7936,-6.8244,-6.8282,-6.8282,-6.8385,-6.8513,-6.8513,-6.8577,-6.859,-6.8423,-6.8462,-6.8513,-6.8513,-6.8577,-6.8615,-6.8615,-6.9283,-6.9821,-6.9821,-7.0064,-7.032,-7.032,-6.9959,-6.9702,-6.9702,-6.9721,-6.9758,-6.9758,-6.9758,-7.059,-7.2618,-7.2754,-7.3445,-7.5028,-7.4847,-7.4705,-7.4705,-7.4664,-7.4664,-7.4705,-7.4664,-7.4401,-7.3928,-7.3745,-7.3347,-7.2898,-7.4237,-7.4552,-7.4197,-7.5644,-7.5962,-7.5391,-7.5101,-7.4477,-7.367,-7.3597,-7.3597,-7.3597,-7.367,-7.4147,-7.4918,-7.0898,-7.0898,-7.0898,-7.0898,-7.0898,-7.0898,-7.0898,-7.0898,-7.0898,-7.0898,-7.0898,-7.0898,-7.0898,-7.0898,-7.0898,-7.0898,-7.0898,-7.0898,-7.0898,-7.0898,-7.0898,-7.0898,-7.0898,-7.0744,-7.036,-6.9552,-6.8783,-6.8129,-6.7244,-6.6513,-6.5897,-6.5897,-6.5897,-6.5897,-6.5897,-6.5897,-6.5897,-6.5897,-6.5897,-6.5897,-6.5897,-6.5897,-6.5897,-6.5897,-6.5897,-6.5897,-6.5897,-6.5897,-6.6013,-6.6628,-6.6397,-6.6051,-6.6859,-6.6667,-6.6205,-6.6397,-6.6898,-6.7359,-6.7359,-6.8398,-6.9436,-6.9436,-6.9898,-7.0014,-6.8706,-6.8936,-6.9436,-6.9436,-6.9937,-7.036,-7.036,-7.0514,-7.0629,-7.0629,-7.0448,-7.032,-7.032,-6.9959,-6.9702,-6.9702,-6.9977,-7.015,-7.015,-7.015,-7.0603,-7.1739,-7.2126,-7.2737,-7.3762,-7.4366,-7.4705,-7.4705,-7.4331,-7.4309,-7.4705,-7.4331,-7.3964,-7.3598,-7.4192,-7.4058,-7.3391,-7.4988,-7.5459,-7.5037,-7.5832,-7.5846,-7.5317,-7.4396,-7.3883,-7.3634,-7.301,-7.2753,-7.2826,-7.345,-7.3817,-7.4074,-7.1514,-7.1206,-7.0898,-7.0898,-7.0898,-7.0898,-7.0898,-7.0898,-7.0898,-7.0898,-7.0898,-7.0898,-7.0898,-7.0898,-7.0898,-7.0898,-7.0898,-7.0898,-7.0898,-7.0898,-7.0898,-7.0898,-7.0898,-7.0898,-7.0898,-7.0475,-6.986,-6.9013,-6.8167,-6.7513,-6.709,-6.6667,-6.6474,-6.6436,-6.6051,-6.5897,-6.5897,-6.5897,-6.5897,-6.5897,-6.5897,-6.5897,-6.5897,-6.5897,-6.5897,-6.5936,-6.632,-6.6474,-6.6551,-6.6974,-6.6821,-6.6705,-6.7936,-6.8052,-6.7782,-6.8167,-6.859,-6.8898,-6.8898,-6.959,-7.0283,-7.0283,-7.0591,-7.0667,-6.9783,-6.9937,-7.0283,-7.0283,-7.0591,-7.0898,-7.0898,-7.0898,-7.0898,-7.0898,-7.0734,-7.0593,-7.0593,-7.04,-7.0271,-7.0271,-7.0448,-7.0532,-7.032,-7.0459,-7.0946,-7.1784,-7.2238,-7.2859,-7.3652,-7.3944,-7.4093,-7.4093,-7.4033,-7.4109,-7.4353,-7.4331,-7.4317,-7.4372,-7.4578,-7.4667,-7.4667,-7.5539,-7.5928,-7.5863,-7.567,-7.5277,-7.4727,-7.3652,-7.3178,-7.3083,-7.2679,-7.2496,-7.2569,-7.2973,-7.3377,-7.3707,-7.2399,-7.1822,-7.1283,-7.1168,-7.1129,-7.1052,-7.0937,-7.0898,-7.0898,-7.0898,-7.0898,-7.0898,-7.0898,-7.0898,-7.0898,-7.0898,-7.0898,-7.0898,-7.0898,-7.0898,-7.0898,-7.0898,-7.0898,-7.0898,-7.0898,-7.0898,-7.0514,-6.9706,-6.8975,-6.8475,-6.8167,-6.7436,-6.7013,-6.6859,-6.6205,-6.5897,-6.5897,-6.5897,-6.5897,-6.5897,-6.6051,-6.609,-6.6128,-6.6282,-6.632,-6.6397,-6.709,-6.7321,-6.7321,-6.7475,-6.7436,-6.759,-6.9206,-6.959,-6.9629,-7.0283,-7.0591,-7.0706,-7.0706,-7.0783,-7.0898,-7.0898,-7.0898,-7.0898,-7.0898,-7.0898,-7.0898,-7.0898,-7.0898,-7.0898,-7.0898,-7.0898,-7.0885,-7.0791,-7.0871,-7.0885,-7.0791,-7.0871,-7.0885,-7.0791,-7.0734,-7.0563,-7.0255,-7.0573,-7.1156,-7.2008,-7.2492,-7.3044,-7.3855,-7.3591,-7.3424,-7.349,-7.3835,-7.4056,-7.4109,-7.4519,-7.4884,-7.5203,-7.4768,-7.5081,-7.6,-7.609,-7.6171,-7.6215,-7.5507,-7.4707,-7.3915,-7.3193,-7.272,-7.2496,-7.2496,-7.2496,-7.2496,-7.2496,-7.2936,-7.3377,-7.3322,-7.3245,-7.2899,-7.2168,-7.2014,-7.1783,-7.1014,-7.0898,-7.0898,-7.0898,-7.0898,-7.0898,-7.0898,-7.0898,-7.0898,-7.0898,-7.0898,-7.0898,-7.0898,-7.0898,-7.0898,-7.0898,-7.0898,-7.0898,-7.0898,-7.0898,-7.0514,-6.9706,-6.959,-6.8744,-6.7282,-6.7167,-6.6744,-6.6051,-6.5936,-6.5897,-6.5897,-6.5897,-6.5897,-6.5974,-6.6667,-6.6936,-6.7013,-6.7782,-6.8052,-6.809,-6.8205,-6.8244,-6.8359,-6.909,-6.8859,-6.8398,-6.9398,-6.9167,-6.859,-6.8706,-6.9283,-6.986,-6.986,-7.036,-7.0898,-7.0898,-7.0898,-7.0898,-7.0898,-7.0898,-7.0898,-7.0898,-7.0898,-7.0898,-7.0898,-7.0898,-7.0777,-7.0432,-7.0652,-7.0777,-7.0416,-7.069,-7.0762,-7.0416,-7.0064,-6.9833,-6.9777,-7.0143,-7.0755,-7.162,-7.2059,-7.2645,-7.3427,-7.3424,-7.3566,-7.3893,-7.3986,-7.4177,-7.4623,-7.4685,-7.4745,-7.4786,-7.4309,-7.4956,-7.6539,-7.6878,-7.6375,-7.5245,-7.572,-7.48,-7.2944,-7.3353,-7.3149,-7.2496,-7.2496,-7.2496,-7.2496,-7.2496,-7.2569,-7.2642,-7.4168,-7.3822,-7.3399,-7.2976,-7.2937,-7.2783,-7.2399,-7.1937,-7.1629,-7.1629,-7.1206,-7.0898,-7.0898,-7.0898,-7.0898,-7.0898,-7.0898,-7.0898,-7.0898,-7.0898,-7.1129,-7.1591,-7.1629,-7.1629,-7.1629,-7.1629,-7.1206,-7.036,-7.036,-6.9744,-6.8552,-6.8052,-6.7398,-6.6551,-6.609,-6.5897,-6.5936,-6.6359,-6.6551,-6.6628,-6.7475,-6.7821,-6.7859,-6.8244,-6.8385,-6.8385,-6.8385,-6.8706,-6.9167,-6.959,-6.9436,-6.9283,-7.0129,-7.0129,-6.9821,-6.9821,-7.009,-7.036,-7.036,-7.0629,-7.0898,-7.0898,-7.0898,-7.0898,-7.0898,-7.0898,-7.0898,-7.0898,-7.0898,-7.0898,-7.0898,-7.0898,-7.0762,-7.0369,-7.0622,-7.069,-7.0047,-7.032,-7.04,-7.0012,-6.9606,-6.9347,-6.9347,-7.0121,-7.0792,-7.1165,-7.2236,-7.3117,-7.3714,-7.3752,-7.3954,-7.4353,-7.4374,-7.4481,-7.4705,-7.4705,-7.4705,-7.4705,-7.4726,-7.5141,-7.5889,-7.5764,-7.5645,-7.5455,-7.5655,-7.4903,-7.3536,-7.3676,-7.323,-7.2496,-7.2496,-7.2496,-7.2496,-7.2496,-7.2496,-7.2496]},{"header":{"parameterUnit":"m.s-1","parameterCategory":1,"la1":30.6,"la2":28.766,"lo1":-90.7593,"lo2":-88.6598,"dy":0.0162,"dx":0.0183,"nx":116,"ny":114,"refTime":"2024-03-29T06:00:00:Z","depth":0,"parameterNumber":3,"parameterNumberName":"V-component_of_WINDS"},"data":[0.0,0.0,0.0,0.0,0.0,0.0,0.0,0.0,0.0,0.0,0.0,0.0,0.0,0.0,0.0,0.0,0.0,0.0,0.0,0.0,0.0,0.0,0.0,0.0,0.0,0.0,0.0,0.0,0.0,0.0,0.0,0.0,0.0,0.0,0.0,0.0,0.0,0.0,0.0,0.0,0.0,0.0,0.0,0.0,0.0,0.0,0.0,0.0,0.0,0.0,0.0,0.0,0.0,0.0,0.0,0.0,0.0,0.0,0.0,0.0,0.0,0.0,0.0,0.0,0.0,0.0,0.0,0.0,0.0,0.0,0.0,0.0,0.0,0.0,0.0,0.0,0.0,0.0,0.0,0.0,0.0,0.0,0.0,0.0,0.0,0.0,0.0,0.0,0.0,0.0,0.0,0.0,0.0,0.0,0.0,0.0,0.0,0.0,0.0,0.0,0.0,0.0,0.0,0.0,0.0,0.0,0.0,0.0,0.0,0.0,0.0,0.0,0.0,0.0,0.0,0.0,0.0,0.0,0.0,0.0,0.0,0.0,0.0,0.0,0.0,0.0,0.0,0.0,0.0,0.0,0.0,0.0,0.0,0.0,0.0,0.0,0.0,0.0,0.0,0.0,0.0,0.0,0.0,0.0,0.0,0.0,0.0,0.0,0.0,0.0,0.0,0.0,0.0,0.0,0.0,0.0,0.0,0.0,0.0,0.0,0.0,0.0,0.0,0.0,0.0,0.0,0.0,0.0,0.0,0.0,0.0,0.0,0.0,0.0,0.0,0.0,0.0,0.0,0.0,0.0,0.0,0.0,0.0,0.0,0.0,0.0,0.0,0.0,0.0,0.0,0.0,0.0,0.0,0.0,0.0,0.0,0.0,0.0,0.0,0.0,0.0,0.0,0.0,0.0,0.0,0.0,0.0,0.0,0.0,0.0,0.0,0.0,0.0,0.0,0.0,0.0,0.0,0.0,0.0,0.0,0.0,0.0,0.0,0.0,0.0,0.0,0.0,0.0,0.0,0.0,0.0,0.0,0.0,0.0,0.0,0.0,0.0,0.0,0.0,0.0,0.0,0.0,0.0,0.0,0.0,0.0,0.0,0.0,0.0,0.0,0.0,0.0,0.0,0.0,0.0,0.0,0.0,0.0,0.0,0.0,0.0,0.0,0.0,0.0,0.0,0.0,0.0,0.0,0.0,0.0,0.0,0.0,0.0,0.0,0.0,0.0,0.0,0.0,0.0,0.0,0.0,0.0,0.0,0.0,0.0,0.0,0.0,0.0,0.0,0.0,0.0,0.0,0.0,0.0,0.0,0.0,0.0,0.0,0.0,0.0,0.0,0.0,0.0,0.0,0.0,0.0,0.0,0.0,0.0,0.0,0.0,0.0,0.0,0.0,0.0,0.0,0.0,0.0,0.0,0.0,0.0,0.0,0.0,0.0,0.0,0.0,0.0,0.0,0.0,0.0,0.0,0.0,0.0,0.0,0.0,0.0,0.0,0.0,0.0,0.0,0.0,0.0,0.0,0.0,0.0,0.0,0.0,0.0,0.0,0.0,0.0,0.0,0.0,0.0,0.0,0.0,0.0,0.0,0.0,0.0,0.0,0.0,0.0,0.0,0.0,0.0,0.0,0.0,0.0,0.0,0.0,0.0,0.0,0.0,0.0,0.0,0.0,0.0,0.0,0.0,0.0,0.0,0.0,0.0,0.0,0.0,0.0,0.0,0.0,0.0,0.0,0.0,0.0,0.0,0.0,0.0,0.0,0.0,0.0,0.0,0.0,0.0,0.0,0.0,0.0,0.0,0.0,0.0,0.0,0.0,0.0,0.0,0.0,0.0,0.0,0.0,0.0,0.0,0.0,0.0,0.0,0.0,0.0,0.0,0.0,0.0,0.0,0.0,0.0,0.0,0.0,0.0,0.0,0.0,0.0,0.0,0.0,0.0,0.0,0.0,0.0,0.0,0.0,0.0,0.0,0.0,0.0,0.0,0.0,0.0,0.0,0.0,0.0,0.0,0.0,0.0,0.0,0.0,0.0,0.0,0.0,0.0,0.0,0.0,0.0,0.0,0.0,0.0,0.0,0.0,0.0,0.0,0.0,0.0,0.0,0.0,0.0,0.0,0.0,0.0,0.0,0.0,0.0,0.0,0.0,0.0,0.0,0.0,0.0,0.0,0.0,0.0,0.0,0.0,0.0,0.0,0.0,0.0,0.0,0.0,0.0,0.0,0.0,0.0,0.0,0.0,0.0,0.0,0.0,0.0,0.0,0.0,0.0,0.0,0.0,0.0,0.0,0.0,0.0,0.0,0.0,0.0,0.0,0.0,0.0,0.0,0.0,0.0,0.0,0.0,0.0,0.0,0.0,0.0,0.0,0.0,0.0,0.0,0.0,0.0,0.0,0.0,0.0,0.0,0.0,0.0,0.0,0.0,0.0,0.0,0.0,0.0,0.0,0.0,0.0,0.0,0.0,0.0,0.0,0.0,0.0,0.0,0.0,0.0,0.0,0.0,0.0,0.0,0.0,0.0,0.0,0.0,0.0,0.0,0.0,0.0,0.0,0.0,0.0,0.0,0.0,0.0,0.0,0.0,0.0,0.0,0.0,0.0,0.0,0.0,0.0,0.0,0.0,0.0,0.0,0.0,0.0,0.0,0.0,0.0,0.0,0.0,0.0,0.0,0.0,0.0,0.0,0.0,0.0,0.0,0.0,0.0,0.0,0.0,0.0,0.0,0.0,0.0,0.0,0.0,0.0,0.0,0.0,0.0,0.0,0.0,0.0,0.0,0.0,0.0,0.0,0.0,0.0,0.0,0.0,0.0,0.0,0.0,0.0,0.0,0.0,0.0,0.0,0.0,0.0,0.0,0.0,0.0,0.0,0.0,0.0,0.0,0.0,0.0,0.0,0.0,0.0,0.0,0.0,0.0,0.0,0.0,0.0,0.0,0.0,0.0,0.0,0.0,0.0,0.0,0.0,0.0,0.0,0.0,0.0,0.0,0.0,0.0,0.0,0.0,0.0,0.0,0.0,0.0,0.0,0.0,0.0,0.0,0.0,0.0,0.0,0.0,0.0,0.0,0.0,0.0,0.0,0.0,0.0,0.0,0.0,0.0,0.0,0.0,0.0,0.0,0.0,0.0,0.0,0.0,0.0,0.0,0.0,0.0,0.0,0.0,0.0,0.0,0.0,0.0,0.0,0.0,0.0,0.0,0.0,0.0,0.0,0.0,0.0,0.0,0.0,0.0,0.0,0.0,0.0,0.0,0.0,0.0,0.0,0.0,0.0,0.0,0.0,0.0,0.0,0.0,0.0,0.0,0.0,0.0,0.0,0.0,0.0,0.0,0.0,0.0,0.0,0.0,0.0,0.0,0.0,0.0,0.0,0.0,0.0,0.0,0.0,0.0,0.0,0.0,0.0,0.0,0.0,0.0,0.0,0.0,0.0,0.0,0.0,0.0,0.0,0.0,0.0,0.0,0.0,0.0,0.0,0.0,0.0,0.0,0.0,0.0,0.0,0.0,0.0,0.0,0.0,0.0,0.0,0.0,0.0,0.0,0.0,0.0,0.0,0.0,0.0,0.0,0.0,0.0,0.0,0.0,0.0,0.0,0.0,0.0,0.0,0.0,0.0,0.0,0.0,0.0,0.0,0.0,0.0,0.0,0.0,0.0,0.0,0.0,0.0,0.0,0.0,0.0,0.0,0.0,0.0,0.0,0.0,0.0,0.0,0.0,0.0,0.0,0.0,0.0,0.0,0.0,0.0,0.0,0.0,0.0,0.0,0.0,0.0,0.0,0.0,0.0,0.0,0.0,0.0,0.0,0.0,0.0,0.0,0.0,0.0,0.0,0.0,0.0,0.0,0.0,0.0,0.0,0.0,0.0,0.0,0.0,0.0,0.0,0.0,0.0,0.0,0.0,0.0,0.0,0.0,0.0,0.0,0.0,0.0,0.0,0.0,0.0,0.0,0.0,0.0,0.0,0.0,0.0,0.0,0.0,0.0,0.0,0.0,0.0,0.0,0.0,0.0,0.0,0.0,0.0,0.0,0.0,0.0,0.0,0.0,0.0,0.0,0.0,0.0,0.0,0.0,0.0,0.0,0.0,0.0,0.0,0.0,0.0,0.0,0.0,0.0,0.0,0.0,0.0,0.0,0.0,0.0,0.0,0.0,0.0,0.0,0.0,0.0,0.0,0.0,0.0,0.0,0.0,0.0,0.0,0.0,0.0,0.0,0.0,0.0,0.0,0.0,0.0,0.0,0.0,0.0,0.0,0.0,0.0,0.0,0.0,0.0,0.0,0.0,0.0,0.0,0.0,0.0,0.0,0.0,0.0,0.0,0.0,0.0,0.0,0.0,0.0,0.0,0.0,0.0,0.0,0.0,0.0,0.0,0.0,0.0,0.0,0.0,0.0,0.0,0.0,0.0,0.0,0.0,0.0,0.0,0.0,0.0,0.0,0.0,0.0,0.0,0.0,0.0,0.0,0.0,0.0,0.0,0.0,0.0,0.0,0.0,0.0,0.0,0.0,0.0,0.0,0.0,0.0,0.0,0.0,0.0,0.0,0.0,0.0,0.0,0.0,0.0,0.0,0.0,0.0,0.0,0.0,0.0,0.0,0.0,0.0,0.0,0.0,0.0,0.0,0.0,0.0,0.0,0.0,0.0,0.0,0.0,0.0,0.0,0.0,0.0,0.0,0.0,0.0,0.0,0.0,0.0,0.0,0.0,0.0,0.0,0.0,0.0,0.0,0.0,0.0,0.0,0.0,0.0,0.0,0.0,0.0,0.0,0.0,0.0,0.0,0.0,0.0,0.0,0.0,0.0,0.0,0.0,0.0,0.0,0.0,0.0,0.0,0.0,0.0,0.0,0.0,0.0,0.0,0.0,0.0,0.0,0.0,0.0,0.0,0.0,0.0,0.0,0.0,0.0,0.0,0.0,0.0,0.0,0.0,0.0,0.0,0.0,0.0,0.0,0.0,0.0,0.0,0.0,0.0,0.0,0.0,0.0,0.0,0.0,0.0,0.0,0.0,0.0,0.0,0.0,0.0,0.0,0.0,0.0,0.0,0.0,0.0,0.0,0.0,0.0,0.0,0.0,0.0,0.0,0.0,0.0,0.0,0.0,0.0,0.0,0.0,0.0,0.0,0.0,0.0,0.0,0.0,0.0,0.0,0.0,0.0,0.0,0.0,0.0,0.0,0.0,0.0,0.0,0.0,0.0,0.0,0.0,0.0,0.0,0.0,0.0,0.0,0.0,0.0,0.0,0.0,0.0,0.0,0.0,0.0,0.0,0.0,0.0,0.0,0.0,0.0,0.0,0.0,0.0,0.0,0.0,0.0,0.0,0.0,0.0,0.0,0.0,0.0,0.0,0.0,0.0,0.0,0.0,0.0,0.0,0.0,0.0,0.0,0.0,0.0,0.0,0.0,0.0,0.0,0.0,0.0,0.0,0.0,0.0,0.0,0.0,0.0,0.0,0.0,0.0,0.0,0.0,0.0,0.0,0.0,0.0,0.0,0.0,0.0,0.0,0.0,0.0,0.0,0.0,0.0,0.0,0.0,0.0,0.0,0.0,0.0,0.0,0.0,0.0,0.0,0.0,0.0,0.0,0.0,0.0,0.0,0.0,0.0,0.0,0.0,0.0,0.0,0.0,0.0,0.0,0.0,0.0,0.0,0.0,0.0,0.0,0.0,0.0,0.0,0.0,0.0,0.0,0.0,0.0,0.0,0.0,0.0,0.0,0.0,0.0,0.0,0.0,0.0,0.0,0.0,0.0,0.0,0.0,0.0,0.0,0.0,0.0,0.0,0.0,0.0,0.0,0.0,0.0,0.0,0.0,0.0,0.0,0.0,0.0,0.0,0.0,0.0,0.0,0.0,0.0,0.0,0.0,0.0,0.0,0.0,0.0,0.0,0.0,0.0,0.0,0.0,0.0,0.0,0.0,0.0,0.0,0.0,0.0,0.0,0.0,0.0,0.0,0.0,0.0,0.0,0.0,0.0,0.0,0.0,0.0,0.0,0.0,0.0,0.0,0.0,0.0,0.0,0.0,0.0,0.0,0.0,0.0,0.0,0.0,0.0,0.0,0.0,0.0,0.0,0.0,0.0,1.0002,0.0,0.0,0.0,0.0,0.0,0.0,0.0,0.0,0.0,0.0,0.0,0.0,0.0,0.0,0.0,0.0,0.0,0.0,0.0,0.0,0.0,0.0,0.0,0.0,0.7872,0.7872,0.7872,0.7872,0.7994,0.8122,0.0,0.0,0.0,0.0,0.0,0.9518,0.97,1.0126,1.0725,1.0126,1.0422,1.1692,1.1475,1.0911,1.0006,0.0,0.0,0.0,0.0,0.0,0.0,0.0,0.0,0.0,0.0,0.0,0.0,0.0,0.0,0.0,0.0,0.0,0.0,0.0,0.0,0.0,0.0,0.0,0.0,0.0,0.0,0.0,0.0,0.0,0.0,0.0,0.0,0.0,0.0,0.0,0.0,0.0,0.0,0.0,0.0,0.0,0.0,0.0,0.0,0.0,0.0,0.0,0.0,0.0,0.0,0.0,0.0,0.0,0.0,0.0,0.0,0.0,0.0,0.0,0.0,0.0,0.0,0.0,0.0,0.0,0.0,0.0,0.0,0.0,0.0,0.0,1.0361,0.0,0.0,0.0,0.0,0.0,0.0,0.0,0.0,0.0,0.0,0.0,0.0,0.0,0.0,0.0,0.0,0.0,0.0,0.0,0.0,0.0,0.7633,0.7845,0.7888,0.7966,0.7966,0.7966,0.815,0.8401,0.8506,0.0,0.0,0.9335,0.9518,0.9822,1.0004,1.0664,1.1692,1.1171,1.1429,1.2457,1.3639,1.3495,1.2319,1.0817,0.0,0.0,0.0,0.0,0.0,0.0,0.0,0.0,0.0,0.0,0.0,0.0,0.0,0.0,0.0,0.0,0.0,0.0,0.0,0.0,0.0,0.0,0.0,0.0,0.0,0.0,0.0,0.0,0.0,0.0,0.0,0.0,0.0,0.0,0.0,0.0,0.0,0.0,0.0,0.0,0.0,0.0,0.0,0.0,0.0,0.0,0.0,0.0,0.0,0.0,0.0,0.0,0.0,0.0,0.0,0.0,0.0,0.0,0.0,0.0,0.0,0.0,0.0,1.1058,1.118,1.1423,1.118,1.1362,1.1788,1.1301,1.1027,1.0846,1.0543,0.0,0.0,0.0,0.0,0.0,0.0,0.0,0.0,0.0,0.0,0.0,0.0,0.0,0.0,0.0,0.0,0.0,0.0,0.0,0.7725,0.7856,0.8026,0.8092,0.8092,0.8279,0.846,0.846,0.8916,0.9214,0.9275,0.9579,0.9761,0.9822,1.0906,1.1511,1.1692,1.4016,1.5266,1.5458,1.583,1.5915,1.5678,1.393,1.3356,1.3701,0.0,0.0,0.0,0.0,0.0,0.0,0.0,0.0,0.0,0.0,0.0,0.0,0.0,0.0,0.0,0.0,0.0,0.0,0.0,0.0,0.0,0.0,0.0,0.0,0.0,0.0,0.0,0.0,0.0,0.0,0.0,0.0,0.0,0.0,0.0,0.0,0.0,0.0,0.0,0.0,0.0,0.9381,0.953,0.0,0.0,0.0,0.0,0.0,0.0,0.0,0.0,0.0,0.0,0.0,0.0,0.0,1.1009,1.1071,1.1463,1.1666,1.1666,1.198,1.2724,1.3902,1.2662,1.2787,1.3902,1.2662,0.0,1.1209,1.0853,0.0,0.0,0.0,0.0,0.0,0.0,0.0,0.0,0.0,0.0,0.0,0.0,0.0,0.0,0.0,0.0,0.0,0.0,0.0,0.0,0.0,0.8578,0.9137,0.9651,1.028,1.0558,1.0349,1.0533,1.0332,0.9585,1.0422,1.0846,1.0846,1.2165,1.2879,1.3047,1.5889,1.7004,1.6458,1.7451,1.8024,1.8076,1.701,1.5699,1.4265,1.3803,0.0,0.0,0.0,0.0,0.0,0.0,0.0,0.0,0.0,0.0,0.0,0.0,0.0,0.0,0.0,0.0,0.0,0.0,0.0,0.0,0.0,0.0,0.0,0.0,0.0,0.0,0.0,0.0,0.0,0.0,0.0,0.0,0.0,0.0,0.0,0.0,0.0,0.0,0.0,0.9415,0.9537,0.9598,0.9612,0.9726,0.0,0.0,0.0,0.0,0.0,0.0,0.0,0.0,0.0,1.1172,1.131,1.1456,1.1744,1.1949,1.2051,1.2051,1.2338,1.2711,1.3178,1.272,1.2711,1.3178,1.2557,1.2096,1.1662,1.1356,1.1058,1.0846,0.0,0.0,0.0,0.0,1.0604,1.0604,0.0,0.0,0.0,0.0,0.0,0.0,0.0,0.0,0.0,0.0,0.0,0.0,0.8466,0.9387,1.0399,1.1243,1.2083,1.2477,1.2345,1.2308,1.1771,1.0426,1.1232,1.1571,1.1209,1.294,1.4268,1.5156,1.7387,1.8175,1.7532,1.8758,1.9386,1.9555,1.9169,1.7668,1.5371,1.5013,1.454,1.4065,0.0,0.0,0.0,0.0,0.0,0.0,0.0,0.0,0.0,0.0,0.0,0.0,0.0,0.0,0.0,0.0,0.0,0.0,0.0,0.0,0.0,0.0,0.0,0.0,0.0,0.0,0.0,0.0,0.0,0.0,0.0,0.0,0.0,0.0,0.0,0.0,0.0,0.963,0.9786,0.9786,0.9845,1.0067,0.0,0.0,0.0,0.0,0.0,0.0,1.0974,1.1141,1.1341,1.1658,1.1768,1.198,1.2369,1.2418,1.2442,1.2442,1.2572,1.2757,1.2953,1.2766,1.2757,1.2944,1.257,1.2337,1.2158,1.1759,1.1494,1.1269,1.1027,1.0906,1.0785,1.0906,1.0906,1.0974,0.0,0.0,0.0,0.0,0.0,0.0,0.0,0.0,0.0,0.0,0.0,0.9319,0.9522,1.0538,1.1576,1.2435,1.2845,1.3358,1.3916,1.3998,1.3355,1.2065,1.178,1.1148,0.9943,1.2638,1.5411,1.8079,1.8719,1.9169,1.9369,1.9712,1.9857,1.9869,1.9833,1.9453,1.8772,1.7996,1.6989,1.5838,1.5328,0.0,0.0,0.0,0.0,0.0,0.0,0.0,0.0,0.0,0.0,0.0,0.0,0.0,0.0,0.0,0.0,0.0,0.0,0.0,0.0,0.0,0.0,0.0,0.0,0.0,0.0,0.0,0.0,0.0,0.0,0.0,0.0,0.0,0.0,0.0,0.0,0.0,0.0,1.0233,1.0536,0.0,0.0,0.0,0.0,1.0785,1.118,1.1456,1.1456,1.1932,1.2217,1.2233,1.245,1.254,1.2548,1.2726,1.2742,1.2742,1.2824,1.3464,1.4754,1.3399,1.353,1.4688,1.3325,1.271,1.2507,1.2166,1.1739,1.1269,1.1269,1.1088,1.0846,1.1148,1.1277,1.1337,0.0,0.0,0.0,0.0,0.0,0.7421,0.7665,0.7595,0.7589,0.7785,0.8769,0.9522,0.9727,1.1939,1.3682,1.4318,1.4847,1.5281,1.5543,1.3929,1.2634,1.1857,1.2569,1.3545,1.4728,1.5915,1.723,1.8541,1.9072,1.9555,1.9989,2.0267,2.0388,2.0388,2.0207,1.9941,1.9555,1.8915,1.8197,1.7436,1.7076,1.6109,0.0,0.0,0.0,0.0,0.0,0.0,0.0,0.0,0.0,0.0,0.0,0.0,0.0,0.0,0.0,0.0,0.0,0.0,0.0,0.0,0.0,0.0,0.0,0.0,0.0,0.0,0.0,0.0,0.0,0.0,0.0,0.0,0.0,0.0,0.0,0.0,0.0,1.0911,1.1051,0.0,1.157,1.1549,1.1549,1.1736,1.1924,1.2019,1.2019,1.2209,1.2361,1.2467,1.2532,1.2621,1.2735,1.28,1.3227,1.4137,1.4253,1.5035,1.6203,1.5833,1.5889,1.6138,1.4782,1.4086,1.3815,1.28,1.2209,1.1923,1.1923,1.1861,1.1782,1.1733,1.1747,1.1731,0.0,0.0,0.0,0.0,0.747,0.7421,0.7665,0.7595,0.7606,0.7839,0.9205,1.0176,1.0445,1.2718,1.454,1.526,1.5412,1.5564,1.5794,1.4066,1.2888,1.2517,1.3347,1.4881,1.7076,1.7474,1.8167,1.9084,1.9531,1.9965,2.0412,2.0593,2.0665,2.0665,2.0484,2.0315,2.0122,1.9664,1.9072,1.8396,1.8022,1.7338,1.6444,0.0,0.0,0.0,0.0,0.0,0.0,0.0,0.0,0.0,0.0,0.0,0.0,0.0,0.0,0.0,0.0,0.0,0.0,0.0,0.0,0.0,0.0,0.0,0.0,0.0,0.0,0.0,0.0,0.0,0.0,0.0,0.0,0.0,0.0,0.0,1.1125,1.1543,1.1683,1.1952,1.2321,1.2226,1.2203,1.2402,1.245,1.2458,1.2393,1.2507,1.2596,1.2653,1.271,1.28,1.2921,1.2798,1.3318,1.4292,1.4355,1.4847,1.5564,1.5636,1.5692,1.5554,1.4586,1.4122,1.3931,1.3043,1.2588,1.2475,1.2353,1.262,1.2909,1.2217,1.2028,1.2004,0.0,0.0,0.0,0.7535,0.741,0.7415,0.766,0.7595,0.7606,0.7839,0.9759,1.1275,1.1664,1.2886,1.4086,1.512,1.4442,1.4178,1.4664,1.4455,1.4247,1.415,1.416,1.487,1.6455,1.7008,1.8154,1.9881,2.0146,2.0412,2.0665,2.0665,2.0665,2.0665,2.0678,2.0678,2.0665,2.0412,1.9712,1.8698,1.8131,1.8058,1.8179,0.0,0.0,0.0,0.0,0.0,0.0,0.0,0.0,0.0,0.0,0.0,0.0,0.0,0.0,0.0,0.0,0.0,0.0,0.0,0.0,0.0,0.0,0.0,0.0,0.0,0.0,0.0,0.0,0.0,0.0,0.0,0.0,0.0,1.0681,1.1328,1.1884,1.2112,1.2546,1.279,1.279,1.279,1.2775,1.2661,1.2751,1.2775,1.2661,1.2913,1.3027,1.279,1.3011,1.31,1.31,1.2929,1.2929,1.3159,1.2988,1.2898,1.2898,1.2898,1.2898,1.2898,1.2906,1.2898,1.2832,1.2832,1.2832,1.28,1.2458,1.3132,1.4163,1.2606,1.2036,1.2004,0.0,0.0,0.7529,0.7352,0.7285,0.7285,0.7529,0.754,0.7606,0.7839,0.9915,1.1366,1.1464,1.3483,1.4838,1.4997,1.4754,1.4567,1.4392,1.4166,1.4385,1.5139,1.5563,1.64,1.7722,1.8477,1.9203,1.9881,2.0146,2.0412,2.0665,2.0665,2.0665,2.0678,2.0871,2.1026,2.1038,2.1088,2.075,2.0038,1.912,1.8565,1.8239,0.0,0.0,0.0,0.0,0.0,0.0,0.0,0.0,0.0,0.0,0.0,0.0,0.0,0.0,0.0,0.0,0.0,0.0,0.0,0.0,0.0,0.0,0.0,0.0,0.0,0.0,0.0,0.0,0.0,0.0,0.0,1.1779,1.2502,1.158,1.1857,1.2413,1.2982,1.313,1.3222,1.3222,1.3222,1.3149,1.2962,1.3116,1.3206,1.3149,1.3238,1.3271,1.3222,1.3271,1.3295,1.3295,1.3116,1.357,1.4615,1.4415,1.4847,1.5879,1.5879,1.5879,1.5814,1.4782,1.4324,1.4259,1.3227,1.3424,1.4184,1.3118,1.2881,1.3181,1.2611,1.2255,1.2004,0.0,0.7568,0.7464,0.729,0.7203,0.7292,0.7481,0.7519,0.7606,0.7839,0.9955,1.1434,1.1502,1.3061,1.4046,1.4071,1.3331,1.2708,1.2457,1.322,1.4331,1.572,1.6798,1.7792,1.8782,1.9458,1.9941,2.0219,2.0364,2.0521,2.0665,2.0774,2.0904,2.0917,2.1183,2.1304,2.1245,2.1414,2.1293,2.0943,2.0207,1.9531,1.8903,1.8408,1.8022,1.7744,1.7672,1.7503,1.7274,1.702,0.0,0.0,0.0,0.0,0.0,0.0,0.0,0.0,0.0,0.0,0.0,0.0,0.0,0.0,0.0,0.0,0.0,0.0,0.0,0.0,0.0,0.0,0.0,0.0,1.2212,1.2969,1.2402,1.255,1.2962,1.3449,1.3547,1.3595,1.3595,1.3595,1.3522,1.3336,1.3425,1.3449,1.3376,1.3441,1.3449,1.3376,1.3441,1.3482,1.3482,1.3303,1.3612,1.4405,1.421,1.4574,1.5354,1.5277,1.5277,1.5288,1.4426,1.4324,1.4847,1.4006,1.452,0.0,0.0,0.0,0.0,0.0,1.2337,1.2012,0.0,0.7519,0.7442,0.7254,0.721,0.7292,0.7481,0.7519,0.7606,0.7839,0.983,1.1258,1.1449,1.1823,1.225,1.2562,1.1092,1.0236,1.0422,1.2489,1.4479,1.6189,1.7898,1.8936,1.9298,1.997,2.0367,2.0457,2.0596,2.0759,2.0714,2.1026,2.1147,2.1183,2.1402,2.1523,2.1523,2.1559,2.1547,2.1498,2.1316,2.0665,1.9845,1.9108,1.8782,1.8662,1.8179,1.7708,1.7274,1.6972,0.0,0.0,0.0,0.0,0.0,0.0,0.0,0.0,0.0,0.0,0.0,0.0,0.0,0.0,0.0,0.0,0.0,0.0,0.0,0.0,0.0,0.0,0.0,0.0,1.2314,1.2939,1.3076,1.3303,1.3482,1.3558,1.3798,1.3896,1.3872,1.3888,1.3831,1.359,1.359,1.3604,1.3441,0.0,0.0,0.0,0.0,1.3606,1.3606,1.3612,1.3651,1.3667,1.3595,1.357,1.3646,1.3402,1.341,1.3545,1.317,1.3744,1.4912,1.4716,1.5424,1.6268,1.394,1.3809,1.4688,1.3122,1.2337,1.2052,0.0,0.7519,0.7442,0.7254,0.721,0.7292,0.7481,0.7519,0.7606,0.7839,0.9206,1.0102,1.0009,1.0493,1.0876,1.0877,1.0966,1.1966,1.4122,1.5056,1.6216,1.7763,1.8788,1.8923,1.8017,1.9689,2.0051,1.8832,2.0098,2.0774,2.105,2.111,2.1256,2.1414,2.1679,2.18,2.1812,2.2017,2.1993,2.1788,2.174,2.11,2.0158,1.9796,1.9386,1.8988,1.8879,1.877,1.8625,1.8143,1.7793,1.7443,1.6754,0.0,0.0,0.0,0.0,0.0,0.0,0.0,0.0,0.0,0.0,0.0,0.0,0.0,0.0,0.0,0.0,0.0,0.0,0.0,0.0,1.1893,1.331,1.4263,1.3423,1.3595,1.3758,1.359,1.3798,1.3847,1.3639,1.3823,1.3831,1.359,1.3774,1.3839,1.3798,1.3831,1.3839,1.3798,1.3831,1.3855,1.3855,1.4622,1.5133,1.5427,0.0,0.0,1.6933,1.6639,1.6557,1.6522,1.5128,1.4651,1.4782,1.3678,1.3358,1.3678,1.4259,1.4651,1.467,1.2978,1.2312,1.2215,0.0,0.7519,0.7442,0.7254,0.7203,0.7307,0.7491,0.7573,0.7671,0.785,0.8957,0.9682,0.961,0.9926,1.0163,1.0128,1.0432,1.1744,1.4368,1.5067,1.6387,1.8587,1.9181,1.9321,1.8958,2.0117,2.0318,1.9541,2.0449,2.1001,2.1135,2.1341,2.1535,2.1691,2.1945,2.2066,2.2078,2.2211,2.2186,2.2054,2.1921,2.1474,2.0847,2.0581,2.0146,1.9676,1.9676,1.9422,1.9012,1.8625,1.8215,1.7756,1.7105,1.6706,1.6441,0.0,0.0,0.0,0.0,0.0,0.0,0.0,0.0,0.0,0.0,0.0,0.0,0.0,0.0,1.3798,1.2206,0.0,1.3536,1.271,1.352,1.4036,1.3551,1.366,1.3774,1.3774,1.3847,1.3863,1.3782,1.3847,1.3863,1.3782,1.3855,1.3904,1.3904,1.3904,1.3904,1.3904,1.3904,1.4252,1.4955,1.5533,1.6185,1.7003,1.678,1.6729,1.6831,1.5875,1.5375,1.5366,1.4427,1.4349,1.4912,1.4912,1.4912,1.4912,1.4912,1.4455,1.3718,1.2896,1.2515,1.241,0.0,0.754,0.7475,0.723,0.729,0.7358,0.7535,0.7638,0.7741,0.7856,0.8717,0.9274,0.9218,0.9337,0.9424,0.948,0.9759,1.086,1.3026,1.4041,1.5761,1.8512,1.8935,1.9401,1.9847,2.0443,2.0435,1.9808,2.072,2.0946,2.0781,2.1571,2.1897,2.1957,2.2162,2.2334,2.2334,2.2334,2.2334,2.2309,2.1969,2.1716,2.145,2.116,2.0762,2.034,2.0243,1.9748,1.9108,1.8794,1.836,1.7877,1.7394,1.7068,1.6791,1.6453,1.6175,0.0,0.0,0.0,0.0,0.0,0.0,0.0,0.0,0.0,1.3598,1.2873,1.4695,1.5587,1.2952,1.355,1.4289,1.3874,1.3582,1.3474,1.355,1.3598,1.3742,1.3888,1.3904,1.3904,1.3904,1.3904,1.3904,1.3904,1.3904,1.3904,1.3904,1.3904,1.3904,1.3904,1.3904,1.4608,1.6079,1.6042,1.6718,1.811,1.6886,1.6342,1.6372,1.4895,1.425,1.4241,1.3671,1.3883,1.4586,1.5749,1.6203,1.6073,1.4912,1.3809,1.2832,1.28,1.2686,1.2556,0.0,0.7606,0.7606,0.7361,0.7415,0.754,0.766,0.7693,0.7741,0.7856,0.8099,0.8161,0.7944,0.8022,0.807,0.8054,0.9305,1.0273,1.0835,1.2572,1.4527,1.67,1.7538,1.8058,1.8251,2.011,1.9606,1.6625,1.964,2.052,1.9442,2.1132,2.1993,2.2297,2.2321,2.2334,2.2334,2.2334,2.2334,2.2309,2.1969,2.1716,2.145,2.116,2.0871,2.0569,2.0098,1.9712,1.9415,1.8855,1.8493,1.8191,1.7877,1.7612,1.7298,1.6803,0.0,1.6308,1.6622,1.6875,1.6996,1.6791,1.6414,1.6271,0.0,0.0,1.7491,1.7804,1.7696,1.7519,1.748,1.5988,1.4806,1.5043,1.4216,1.355,1.3574,1.3774,1.388,1.3896,1.3904,1.3904,1.3904,1.3904,1.3904,1.3904,1.3904,1.3904,1.3904,1.3904,1.3904,1.3904,1.3904,1.4608,1.6079,1.5831,1.6649,1.8347,1.7925,1.7866,1.8116,1.7486,1.7219,1.713,1.5441,1.4089,1.303,1.3227,1.3293,1.3227,1.3095,1.2964,1.2816,1.2653,1.258,1.254,0.0,0.0,0.7671,0.7568,0.7589,0.7644,0.7693,0.7758,0.7818,0.7867,0.7977,0.7971,0.7812,0.772,0.7696,0.7806,0.8813,0.9818,1.0651,1.2031,1.3491,1.5215,1.5642,1.6104,1.6744,1.7572,1.798,1.7796,1.9348,2.0325,2.0804,2.1748,2.2162,2.2334,2.2334,2.2334,2.2334,2.2334,2.2174,2.2005,2.1752,2.1486,2.1172,2.0593,2.0315,2.0158,1.9784,1.9277,0.0,1.8529,1.8275,1.7998,1.7732,1.7575,1.7346,1.6658,1.6489,0.0,1.6851,1.7008,1.7105,0.0,1.6505,1.6276,1.7673,1.685,1.6208,1.7366,1.7678,1.7357,1.6124,1.6158,1.5894,0.0,1.4106,1.379,1.379,1.3766,1.3709,1.3604,1.3595,1.3677,1.388,1.3904,1.3904,1.3904,1.3904,1.3904,1.3904,1.3904,1.3904,1.3904,1.4742,1.5452,1.6079,1.6897,1.7666,1.8379,1.7387,1.6897,1.7047,1.5848,1.5242,1.5002,1.4055,1.3358,1.2774,1.2774,1.2774,1.2774,1.2774,1.2774,1.2766,1.2751,1.2726,1.271,0.0,0.0,0.0,0.7703,0.7725,0.7747,0.7747,0.7818,0.7872,0.7872,0.7872,0.7845,0.778,0.7589,0.7473,0.7635,0.8196,0.8949,0.9905,1.0721,1.1872,1.3411,1.3746,1.4396,1.548,1.5642,1.6285,1.7335,1.814,1.9138,2.0337,2.1121,2.1707,2.215,2.215,2.2273,2.2334,2.2334,2.2188,2.1836,2.1498,2.116,2.0762,2.0038,1.9591,1.9301,1.9096,1.8662,1.8143,1.7925,1.7768,1.7624,1.743,1.737,1.7261,1.6682,1.6646,1.6851,1.7044,0.0,0.0,1.7527,1.6844,1.6439,1.7564,1.6368,1.5383,1.6573,1.6915,1.673,1.5614,1.6099,1.6163,1.4709,1.4148,1.3904,1.3904,1.375,1.3579,1.3392,1.3327,1.3392,1.3652,1.3774,1.3831,1.3831,1.3872,1.3904,1.3904,1.3904,1.3904,1.3904,1.4955,1.5664,1.6079,1.6775,1.7328,1.776,1.6221,1.5495,1.5361,1.4075,1.3319,1.3019,1.2889,1.2774,1.2774,1.2774,1.2774,1.2774,1.2774,1.2774,1.2774,1.2774,1.2774,1.2774,0.0,0.0,0.0,0.0,0.7796,0.7867,0.7867,0.7867,0.7872,0.7872,0.7872,0.7785,0.7551,0.7415,0.729,0.7226,0.7325,0.7394,0.7577,0.8032,0.9184,1.1005,1.2007,1.313,1.4588,1.5263,1.4815,1.3064,1.519,1.6241,1.6315,1.8383,2.0213,2.1885,2.1885,2.2029,2.2334,2.2334,2.2188,2.1824,2.1281,2.0832,2.0243,1.9688,1.8894,1.7937,1.7925,1.7901,1.7768,1.7008,1.6911,1.7117,1.7105,1.7105,0.0,1.708,1.7068,1.708,0.0,0.0,1.7539,1.7793,1.8058,1.7954,1.6885,1.6797,1.6958,1.6969,1.6115,1.6012,1.8016,1.6448,1.5084,1.5709,1.4762,1.3904,1.3904,1.375,1.3579,1.3392,1.3214,1.3108,0.0,1.3441,1.3582,1.3582,1.3807,1.3904,1.3904,1.3904,1.3904,1.3904,1.3975,1.4671,1.6079,1.4742,1.4742,1.615,1.4679,1.3886,1.3636,1.3279,1.3011,1.2782,1.2774,1.2774,1.2774,1.2774,1.2774,1.2774,1.2774,1.2774,1.2774,1.2774,1.2774,1.2774,0.0,0.0,0.0,0.0,0.0,0.7872,0.7872,0.7872,0.7872,0.7872,0.7872,0.0,0.0,0.0,0.0,0.0,0.7269,0.7331,0.7508,0.7818,0.8329,0.9114,0.9631,1.036,1.1298,1.1685,1.2247,1.314,1.385,1.4834,1.5938,1.7414,1.8404,1.901,2.0445,2.1067,2.1009,2.17,2.1547,2.0798,2.0617,2.011,1.9422,1.8891,1.8348,1.7805,0.0,1.6972,1.6779,1.6513,0.0,0.0,1.6549,1.6682,1.6863,1.7044,1.6506,1.6113,1.728,0.0,1.7889,1.8517,1.8613,1.8584,1.8741,1.7937,1.7108,1.7152,1.6191,1.5262,1.505,1.4684,1.4325,1.3976,1.3821,1.3734,1.3734,1.3606,1.3441,1.2897,1.2986,0.0,0.0,0.0,0.0,1.3558,1.3631,1.3782,1.3896,1.3904,1.3904,1.3904,1.4813,1.5097,1.4679,1.5097,1.5097,1.46,1.3994,1.3571,1.3279,1.3149,1.3003,1.2774,1.2774,1.2774,1.2774,1.2774,1.2774,1.2774,1.2774,1.2774,1.2774,1.2774,1.2774,1.2774,0.0,0.0,0.0,0.0,0.0,0.0,0.0,0.0,0.0,0.0,0.0,0.0,0.0,0.0,0.0,0.0,0.0,0.7315,0.7448,0.7676,0.7899,0.8095,0.8291,0.8657,0.9149,0.9273,1.011,1.1555,1.1697,1.2641,1.424,1.5016,1.577,1.6542,1.7905,1.8443,1.8475,1.9472,1.9219,1.8262,1.8559,1.8026,1.7066,1.6736,1.6421,0.0,1.5501,1.5421,1.5658,1.6066,0.0,0.0,1.6284,1.6537,1.6875,1.7044,1.6634,1.6433,1.7601,1.8082,1.842,1.8951,1.9096,1.91,1.9045,1.7653,1.6423,1.6325,1.4837,1.3444,1.3131,1.3215,1.3203,1.2657,1.3034,1.3332,1.353,1.3364,1.3206,1.28,1.284,1.2775,0.0,0.0,0.0,1.3417,1.3501,1.3693,1.3807,1.3863,1.3904,1.3904,1.4813,1.4858,1.3807,1.4787,1.4787,1.3807,1.3628,1.3659,1.3821,1.3753,1.3923,1.4259,1.3744,1.3547,1.3481,1.303,1.2774,1.2774,1.2774,1.2774,1.2774,1.2774,1.2774,1.2774,0.0,0.0,0.0,0.0,0.0,0.0,0.0,0.0,0.0,0.0,0.0,0.0,0.0,0.0,0.0,0.0,0.0,0.0,0.7277,0.7551,0.7736,0.785,0.8032,0.8095,0.8214,0.8334,0.8405,0.8416,0.8807,0.9776,1.1271,1.1411,1.2604,1.4476,1.4444,1.4647,1.5054,1.5805,1.5449,1.4484,1.5312,1.4759,1.3567,1.3556,1.3355,1.3032,1.288,1.3527,0.0,0.0,0.0,0.0,0.0,1.6578,1.6999,1.708,1.7408,1.7817,1.7925,1.8505,1.9096,1.9132,1.9507,1.9464,1.7807,1.6226,1.5077,1.4674,1.233,1.089,0.0,0.0,1.1637,1.1983,1.2465,1.2904,1.3319,1.3084,1.2929,0.0,0.0,0.0,0.0,0.0,0.0,1.3084,0.0,1.3566,1.359,1.3815,1.3904,1.3904,1.3904,1.3823,1.359,1.3823,1.3807,1.3698,1.3587,1.4069,1.5186,1.4997,1.5619,1.6721,1.5359,1.4782,1.4716,1.3358,1.2774,1.2774,1.2774,1.2774,1.2774,1.2774,1.2774,1.2774,0.0,0.0,0.0,0.0,0.0,0.0,0.0,0.0,0.0,0.0,0.0,0.0,0.0,0.0,0.0,0.0,0.0,0.0,0.7277,0.7336,0.7481,0.7606,0.7725,0.7845,0.7959,0.8084,0.8236,0.8416,0.8481,0.8759,0.9175,1.0071,1.0797,1.1366,1.2955,1.3638,1.3658,1.4675,1.454,1.3634,1.3929,1.3685,1.3144,1.3245,1.328,1.321,1.3163,0.0,0.0,0.0,0.0,0.0,0.0,1.5763,1.5322,1.6687,1.6809,1.6835,1.8351,1.906,1.9458,1.9869,1.9772,1.9226,1.7884,1.6958,1.5653,1.3269,1.218,1.1425,0.0,0.0,0.0,1.13,1.2099,0.0,1.2925,1.3202,0.0,1.3124,0.0,1.3108,1.297,1.3084,0.0,0.0,1.3384,1.3555,1.3823,1.388,1.3904,1.3904,1.3904,1.388,1.3839,1.388,1.4235,1.4928,1.4873,1.4934,1.4988,1.4931,1.452,1.3875,1.3481,1.3358,1.3293,1.2964,1.2774,1.2774,1.2774,1.2774,1.2774,1.2774,1.2774,1.2774,0.0,0.0,0.0,0.0,0.0,0.0,0.0,0.0,0.0,0.0,0.0,0.0,0.0,0.0,0.0,0.0,0.0,0.0,0.0,0.7277,0.7309,0.7437,0.7453,0.7491,0.7615,0.7676,0.778,0.7861,0.797,0.8024,0.8024,0.8576,0.8915,0.9093,1.0218,1.0667,1.0731,1.1689,1.1572,0.0,0.0,1.1324,1.0837,1.1173,1.1374,1.1468,0.0,0.0,0.0,0.0,0.0,1.6658,1.6767,1.6421,1.6149,1.7446,0.0,1.7633,1.8956,1.9531,1.9869,2.0062,1.9374,1.8442,1.7609,1.6031,1.426,1.2485,1.1587,0.0,0.0,0.0,0.0,0.0,0.0,0.0,1.2655,1.313,1.3384,0.0,1.336,0.0,1.3222,1.3311,1.3401,0.0,1.349,1.3579,1.3774,1.3863,1.3904,1.3904,1.3904,1.3904,1.3904,1.4376,1.4909,1.559,1.5506,1.5625,1.5954,1.5308,1.4866,1.4586,0.0,1.3744,1.3678,1.303,1.2774,1.2774,1.2774,1.2774,1.2774,1.2774,1.2774,1.2774,0.0,0.0,0.0,0.0,0.0,0.0,0.0,0.0,0.0,0.0,0.8231,0.8122,0.0,0.0,0.0,0.0,0.0,0.0,0.0,0.0,0.7304,0.7304,0.7241,0.7226,0.721,0.7258,0.7269,0.7232,0.7394,0.7497,0.7491,0.7325,0.7448,0.7644,0.7432,0.7347,0.7577,0.8323,0.82,0.7555,0.8638,0.8638,0.8043,0.0,0.0,0.0,0.0,0.0,0.0,0.0,1.5918,1.7141,1.7406,1.766,1.7986,1.8529,1.8764,1.8935,1.9495,1.9673,1.971,1.9666,1.8483,1.7205,1.6742,1.4276,1.2065,1.1864,0.0,0.9822,0.9822,1.0065,1.0304,1.0425,0.0,1.1944,1.2523,1.2863,1.3271,1.3636,1.3514,1.3417,1.3441,1.3441,1.3506,1.3598,1.3606,1.3606,1.3606,1.3823,1.3904,1.3904,1.411,1.4181,1.4181,1.5238,1.5893,1.6175,1.5855,1.6241,1.706,1.5803,1.5619,1.6398,1.5173,1.4651,1.452,1.3293,1.2774,1.2774,1.2774,1.2774,1.2774,1.2774,1.2774,1.2774,0.0,0.0,0.0,0.0,0.0,0.0,0.0,0.0,0.0,0.0,0.8209,0.803,0.0,0.0,0.0,0.0,0.0,0.0,0.0,0.0,0.0,0.7486,0.7372,0.7258,0.7215,0.7232,0.7225,0.7301,0.7288,0.7309,0.7309,0.7288,0.7298,0.7342,0.7298,0.7347,0.7519,0.7635,0.7575,0.7383,0.7825,0.796,0.8061,0.8342,0.0,0.0,0.0,0.0,0.0,0.0,1.5167,1.7141,1.7406,1.766,1.7986,1.8529,1.8116,1.7906,1.9654,1.8545,1.7087,1.8251,1.712,1.5309,1.3902,1.28,0.0,0.0,0.0,0.9822,0.9822,0.9822,0.0,1.0321,0.0,0.0,0.0,0.0,1.3457,0.0,0.0,0.0,0.0,0.0,0.0,0.0,0.0,1.3855,1.3855,1.3888,1.3904,1.3904,1.5097,1.5726,1.5726,1.7187,1.777,1.7544,1.7502,1.6797,1.5538,1.5338,1.4572,1.3481,1.3293,0.0,1.3161,1.2898,1.2774,1.2774,1.2774,1.2774,1.2774,1.2774,1.2774,1.2774,0.0,0.0,0.0,0.0,0.0,0.0,0.0,0.859,0.8568,0.8513,0.835,0.8171,0.8048,0.8024,0.7964,0.0,0.0,0.0,0.0,0.0,0.0,0.0,0.0,0.0,0.7345,0.7404,0.7437,0.0,0.0,0.7551,0.7432,0.0,0.0,0.7277,0.7269,0.7274,0.7334,0.7399,0.7331,0.7293,0.7535,0.7626,0.0,0.0,0.0,0.0,0.0,0.0,0.0,0.0,1.3645,1.5337,1.6417,1.7385,1.8251,1.9072,1.841,1.7827,1.9918,1.8374,1.6407,1.7675,1.6027,1.3827,1.2803,0.0,0.0,0.0,0.9822,0.9822,0.9822,0.0,0.0,0.0,0.0,0.0,0.0,0.0,0.0,0.0,0.0,0.0,0.0,0.0,0.0,0.0,0.0,1.3904,1.3904,1.3904,1.4252,1.5026,1.5735,1.6503,1.7268,1.8677,1.8968,1.8138,1.7951,1.7087,1.5536,1.4728,1.3883,1.3108,1.3011,1.297,1.2962,1.2807,1.2774,1.2774,1.2774,1.2774,1.2774,1.2774,1.2774,1.2774,0.0,0.0,0.0,0.0,0.0,0.0,0.859,0.859,0.8579,0.8557,0.8492,0.8372,0.8155,0.8193,0.816,0.0,0.0,0.0,0.0,0.0,0.0,0.0,0.0,0.0,0.0,0.0,0.0,0.0,0.0,0.0,0.0,0.0,0.0,0.0,0.0,0.0,0.7215,0.7258,0.7296,0.0,0.0,0.0,0.0,0.0,0.0,0.0,0.0,0.0,0.0,0.0,1.2028,1.3452,1.4719,1.6409,1.8105,1.8715,1.8017,1.7506,1.9186,1.7438,1.5405,1.6586,1.4672,1.2392,1.2044,1.0831,0.0,0.0,0.9822,0.9822,0.9822,0.0,0.0,0.0,0.0,0.0,0.0,0.0,0.0,0.0,0.0,0.0,0.0,0.0,0.0,0.0,0.0,0.0,1.4324,1.4395,1.5026,1.6574,1.6926,1.7479,1.8379,1.9657,1.9519,1.7889,1.7642,1.6777,1.5362,1.4126,1.3522,1.3303,1.3157,1.3076,1.3027,1.2889,1.2774,1.2774,1.2774,1.2774,1.2774,1.2774,1.2774,1.2774,0.0,0.0,0.0,0.0,0.0,0.0,0.859,0.859,0.8552,0.8448,0.8513,0.8524,0.8399,0.8296,0.8161,0.0,0.0,0.0,0.0,0.0,0.0,0.0,0.0,0.0,0.0,0.0,0.0,0.0,0.0,0.0,0.0,0.0,0.0,0.0,0.0,0.0,0.0,0.7221,0.0,0.0,0.0,0.0,0.0,0.0,0.0,0.0,0.0,0.0,0.0,0.0,0.0,1.2796,1.2279,1.4304,1.6731,1.5794,0.0,0.0,1.6215,1.4252,1.2322,1.351,1.2344,1.084,1.0536,0.0,0.0,0.9822,0.9822,0.9822,0.9822,0.9822,0.9869,0.0,0.0,0.0,0.0,0.0,0.0,0.0,0.0,0.0,0.0,0.0,0.0,0.0,0.0,0.0,1.5797,1.5877,1.6564,1.817,1.9507,1.9576,1.8379,1.9831,1.9136,1.6291,1.6272,1.5395,1.3784,1.3644,1.3449,1.3116,1.31,1.3003,0.0,1.2774,1.2774,1.2774,1.2774,1.2774,1.2774,1.2774,1.2774,1.2774,0.0,0.0,0.0,0.0,0.0,0.0,0.8497,0.8486,0.847,0.8421,0.8459,0.8492,0.8519,0.8475,0.8448,0.8448,0.0,0.0,0.0,0.0,0.0,0.0,0.0,0.0,0.0,0.0,0.7731,0.7731,0.7731,0.0,0.0,0.0,0.0,0.0,0.0,0.0,0.0,0.0,0.0,0.0,0.0,0.0,0.0,0.0,0.0,0.0,0.0,0.0,0.0,0.0,0.0,0.0,1.0311,1.1795,0.0,0.0,1.4472,1.4188,1.5537,1.382,1.1902,1.3096,1.2015,1.0643,1.0344,0.0,0.9822,0.9822,0.9822,0.9822,0.9822,0.9822,0.9842,0.9903,0.0,0.0,0.0,0.0,0.0,0.0,0.0,0.0,0.0,0.0,0.0,0.0,0.0,0.0,1.86,1.7057,1.7198,1.9646,1.9437,1.9437,1.9715,1.9437,1.818,1.6079,1.6079,1.5265,1.3798,1.3693,1.3563,1.3417,1.3189,1.3051,0.0,1.2881,1.2774,1.2774,1.2774,1.2774,1.2774,1.2774,1.2774,1.2774,0.0,0.0,0.0,0.0,0.0,0.8562,0.8481,0.847,0.847,0.847,0.847,0.8497,0.8579,0.859,0.8573,0.8541,0.8535,0.0,0.0,0.0,0.0,0.0,0.0,0.0,0.0,0.0,0.7872,0.7872,0.7872,0.7828,0.0,0.0,0.0,0.0,0.0,0.0,0.0,0.0,0.0,0.0,0.0,0.0,0.0,0.0,0.0,0.0,0.0,0.0,0.0,0.0,0.0,0.0,0.0,0.0,0.0,0.0,1.3105,1.3053,1.4104,1.2928,1.1691,1.2399,1.1636,1.0575,0.0,0.0,0.9822,0.9822,0.9822,0.9822,0.9822,0.9822,0.9822,0.9822,0.0,1.0243,0.0,0.0,0.0,0.0,0.0,0.0,0.0,0.0,0.0,0.0,0.0,0.0,1.9785,1.79,1.797,2.0491,1.9091,1.8593,1.9228,1.8175,1.6927,1.5452,1.5452,1.4884,1.3896,1.4139,1.4162,1.4163,1.4238,1.4054,0.0,1.3928,1.3809,1.3481,1.3875,1.3809,1.3416,1.3416,1.3194,1.2913,0.0,0.0,0.0,0.0,0.0,0.859,0.8584,0.8584,0.8584,0.8584,0.8584,0.8584,0.859,0.859,0.8541,0.8432,0.8421,0.0,0.0,0.0,0.0,0.0,0.0,0.0,0.0,0.0,0.7872,0.7872,0.7872,0.7872,0.7872,0.7872,0.7807,0.0,0.0,0.0,0.0,0.0,0.0,0.0,0.0,0.0,0.0,0.0,0.0,0.0,0.0,0.0,0.0,0.0,0.0,0.0,0.0,0.9144,0.9501,0.0,1.108,1.2144,1.108,1.0941,1.1166,1.0799,1.0609,1.0412,0.0,0.0,0.9822,0.9822,0.9822,0.9822,0.9822,0.9822,0.9822,0.9822,0.9822,0.0,0.0,0.0,0.0,0.0,0.0,0.0,0.0,0.0,0.0,0.0,0.0,0.0,1.8449,1.8379,1.9089,2.056,1.8992,1.7462,1.615,1.6012,1.5253,1.3896,1.3896,1.3904,1.3967,1.5104,1.5597,1.5449,1.6645,1.6287,0.0,1.6398,1.6138,1.5043,1.6398,1.6073,1.4912,1.4912,1.4121,1.3092,0.0,0.0,0.0,0.0,0.0,0.0,0.8481,0.847,0.847,0.847,0.847,0.847,0.847,0.847,0.8421,0.8301,0.8372,0.0,0.0,0.0,0.0,0.0,0.0,0.0,0.0,0.7872,0.7971,0.8059,0.8059,0.8059,0.8059,0.8059,0.7993,0.7818,0.7818,0.0,0.0,0.0,0.0,0.0,0.0,0.0,0.0,0.0,0.0,0.0,0.0,0.0,0.0,0.0,0.0,0.0,0.0,0.0,0.0,0.9523,1.0217,1.0891,1.0651,1.0711,1.0812,1.0616,1.0453,1.0297,1.0031,0.0,0.9822,0.9822,0.9822,0.9822,0.9822,0.9822,0.9822,0.9822,0.9822,0.0,0.0,0.0,0.0,0.0,0.0,0.0,0.0,0.0,0.0,0.0,0.0,0.0,1.9785,1.6987,1.6494,1.9019,1.7547,1.6506,1.6079,1.6084,1.5318,1.3896,1.6009,1.6423,1.5443,1.655,1.7021,1.6996,1.7063,1.6785,1.6398,1.685,1.6721,1.6278,1.5909,1.5507,1.4997,1.415,1.3637,1.3287,0.0,0.0,0.0,0.0,0.0,0.0,0.8492,0.8481,0.8481,0.8481,0.8481,0.8481,0.8481,0.8443,0.8367,0.8183,0.8263,0.0,0.0,0.0,0.0,0.0,0.0,0.0,0.7872,0.7872,0.7993,0.8114,0.8114,0.8141,0.8122,0.8136,0.8075,0.7999,0.7955,0.7872,0.0,0.0,0.0,0.0,0.0,0.0,0.801,0.0,0.0,0.0,0.0,0.0,0.0,0.0,0.0,0.0,0.0,0.0,0.0,0.0,0.9768,1.0141,0.0,1.0439,1.0521,1.0365,1.0256,0.0,0.0,0.0,0.9822,0.9822,0.9822,0.9822,0.9822,0.9822,0.9822,0.9822,0.9822,0.0,0.0,0.0,0.0,0.0,0.0,0.0,0.0,0.0,0.0,0.0,0.0,0.0,1.9715,1.6574,1.5301,1.6635,1.5723,1.5168,1.5239,1.5793,1.5582,1.4742,1.7198,1.7847,1.6857,1.7998,1.8451,1.8339,1.8453,1.8267,0.0,1.8332,1.7946,1.7001,1.6844,1.6135,1.51,1.4444,1.389,1.3474,0.0,0.0,0.0,0.0,0.0,0.0,0.0,0.859,0.859,0.859,0.859,0.8584,0.8579,0.8481,0.8367,0.8183,0.8133,0.0,0.0,0.0,0.0,0.0,0.0,0.0,0.7872,0.7872,0.7999,0.813,0.813,0.8127,0.8247,0.8133,0.8136,0.8108,0.7993,0.7877,0.7872,0.7872,0.7872,0.7933,0.7933,0.8122,0.0,0.0,0.0,0.0,0.0,0.0,0.0,0.0,0.0,0.0,0.0,0.0,0.0,0.0,0.0,0.0,0.0,1.0141,1.0215,1.0004,0.997,0.9936,0.9849,0.0,0.0,0.0,0.9822,0.9822,0.9822,0.9822,0.9822,0.9822,0.9822,0.0,0.0,0.0,0.0,0.0,0.0,0.0,0.0,0.0,0.0,0.0,0.0,0.0,1.8449,1.6846,1.531,1.3975,1.3812,1.3874,1.4039,1.5472,1.6231,1.6272,1.7889,1.8539,1.823,1.944,1.9802,0.0,2.0682,2.0348,1.91,2.0412,1.9392,1.7163,1.8538,1.751,1.5214,1.5285,1.4604,1.359,0.0,0.0,0.0,0.0,0.0,0.0,0.0,0.0,0.0,0.0,0.859,0.8557,0.847,0.8432,0.8367,0.0,0.0,0.0,0.0,0.0,0.0,0.0,0.0,0.0,0.7872,0.7872,0.7975,0.8193,0.8193,0.8253,0.8372,0.8345,0.8231,0.8114,0.8086,0.8021,0.7872,0.7872,0.7872,0.7933,0.8183,0.8305,0.0,0.0,0.0,0.0,0.9539,0.9707,0.0,0.0,0.0,0.0,0.0,0.0,0.0,0.0,0.9707,0.9829,0.9863,0.0,0.9917,0.9883,0.9876,0.9863,0.0,0.0,0.0,0.0,0.0,0.0,0.0,0.0,0.0,0.0,0.0,0.0,0.0,0.0,0.0,0.0,0.0,0.0,0.0,0.0,0.0,0.0,0.0,1.8798,1.8449,1.5867,1.4252,1.3904,1.4911,1.5548,1.5593,1.8197,1.8794,1.7489,2.0452,2.1115,1.9755,2.1129,2.1619,2.1398,2.1447,2.0528,1.9048,1.9524,1.8699,1.7094,1.6699,1.6177,1.545,1.4614,1.4082,1.3839,0.0,0.0,0.0,0.0,0.0,0.0,0.0,0.0,0.0,0.0,0.859,0.8562,0.8503,0.8448,0.8394,0.0,0.0,0.0,0.0,0.0,0.0,0.0,0.0,0.7872,0.7872,0.7872,0.7992,0.8172,0.8172,0.8323,0.8492,0.8443,0.8318,0.8133,0.8019,0.7993,0.7872,0.7872,0.7994,0.8122,0.8305,0.0,0.0,0.0,0.0,0.0,0.9761,0.9822,0.0,0.9822,0.9822,0.9808,0.0,0.0,0.0,0.0,0.9761,0.9822,0.9822,0.9822,0.9822,0.9822,0.9822,0.9822,0.9822,0.0,0.0,0.0,0.0,0.0,0.0,0.0,0.0,0.0,0.0,0.0,0.0,0.0,0.0,0.0,0.0,0.0,0.0,0.0,0.0,0.0,0.0,1.81,1.7409,1.5797,1.4884,1.4884,1.6897,1.7325,1.5948,1.8921,1.9896,1.8993,2.1353,2.1962,2.1069,2.1885,2.2058,2.179,2.1097,2.021,1.9292,1.87,1.763,1.6325,1.5853,1.5292,1.4701,1.4115,1.3904,1.3904,0.0,0.0,0.0,0.0,0.0,0.0,0.0,0.0,0.0,0.0,0.0,0.0,0.0,0.0,0.0,0.0,0.0,0.0,0.0,0.0,0.0,0.0,0.7888,0.7939,0.796,0.796,0.8019,0.8199,0.8199,0.8372,0.8584,0.8486,0.8367,0.8161,0.8002,0.7949,0.7933,0.7933,0.8122,0.8433,0.8494,0.0,0.0,0.0,0.0,0.0,0.0,0.0,0.0,0.9822,0.9822,0.9822,0.9822,0.0,0.0,0.0,0.0,0.0,0.9822,0.9822,0.9822,0.9822,0.9822,0.9822,0.9822,0.0,0.0,0.0,0.0,0.0,0.0,0.0,0.0,0.0,0.0,0.0,0.0,0.0,0.0,0.0,0.0,0.0,0.0,0.0,0.0,0.0,1.7448,1.7578,1.6503,1.6192,1.6173,1.6385,1.8798,1.8857,1.6304,1.9061,2.0453,2.0521,2.1501,2.1991,2.1991,2.1991,2.1713,2.1241,0.0,0.0,1.8986,1.7736,1.631,1.5091,1.5234,1.4649,1.359,1.3807,1.388,1.3904,0.0,0.0,0.0,0.0,0.0,0.0,0.0,0.0,0.0,0.0,0.0,0.0,0.0,0.0,0.0,0.0,0.0,0.0,0.0,0.0,0.0,0.8187,0.7981,0.7982,0.8086,0.8086,0.8144,0.8388,0.8388,0.8459,0.859,0.8568,0.8443,0.8167,0.8089,0.8032,0.7933,0.8183,0.8366,0.8433,0.8976,0.0,0.0,0.0,0.0,0.0,0.0,0.0,0.0,0.9822,0.9822,0.9822,0.9822,0.0,0.0,0.0,0.0,0.0,0.9822,0.9822,0.9822,0.9822,0.9822,0.9822,0.9822,0.0,0.0,0.0,0.0,0.0,0.0,0.0,0.0,0.0,0.0,0.0,0.0,0.0,0.0,0.0,0.0,0.0,0.0,0.0,0.0,1.7949,1.6957,1.6788,1.7959,1.6608,1.6302,1.7596,1.9082,1.953,1.8777,2.0724,2.1714,2.1714,2.1938,2.1991,2.1991,2.1991,2.1292,2.0062,0.0,1.8306,1.5872,1.5789,1.4814,1.3486,1.3678,1.3714,1.3574,1.3606,1.3774,1.3904,0.0,0.0,0.0,0.0,0.0,0.0,0.0,0.0,0.0,0.0,0.0,0.0,0.0,0.0,0.0,0.0,0.0,0.0,0.0,0.0,0.8296,0.8172,0.8062,0.8024,0.8149,0.8149,0.8242,0.8416,0.8416,0.8475,0.8584,0.8524,0.8405,0.8167,0.8106,0.811,0.8183,0.8305,0.861,0.8915,0.0,0.0,0.0,0.0,0.0,0.0,0.0,0.0,0.0,0.0,0.9822,0.9822,0.9822,0.0,0.0,0.0,0.0,0.0,0.9822,0.9822,0.9842,0.9862,0.9883,0.9883,0.9883,1.0012,0.0,0.0,0.0,0.0,0.0,0.0,0.0,0.0,0.0,0.0,0.0,0.0,0.0,0.0,0.0,0.0,0.0,0.0,1.6271,1.7107,1.6263,1.6107,1.6867,1.6815,1.7444,1.8868,2.0104,2.0693,2.0566,2.12,2.159,2.175,2.175,2.175,2.175,2.1019,2.0372,1.9711,0.0,1.6824,1.5477,1.466,1.3925,1.3254,1.3336,1.3482,1.3582,1.375,1.3774,1.3774,0.0,0.0,0.0,0.0,0.0,0.0,0.0,0.0,0.0,0.0,0.0,0.0,0.0,0.0,0.0,0.0,0.0,0.0,0.0,0.841,0.835,0.8318,0.8231,0.8209,0.8274,0.828,0.835,0.8503,0.847,0.8503,0.8584,0.8497,0.8394,0.8338,0.8309,0.8386,0.8644,0.8705,0.9008,0.9439,0.0,0.0,0.0,0.0,0.0,0.0,0.0,0.0,0.0,0.0,0.0,0.0,0.0,0.0,0.0,0.9822,0.9822,0.9822,0.9822,0.9822,0.9856,0.995,0.9984,0.9997,1.0031,1.0195,0.0,0.0,0.0,0.0,0.0,0.0,0.0,0.0,0.0,0.0,0.0,0.0,0.0,0.0,0.0,0.0,0.0,1.6094,1.6037,1.6409,1.56,1.5351,1.6107,1.7058,1.8406,2.0158,2.1007,2.1443,2.1443,2.1296,2.1323,2.1614,2.1547,2.1547,2.155,2.0023,1.9298,1.9017,1.6597,1.5409,1.5197,1.4241,1.3815,1.3781,1.412,1.4395,1.4562,1.4745,1.4824,1.4763,0.0,0.0,0.0,0.0,0.0,0.0,0.0,0.0,0.0,0.0,0.0,0.0,0.0,0.0,0.0,0.0,0.0,0.0,0.0,0.8736,0.8682,0.8568,0.8552,0.8503,0.8405,0.8405,0.8519,0.8747,0.8633,0.8579,0.859,0.8579,0.8712,0.8855,0.885,0.8963,0.9285,0.9538,0.9729,0.9792,1.0116,0.0,0.0,0.0,0.0,0.0,0.0,0.0,0.0,0.0,0.0,0.0,0.0,0.0,0.9822,0.9822,0.9822,0.9822,0.9822,0.9822,0.9856,0.995,0.9984,1.0024,1.0229,1.027,0.0,1.0283,0.0,0.0,0.0,0.0,0.0,0.0,0.0,0.0,0.0,0.0,0.0,0.0,0.0,1.6407,1.7665,1.6489,1.6176,1.7474,1.4895,1.4531,1.7364,1.7363,1.8553,2.1382,2.1232,2.1149,2.1149,2.139,2.1601,2.1614,2.1269,2.1283,2.1537,1.9824,1.843,1.729,1.5833,1.4517,1.3402,1.4575,1.4988,1.4894,1.6254,1.6984,1.7406,1.756,1.777,1.8078,0.0,0.0,0.0,0.0,0.0,0.0,0.0,0.0,0.0,0.0,0.0,0.0,0.0,0.0,0.0,0.0,0.0,0.0,0.0,0.8655,0.8606,0.8486,0.8481,0.8459,0.8421,0.8562,0.8682,0.8769,0.8725,0.866,0.859,0.859,0.8723,0.8873,0.8873,0.9186,0.9634,0.9755,0.9952,1.0149,1.0276,1.0331,0.0,0.0,0.0,0.0,0.0,0.0,0.0,0.0,0.9883,0.9822,0.9822,0.9822,0.9822,0.9822,0.9822,0.9822,0.9822,0.989,0.9936,1.0154,1.0256,0.0,0.0,1.0487,1.0555,1.0555,1.0555,0.0,0.0,0.0,0.0,0.0,0.0,0.0,0.0,0.0,0.0,0.0,1.4709,1.6063,1.6599,1.5866,1.5654,1.633,1.5015,1.5186,1.7265,1.7958,1.9257,2.1206,2.1162,2.1109,2.1109,2.1216,2.1269,2.1283,2.1349,2.1349,2.1206,1.9672,1.8342,1.7192,1.6585,1.5619,1.4539,1.5787,1.6275,1.6299,1.7105,1.7443,1.7595,1.8056,1.8218,1.8266,0.0,0.0,0.0,0.0,0.0,0.0,0.0,0.0,0.0,0.0,0.0,0.0,0.0,0.0,0.0,0.0,0.0,0.0,0.872,0.8666,0.8595,0.8475,0.8399,0.8378,0.8416,0.8611,0.8731,0.8769,0.8769,0.8777,0.8784,0.8784,0.8944,0.9324,0.9324,0.9596,1.009,1.009,1.0219,1.0419,1.0419,1.048,0.0,0.0,0.0,0.0,0.0,0.0,0.0,0.0,1.0019,0.9883,0.9836,0.9822,0.9822,0.9822,0.9822,0.9829,0.9883,0.9909,1.0038,1.0297,0.0,0.0,1.0555,1.0683,1.0792,1.0792,1.0792,0.0,0.0,0.0,0.0,0.0,0.0,0.0,0.0,0.0,0.0,0.0,1.4946,1.5958,1.6432,1.5683,1.5443,1.5998,1.5336,1.5753,1.7674,1.8553,1.9623,2.1046,2.1109,2.1109,2.1109,2.0652,2.0462,2.0462,2.0657,2.0913,2.1046,1.9623,1.8553,1.774,1.7239,1.6546,1.5893,1.7109,1.7882,1.8314,1.8742,1.8924,1.8901,1.9437,1.9668,1.9553,0.0,0.0,0.0,0.0,0.0,0.0,0.0,0.0,0.9133,0.9133,0.9237,0.0,0.0,0.0,0.0,0.0,0.0,0.0,0.8895,0.884,0.8715,0.859,0.8361,0.8291,0.8416,0.853,0.8644,0.8769,0.8769,0.8906,0.9117,0.9117,0.9516,1.0193,1.0193,1.0392,1.0717,1.0717,1.0717,1.0717,1.0717,1.0717,1.0717,0.0,0.0,0.0,0.0,0.0,0.0,0.0,1.0175,0.9963,0.9869,0.9822,0.9822,0.9822,0.9822,0.9856,0.995,0.999,1.0058,0.0,0.0,0.0,1.0683,1.0772,1.088,1.088,0.0,1.0853,1.0548,0.0,0.0,0.0,0.0,0.0,0.0,0.0,0.0,1.4666,1.5482,1.6373,1.7577,1.6208,1.5781,1.6936,1.5684,1.6138,1.8844,1.9036,1.9686,2.1046,2.1109,2.1109,2.1109,1.9686,1.8972,1.8972,1.8972,1.975,2.1046,1.9623,1.9036,1.8908,1.7625,1.7044,1.7109,1.846,1.9814,2.1149,2.1443,2.1737,2.2031,2.2245,2.2605,2.2654,0.0,0.0,0.0,0.0,0.0,0.0,0.0,0.0,0.9253,0.9253,0.928,0.0,0.0,0.0,0.0,0.0,0.0,0.0,0.8895,0.884,0.8682,0.8475,0.8399,0.8339,0.8291,0.86,0.8834,0.8769,0.8957,0.9029,0.9117,0.9222,0.9629,1.0193,1.0193,1.0392,1.0717,1.0717,1.0717,1.0717,1.0717,1.0717,1.0717,0.0,0.0,0.0,0.0,0.0,0.0,0.0,0.0,0.0,0.9869,0.9822,0.9842,0.9889,0.9916,0.995,1.0168,1.0283,0.0,0.0,0.0,0.0,0.0,1.0758,0.0,0.0,0.0,0.0,0.0,0.0,0.0,1.0717,1.0887,1.105,0.0,0.0,0.0,1.4465,1.6089,1.6824,1.5988,1.5385,1.5175,1.5499,1.6073,1.7173,1.8908,1.9941,2.0652,2.1109,2.1109,2.0589,1.9623,1.9228,1.8972,1.8972,1.8972,1.9228,1.9623,2.0195,1.9941,1.9036,1.9623,1.9304,1.8524,1.9877,2.0847,2.1443,2.1737,2.1436,2.0767,2.104,2.0557,1.9634,0.0,0.0,0.0,0.0,0.0,0.0,0.0,0.0,0.9302,0.9302,0.9302,0.9302,0.0,0.0,0.0,0.0,0.0,0.0,0.8965,0.8818,0.8633,0.8492,0.835,0.8349,0.85,0.8813,0.9016,0.9171,0.9178,0.9341,0.9516,0.9635,0.9977,1.0392,1.0392,1.0525,1.0717,1.0717,1.0717,1.0717,1.0717,1.0717,1.0717,0.0,0.0,0.0,0.0,0.0,0.0,0.0,0.0,0.0,0.9978,0.9951,1.0012,0.9977,1.0031,1.0175,1.0324,1.0426,0.0,0.0,0.0,0.0,0.0,0.0,0.0,0.0,0.0,0.0,0.0,0.0,0.0,1.1453,1.1643,1.1955,1.2593,1.4164,1.522,1.5143,1.5932,1.6161,1.5291,1.4508,1.452,1.5619,1.6527,1.7818,1.975,2.0652,2.1109,2.1109,2.0589,1.9877,1.9036,1.7946,1.7625,1.8203,1.8203,1.846,1.9036,2.0462,2.0652,1.9877,2.0716,2.0589,1.9877,2.0716,2.1216,2.1352,2.1228,2.0689,1.9987,1.9795,1.9158,1.8309,0.0,0.0,0.9302,0.9302,0.0,0.0,0.0,0.0,0.9302,0.9302,0.9302,0.9302,0.0,0.0,0.0,0.0,0.0,0.0,0.0,0.8807,0.8673,0.8606,0.8338,0.8447,0.8949,0.9114,0.9377,0.9728,0.952,0.9723,1.0193,1.0246,1.0379,1.0717,1.0717,1.0717,1.0717,1.0717,1.0717,1.0717,1.0717,1.0717,1.0717,1.0717,0.0,0.0,0.0,0.0,0.0,0.0,0.0,0.0,1.0161,1.0168,1.0256,1.0127,1.0188,1.0331,1.0473,0.0,0.0,0.0,0.0,0.0,0.0,0.0,0.0,0.0,0.0,0.0,0.0,0.0,0.0,1.2584,1.2879,1.3452,1.4735,1.5452,1.5962,1.6267,1.5338,1.4815,1.5186,1.3782,1.394,1.6786,1.698,1.8203,2.0982,2.1109,2.1109,2.1109,1.9877,1.91,1.8972,1.6527,1.5944,1.7173,1.7173,1.7882,1.9228,2.0526,2.1109,2.1109,2.1109,2.1046,2.0919,2.0946,2.0909,2.0719,1.9952,1.9559,1.9361,1.8506,1.81,1.7819,0.0,0.0,0.9302,0.9302,0.0,0.0,0.0,0.0,0.0,0.9302,0.0,0.0,0.0,0.0,0.0,0.0,0.0,0.0,0.0,0.9204,0.9002,0.8799,0.8738,0.8991,0.9546,0.9736,0.988,1.006,0.9914,0.9986,1.0187,1.034,1.0543,1.0717,1.0717,1.0717,1.0717,1.0717,1.0717,1.0717,1.0717,1.0717,1.0717,1.0717,1.0717,0.0,0.0,0.0,0.0,0.0,0.0,0.0,1.0283,1.0256,1.0297,1.0371,1.0419,1.048,0.0,1.067,0.0,0.0,0.0,0.0,0.0,0.0,0.0,0.0,0.0,0.0,0.0,0.0,0.0,1.2584,1.2848,1.3318,1.4716,1.5451,1.5793,1.5643,1.5111,1.475,1.4594,1.3507,1.394,1.6786,1.698,1.8203,2.0982,2.1109,2.1109,2.1109,2.0779,2.0132,1.9036,1.8396,1.8267,1.8588,1.8588,1.9291,2.0652,2.0982,2.1109,2.1109,2.1109,2.0462,1.9444,1.9601,1.9221,1.8428,1.8316,1.7723,1.6867,1.6676,1.5867,1.5026,0.0,0.0,0.0,0.0,0.0,0.0,0.0,0.0,0.0,0.0,0.0,0.0,0.0,0.0,0.0,0.0,0.0,0.0,0.0,0.0,0.9458,0.914,0.9197,0.9456,0.9927,1.005,1.0182,1.0459,1.0379,1.0379,1.0452,1.057,1.0643,1.0717,1.0717,1.0717,1.0717,1.0717,1.0717,1.0717,1.0717,1.0717,1.0717,1.0717,1.0717,1.0717,1.0717,0.0,0.0,0.0,0.0,0.0,0.0,0.0,1.0493,1.0493,1.0548,1.0616,0.0,0.0,0.0,0.0,0.0,0.0,0.0,0.0,0.0,0.0,0.0,0.0,0.0,0.0,0.0,1.363,1.4381,1.5098,1.5814,1.6165,1.5869,1.452,1.4406,1.4112,1.349,1.3613,1.4716,1.685,1.7625,1.8908,2.0982,2.1109,2.0779,2.0132,2.0068,1.9431,1.8075,1.8075,1.8332,1.8972,1.8972,1.9813,2.1323,2.1323,2.1323,2.1336,2.147,2.0734,1.9369,1.9513,1.8783,1.7577,1.7059,1.646,1.5808,1.5274,1.4537,1.4039,0.0,0.0,0.0,0.0,0.0,0.0,0.0,0.0,0.0,0.0,0.0,0.0,0.0,0.0,0.0,0.0,0.0,0.0,0.0,0.0,0.0,0.9698,0.9732,0.9927,1.0259,1.0259,1.0392,1.0717,1.0717,1.0717,1.0717,1.0717,1.0717,1.0717,1.0717,1.0717,1.0717,1.069,1.0683,1.0683,1.0683,1.0683,1.0683,1.0711,1.0704,1.0683,1.0711,1.0704,1.0683,1.0711,0.0,0.0,0.0,0.0,1.0697,1.0568,1.0622,1.0717,0.0,0.0,0.0,0.0,0.0,0.0,0.0,0.0,0.0,0.0,0.0,0.0,0.0,0.0,0.0,1.5006,1.6009,1.6721,1.698,1.6592,1.5489,1.3473,1.335,1.3087,1.2305,1.3801,1.5424,1.6915,1.8267,1.9623,2.1046,2.0856,2.0335,1.9355,1.91,1.8588,1.7753,1.7689,1.8267,1.9355,1.9404,2.0066,2.1227,2.1332,2.1345,2.1319,2.1542,2.0642,1.9043,1.909,1.8227,1.675,1.5741,1.5417,1.5296,1.4265,1.4039,1.4252,0.0,0.0,0.0,0.0,0.0,0.0,0.0,0.0,0.0,0.0,0.959,0.9807,0.0,0.0,0.0,0.0,0.0,0.0,1.0503,0.0,0.0,1.0505,1.0246,1.0259,1.0651,1.0651,1.0651,1.0717,1.0717,1.0717,1.0717,1.0717,1.0717,1.0717,1.0717,1.0717,1.0711,1.0575,1.0521,1.0521,1.0521,1.0521,1.0534,1.067,1.0636,1.0541,1.067,1.0636,1.0541,1.0677,1.0717,0.0,0.0,0.0,1.0717,1.0697,1.0704,1.0717,0.0,0.0,0.0,0.0,0.0,0.0,0.0,0.0,0.0,0.0,0.0,0.0,0.0,0.0,0.0,0.0,1.5879,1.5619,1.685,1.4893,1.321,1.2882,1.2099,1.1644,1.1843,1.3407,1.5163,1.685,1.8267,1.9623,2.1046,1.9941,1.975,2.0779,1.9623,1.9495,2.0526,2.0526,2.0652,2.0792,2.1107,2.0657,1.9589,2.013,2.0282,2.0062,2.0099,1.8563,1.6011,1.6206,1.5395,1.4109,1.4144,1.4148,1.4148,1.3959,1.4679,1.5806,0.0,0.0,0.0,0.0,0.0,0.0,0.0,0.0,0.0,0.0,0.0,0.9879,0.0,0.0,0.0,1.075,1.075,1.0824,1.0876,1.0675,1.0609,1.0731,1.0591,1.0518,1.0717,1.0717,1.0717,1.0717,1.0717,1.0717,1.0717,1.0717,1.0717,1.0717,1.0717,1.0717,1.0717,1.0649,1.0622,1.0622,1.0622,1.0622,1.0629,1.0697,1.0677,1.0629,1.0697,1.0677,1.0629,1.0697,1.0717,1.0717,1.0717,0.0,0.0,0.0,1.0717,0.0,0.0,0.0,0.0,0.0,0.0,0.0,0.0,0.0,0.0,0.0,0.0,0.0,0.0,0.0,0.0,0.0,1.5424,1.5749,1.4763,1.3595,1.2487,1.1703,1.138,1.1247,1.1446,1.3923,1.5869,1.6581,1.8844,2.0462,2.1046,1.975,1.8908,1.878,1.9116,1.9128,1.878,2.0644,2.1201,2.0356,2.0318,1.9669,1.8541,1.8755,1.8868,1.8767,1.8914,1.7803,1.5816,1.591,1.5044,1.3869,1.4787,1.5097,1.5239,1.6079,1.6846,1.7409,0.0,0.0,0.0,0.0,0.0,0.0,0.0,0.0,0.0,0.0,0.0,0.0,0.0,0.0,0.0,0.0,1.1116,1.1206,1.1185,1.1029,1.0813,1.0724,1.0717,1.0717,1.0717,1.0717,1.0717,1.0717,1.0717,1.0717,1.0717,1.0717,1.0717,1.0717,1.0717,1.0717,1.0717,1.0677,1.0663,1.0663,1.0663,1.0663,1.0663,1.0704,1.0697,1.067,1.0704,1.0697,1.067,1.0711,1.0717,1.0717,1.0717,1.0717,0.0,0.0,0.0,0.0,0.0,0.0,0.0,0.0,0.0,0.0,0.0,0.0,0.0,0.0,0.0,0.0,0.0,0.0,0.0,0.0,0.0,1.5219,1.3079,1.2487,1.1901,1.085,1.0916,1.1247,1.1703,1.4502,1.6441,1.6904,1.9546,2.1109,2.1109,1.975,1.8716,1.8075,1.8906,1.9006,1.8166,2.0731,2.1213,1.9682,1.9543,1.8977,1.7887,1.7606,1.7431,1.7441,1.7676,1.6916,1.5523,1.5523,1.4884,1.4039,1.5523,1.6079,1.6291,1.7819,1.8659,1.8938,0.0,0.0,0.0,0.0,0.0,0.0,0.0,0.0,0.0,0.0,0.0,0.0,1.0515,1.1109,1.1548,1.1548,1.1548,1.1491,1.1255,1.1029,1.0813,1.0724,1.0717,0.0,1.0717,1.0717,1.0717,1.0717,1.0717,1.0717,1.0717,1.0717,1.0717,1.0717,1.0717,1.0717,1.0711,1.0568,1.0507,1.0507,1.0507,1.0507,1.0521,1.0663,1.0629,1.0521,1.067,0.0,0.0,0.0,0.0,0.0,0.0,0.0,0.0,0.0,0.0,0.0,0.0,0.0,0.0,0.0,0.0,0.0,0.0,0.0,0.0,0.0,0.0,0.0,0.0,0.0,0.0,0.0,0.0,1.2947,1.2816,1.1637,1.0784,1.0717,1.0717,1.1372,1.3013,1.4819,1.6635,1.8267,2.0081,2.1109,2.1109,1.975,1.9559,2.0856,1.9699,1.9759,2.133,2.1765,2.1109,1.934,1.9898,1.9379,1.7829,1.6737,1.6202,1.6202,1.6221,1.5381,1.4039,1.4039,1.3975,1.4039,1.5523,1.6079,1.6291,1.7819,1.9298,2.0283,0.0,0.0,0.0,0.0,0.0,0.0,0.0,0.0,0.0,0.0,0.0,0.0,0.0,1.126,1.1619,1.1619,1.1443,1.124,1.1036,1.0887,1.0778,1.0724,1.0717,1.0717,1.0717,1.0717,1.0717,1.0717,1.0717,1.0717,1.0717,1.0717,1.0717,1.0717,1.0717,1.0717,1.0717,1.0663,1.0636,1.0636,1.0636,1.0636,1.0643,1.0697,0.0,0.0,0.0,0.0,0.0,0.0,0.0,0.0,0.0,0.0,0.0,0.0,0.0,0.0,0.0,0.0,0.0,0.0,0.0,0.0,0.0,0.0,0.0,0.0,0.0,0.0,0.0,0.0,0.0,0.0,0.0,0.0,1.1571,1.1049,1.0717,1.0717,1.0717,1.1314,1.2816,1.4754,1.6506,1.8075,2.0017,2.0716,1.9814,1.8559,1.8052,1.846,1.8254,1.9411,2.2111,2.0912,1.973,1.8697,1.776,1.6599,1.5343,1.5839,1.5593,1.4813,1.6705,1.6705,1.5381,1.6352,1.6775,1.6916,1.839,1.9019,1.9158,2.0686,2.1596,2.2022,0.0,0.0,0.0,0.0,0.0,1.0394,1.0217,1.0263,1.0263,1.0193,0.0,0.0,0.0,0.0,1.1525,1.147,1.1233,1.105,1.0887,1.0739,1.0717,1.0717,1.0717,1.0717,1.0717,1.067,1.067,1.0717,1.067,1.067,1.0717,1.0717,1.0717,1.0717,1.0717,1.0717,1.0717,1.0717,0.0,1.0717,1.0717,1.0717,1.0717,0.0,0.0,0.0,0.0,0.0,0.0,0.0,0.0,0.0,0.0,0.0,0.0,0.0,0.0,0.0,0.0,0.0,0.0,0.0,0.0,0.0,0.0,0.0,0.0,0.0,0.0,0.0,0.0,0.0,0.0,0.0,0.0,0.0,1.085,1.0717,1.0717,1.0717,1.1115,1.1967,1.3341,1.5404,1.7216,1.86,2.0208,0.0,1.9169,1.8818,1.868,1.8652,1.8909,1.9784,2.1381,2.0195,1.8844,1.7382,1.6837,1.6158,1.5443,1.5867,1.5867,1.5513,1.6987,1.7057,1.6221,1.7749,1.8433,1.8709,2.0028,2.069,2.0959,2.2336,2.2928,2.2928,0.0,0.0,1.0527,1.0527,1.0527,1.0435,1.0171,1.0411,1.048,1.0203,0.0,0.0,0.0,0.0,0.0,1.1172,1.1029,1.088,1.0873,1.0806,1.0717,1.0717,1.0717,1.0717,1.0717,1.0575,1.0568,1.0717,1.0568,1.0575,1.0717,1.0717,1.0717,1.0717,1.0717,1.0717,1.0717,0.0,1.0717,1.0717,0.0,1.0717,1.0717,0.0,0.0,0.0,1.0717,1.0717,0.0,1.0717,0.0,0.0,0.0,0.0,0.0,0.0,0.0,0.0,0.0,0.0,0.0,0.0,0.0,0.0,1.0717,0.0,0.0,0.0,0.0,0.0,0.0,0.0,0.0,0.0,0.0,0.0,1.0717,1.0717,1.0717,1.0717,1.1901,1.3341,1.4782,1.6721,1.8536,1.9979,2.0679,2.0528,1.9304,2.0643,2.1632,2.1846,2.171,2.0903,1.9499,1.9965,1.8608,1.5468,1.7472,1.8379,1.8379,1.6916,1.7057,1.8309,1.6916,1.6291,1.6362,1.783,1.859,1.8987,2.0168,2.0856,2.1273,2.2484,2.2928,2.2928,0.0,1.0894,1.0966,1.1253,1.1325,1.1266,1.1074,1.1118,1.1118,0.0,0.0,0.0,1.1302,1.1244,1.1165,1.1023,1.09,1.0833,1.0792,1.0744,1.0717,1.0717,1.0717,1.0717,1.0717,1.0677,1.0677,1.0717,1.0677,1.0677,1.0717,1.0717,1.0717,1.0717,1.0717,1.0717,1.0717,1.0717,0.0,1.0717,1.0717,1.0717,0.0,0.0,0.0,0.0,0.0,1.0717,1.0717,0.0,1.0717,1.0717,0.0,0.0,0.0,0.0,0.0,0.0,1.0717,0.0,0.0,0.0,0.0,0.0,1.0717,1.0717,1.0717,0.0,0.0,0.0,0.0,0.0,0.0,0.0,0.0,0.0,0.0,1.0717,1.0717,1.0717,1.1049,1.2223,1.4651,1.5609,1.7238,0.0,1.9693,1.8971,1.7862,1.8426,1.8762,1.8753,2.0765,2.1097,1.9499,1.9965,1.9243,1.7333,1.8031,1.8379,1.8449,1.9089,1.9019,1.8519,2.0271,2.0421,1.9367,1.9785,2.004,2.0238,2.1703,2.2349,2.2415,2.2749,2.2928,2.2968,1.1188,1.126,1.1332,1.1548,1.1619,1.1565,1.1416,1.1389,1.1389,0.0,0.0,0.0,1.1212,1.1124,1.1016,1.0799,1.0786,1.0745,1.0724,1.0717,1.0717,1.0717,1.0717,1.0717,1.0717,1.0656,1.0656,1.0717,1.0656,1.0656,1.0717,1.0717,1.0717,1.0717,1.0717,1.0717,1.0717,0.0,0.0,0.0,1.0717,0.0,0.0,1.0717,1.0717,0.0,0.0,0.0,1.0717,1.0717,1.0717,0.0,0.0,0.0,0.0,0.0,0.0,0.0,0.0,0.0,0.0,0.0,0.0,0.0,1.1439,1.1571,1.1769,0.0,0.0,0.0,0.0,0.0,0.0,0.0,0.0,0.0,0.0,1.1181,1.1372,1.0784,1.1769,1.3079,1.4716,1.5749,1.7302,1.9711,1.9527,1.9244,1.8998,1.815,1.8317,1.974,2.051,2.0294,1.8896,1.8406,1.787,1.722,1.7993,1.8729,1.9367,2.0213,2.0132,1.9367,2.0548,2.0479,1.9715,2.0352,2.1049,2.1773,2.2569,2.2939,2.2964,2.2212,2.2018,2.2007,0.0,1.1619,1.1619,1.1619,1.1619,1.1572,1.1436,1.1402,1.1389,0.0,1.1246,1.109,1.0894,1.0867,1.0799,1.0731,1.0717,1.0717,1.0717,1.0717,1.0717,1.0717,1.0717,1.0717,1.0717,1.0588,1.0582,1.0717,1.0582,1.0588,1.0717,1.0717,1.0717,1.0717,1.0717,1.0717,1.0717,0.0,0.0,1.0717,1.0717,1.0717,0.0,0.0,1.0717,1.0717,1.0717,1.0717,1.0717,1.0717,1.0717,0.0,0.0,0.0,0.0,0.0,1.0717,0.0,0.0,0.0,0.0,0.0,0.0,0.0,1.2289,1.2553,1.2947,1.4193,0.0,0.0,0.0,0.0,0.0,0.0,0.0,0.0,0.0,0.0,1.2099,1.085,1.2882,1.4586,1.4847,1.6268,1.7893,1.9507,1.9838,2.023,2.08,1.9034,1.9446,2.2519,2.0664,1.9096,1.8071,1.6479,1.5815,1.5908,1.7785,1.9298,2.0629,2.0804,2.0861,2.0768,1.9529,1.8832,1.874,2.0063,2.1552,2.2968,2.2897,2.2977,2.2867,2.1262,2.0625,2.0486,1.1619,1.1619,1.1619,1.1619,1.1619,1.1606,1.1579,1.147,1.1389,1.1389,1.1158,1.0914,1.0887,1.0772,1.0751,1.0724,1.0717,1.0717,1.0717,1.0717,1.0717,1.0717,1.0717,1.0717,1.0717,1.069,1.069,1.0717,1.069,1.069,1.0717,1.0717,1.0717,1.0717,1.0717,1.0717,1.0717,0.0,0.0,1.0717,1.0717,0.0,1.0717,1.0717,1.0717,1.0717,1.0717,1.0717,1.0717,1.0717,1.0717,1.0717,0.0,0.0,0.0,0.0,0.0,0.0,0.0,0.0,0.0,0.0,0.0,0.0,1.1049,1.1115,1.1181,0.0,0.0,0.0,0.0,0.0,0.0,0.0,0.0,0.0,0.0,0.0,0.0,1.0717,1.1181,1.2421,1.4716,1.5238,1.6592,1.938,1.9446,1.8541,1.6716,1.8763,2.0218,2.0724,2.0513,1.9562,1.7833,1.7803,1.7135,1.5908,1.8827,2.0352,2.0641,2.2141,2.2671,2.2461,2.2349,2.1545,2.0201,2.0491,2.0804,2.1269,2.2461,2.2259,2.1298,2.0955,2.0165,1.9481,1.1619,1.1619,1.1619,1.1619,1.1619,1.1592,1.1518,1.1443,1.1362,1.1287,1.1084,1.0853,1.0846,1.0765,1.0717,1.0717,1.0717,1.0717,1.0717,1.0717,1.0717,1.0717,1.0717,1.0717,1.0717,1.0717,1.0717,1.0717,1.0717,1.0717,1.0717,1.0717,1.0717,1.0717,1.0717,1.0717,1.0717,0.0,1.0717,1.0717,1.0717,0.0,1.0717,1.0717,1.0717,1.0717,1.0717,1.0772,1.0846,1.0914,1.1408,0.0,0.0,1.1425,1.1822,0.0,1.0778,1.0717,0.0,0.0,0.0,1.0717,0.0,0.0,0.0,1.1769,1.1967,1.2618,0.0,0.0,0.0,0.0,0.0,0.0,0.0,0.0,0.0,0.0,0.0,1.0784,1.1306,1.2553,1.4716,1.4912,1.5879,1.815,1.7652,1.7286,1.7151,1.8301,1.9392,2.0355,1.9737,1.8578,1.6945,1.6291,1.6409,1.7166,1.8743,2.0271,2.1747,2.2674,2.2592,2.1747,2.1899,2.1041,1.9507,1.9507,1.9587,1.9701,2.0473,2.0403,1.9753,1.9018,1.8404,1.8044,1.1606,1.1592,1.1572,1.1572,1.1552,1.1491,1.1369,1.1321,1.1253,1.1097,1.0975,1.0793,1.0731,1.0717,1.0717,1.0717,1.0717,1.0717,1.0717,1.0717,1.0717,1.0717,1.0717,1.0717,1.0717,1.0717,1.0717,1.0717,1.069,1.069,1.0717,1.069,1.069,1.0717,1.0717,1.0717,0.0,0.0,0.0,1.0717,0.0,1.0717,1.0717,1.0717,1.0717,1.0717,1.0717,1.0799,1.0921,1.1036,1.1891,1.2642,1.1488,1.1893,0.0,0.0,0.0,0.0,0.0,0.0,0.0,0.0,0.0,1.0982,0.0,0.0,0.0,0.0,0.0,0.0,0.0,0.0,0.0,0.0,0.0,0.0,0.0,0.0,0.0,1.085,1.1703,1.3079,1.4716,1.5173,1.5684,1.6527,1.5959,1.6425,1.8396,1.8092,1.8664,2.0548,1.9037,1.7503,1.6079,1.4463,1.5087,1.7959,1.8239,1.9854,2.2448,2.25,2.1867,2.056,2.033,1.9366,1.8033,1.8033,1.7957,1.795,1.8481,1.8585,1.8259,1.7497,1.713,1.7218,1.1565,1.1511,1.1416,1.1416,1.1307,1.1206,1.1261,1.1077,1.0941,1.0792,1.0758,1.0738,1.0724,0.0,0.0,0.0,0.0,0.0,1.0717,0.0,1.0717,1.0717,1.0717,1.0717,1.0717,1.0717,1.0717,1.0717,1.0582,1.0588,1.0717,1.0582,1.0588,1.0717,1.0717,0.0,0.0,0.0,1.0717,0.0,1.0717,1.0717,0.0,1.0717,1.0717,1.0717,1.0717,1.0731,1.0751,0.0,1.0905,1.0965,0.0,1.092,1.1123,0.0,0.0,0.0,0.0,0.0,0.0,0.0,1.0819,0.0,0.0,0.0,0.0,1.1115,0.0,0.0,0.0,0.0,0.0,0.0,0.0,0.0,0.0,0.0,0.0,1.0717,1.085,1.1967,1.4651,1.6009,1.6333,1.5229,1.5709,1.6338,1.6985,1.8753,2.0004,2.056,1.9125,1.7658,1.6079,1.4583,1.4725,1.6362,1.776,1.9298,2.0849,2.1163,2.1069,2.0572,1.9453,1.8122,1.663,1.663,1.5967,1.5112,1.7683,1.8062,1.7298,1.8599,1.8501,1.8096,1.1314,1.1301,1.126,1.126,1.1275,1.1131,1.105,1.0914,1.0792,1.0731,1.0717,1.0717,0.0,0.0,0.0,0.0,0.0,1.0717,0.0,0.0,1.0717,1.0717,1.0717,1.0717,1.0717,1.0717,1.0717,1.0717,1.0568,1.0527,1.0588,1.0521,1.0527,1.0595,1.0677,0.0,1.0717,0.0,1.0717,0.0,0.0,0.0,0.0,1.0717,1.0717,1.0731,1.0819,1.0907,1.0989,0.0,1.1779,0.0,0.0,0.0,0.0,0.0,0.0,0.0,0.0,0.0,0.0,0.0,0.0,0.0,1.1725,0.0,1.0717,0.0,0.0,0.0,0.0,0.0,0.0,0.0,1.0717,0.0,0.0,0.0,0.0,0.0,0.0,0.0,1.4651,1.6138,1.6398,1.5043,1.4512,1.4643,1.5508,1.7296,1.8239,1.797,1.8239,1.7268,1.4813,1.5026,1.5938,1.7479,1.8949,1.9993,2.0629,2.075,1.9749,1.7981,1.7572,1.6525,1.5107,1.522,1.5075,1.4884,1.6068,1.688,1.7435,1.8296,1.8967,1.9849,1.1023,0.0,1.1104,1.1104,1.107,1.1009,1.09,1.0792,1.0717,1.0717,1.0717,0.0,1.0717,1.0792,0.0,0.0,1.0792,1.0806,0.0,0.0,1.0717,0.0,0.0,0.0,0.0,1.0717,1.0717,1.0717,1.0527,1.0473,1.0555,1.0473,1.048,1.0561,0.0,1.0717,1.0717,0.0,0.0,1.0717,1.0717,1.0717,1.0717,1.0717,1.0717,1.0731,1.0779,1.0955,1.1056,1.1172,1.2069,0.0,1.1783,0.0,0.0,0.0,0.0,0.0,1.233,0.0,0.0,0.0,0.0,0.0,0.0,0.0,0.0,0.0,0.0,0.0,0.0,0.0,0.0,0.0,0.0,1.0717,0.0,0.0,0.0,0.0,0.0,0.0,0.0,1.5229,1.5414,1.439,1.3111,1.3022,1.436,1.6049,1.6679,1.5999,1.7549,1.6987,1.3904,1.5381,1.6846,1.8379,1.9505,2.0284,2.056,1.9796,1.8276,1.6174,1.5893,1.5232,1.4335,1.4505,1.506,1.5812,1.5915,1.7257,1.9214,1.8846,1.9928,2.1737,1.0731,1.0786,0.0,1.0887,1.0833,1.0731,1.0731,1.0724,1.0717,1.0717,0.0,0.0,0.0,0.0,0.0,0.0,0.0,1.1029,1.0738,0.0,1.0717,0.0,0.0,1.0717,0.0,0.0,1.0717,1.0717,1.0432,1.0432,1.0704,1.0419,1.0439,1.0711,1.0717,1.0717,1.0717,1.0717,1.0717,1.0717,1.0717,1.0717,1.0717,0.0,1.0717,1.0717,1.0724,0.0,0.0,1.0738,1.0839,0.0,0.0,0.0,0.0,0.0,0.0,0.0,0.0,0.0,0.0,1.3001,0.0,0.0,0.0,0.0,1.5082,0.0,0.0,0.0,0.0,0.0,0.0,0.0,0.0,0.0,0.0,0.0,0.0,0.0,0.0,0.0,0.0,1.2882,1.2947,1.2882,1.1658,1.1886,1.3942,1.5902,1.654,1.5646,1.7398,1.6987,1.3904,1.5381,1.6846,1.8379,1.8627,1.9394,2.0503,1.7775,1.6515,1.6299,1.489,1.4449,1.4708,1.4879,1.6052,1.7738,1.8144,2.0358,2.3098,2.1134,2.167,2.3629,1.0717,0.0,0.0,0.0,0.0,1.0717,1.0717,1.0717,1.0792,0.0,0.0,0.0,0.0,1.1402,1.1423,0.0,0.0,1.1226,1.1029,1.0928,0.0,0.0,0.0,1.0717,0.0,0.0,0.0,0.0,1.0521,1.0473,1.0568,1.0466,1.0473,1.0575,0.0,1.0717,0.0,0.0,0.0,0.0,0.0,1.0717,1.0717,0.0,1.0717,1.0717,1.0717,1.0785,0.0,1.0982,1.1111,1.126,1.1362,1.1389,1.1369,1.1274,1.1927,1.2766,0.0,0.0,1.4622,1.6059,0.0,0.0,0.0,0.0,0.0,0.0,0.0,0.0,0.0,0.0,0.0,0.0,0.0,0.0,0.0,0.0,0.0,0.0,0.0,0.0,0.0,0.0,1.3801,1.2882,1.2512,1.23,1.2368,1.5092,1.5857,1.3999,1.6566,1.6705,1.3904,1.6352,1.7973,1.8687,1.9526,1.9748,1.9323,1.7197,1.5759,1.5069,1.4695,1.4732,1.5151,1.6485,1.7534,1.8293,1.9612,2.1601,2.3592,2.2929,2.3836,2.5491,1.0717,1.0717,0.0,0.0,0.0,1.0717,1.0717,1.0812,0.0,0.0,1.126,0.0,1.1599,0.0,1.1735,0.0,1.1626,1.1497,1.1255,1.1124,0.0,1.0812,1.0799,0.0,0.0,0.0,0.0,0.0,0.0,1.0521,1.0575,1.0521,1.0521,1.0575,0.0,1.0717,1.0717,0.0,1.0717,0.0,0.0,1.0717,0.0,0.0,1.0717,1.0717,0.0,1.0785,1.0887,1.1036,1.1531,1.2168,1.2335,1.2697,1.3068,1.3006,1.3649,1.438,1.4432,1.519,0.0,1.7644,1.658,0.0,1.6787,0.0,0.0,0.0,0.0,0.0,0.0,0.0,0.0,0.0,0.0,0.0,0.0,1.0717,0.0,0.0,0.0,0.0,0.0,0.0,1.321,1.2816,1.239,1.1948,1.1354,1.4514,1.527,1.2795,1.5896,1.6282,1.3539,1.6625,1.8033,1.7684,1.9186,1.9186,1.7765,1.6215,1.5113,1.4538,1.4724,1.5385,1.6355,1.7645,1.8996,2.0321,2.1521,2.3091,2.4614,2.4056,2.4882,2.6213,1.0717,1.0717,0.0,0.0,1.0717,0.0,0.0,0.0,1.1165,0.0,1.145,1.1647,1.166,1.1918,1.1972,1.1687,1.1918,1.183,1.1246,1.1328,0.0,0.0,1.0887,1.088,1.088,0.0,0.0,0.0,0.0,0.0,1.0717,1.0568,1.0582,0.0,1.0717,0.0,1.0717,1.0717,1.0717,1.0717,1.0717,1.0717,1.0717,1.0717,1.0724,1.0731,1.0724,1.0717,1.0811,1.0961,1.2127,1.3513,1.3763,1.485,1.6093,1.5974,1.605,1.6164,1.5974,1.6129,1.6576,1.7765,1.8046,0.0,0.0,0.0,1.9595,0.0,0.0,0.0,0.0,0.0,0.0,0.0,0.0,0.0,0.0,0.0,0.0,0.0,0.0,0.0,0.0,1.1637,1.1372,1.2618,1.1571,1.0919,0.0,1.4247,1.4919,1.2078,1.5395,1.5849,1.2824,1.6122,1.7047,1.5664,1.7704,1.7775,1.6127,1.4928,1.4546,1.4749,1.4919,1.6199,1.805,1.8417,2.049,2.3454,2.3799,2.4933,2.6201,2.4522,2.4822,2.601,1.0717,1.0717,1.0717,0.0,1.0717,1.0717,0.0,0.0,0.0,0.0,1.1762,1.2033,1.225,1.2345,1.2359,1.2284,1.225,0.0,0.0,0.0,0.0,1.1287,1.0995,1.088,1.088,1.0799,0.0,1.0717,0.0,0.0,1.0717,0.0,0.0,0.0,0.0,0.0,1.0717,1.0717,1.0717,1.0717,1.0717,1.0717,1.0717,0.0,1.0792,1.0806,1.0758,1.1372,1.2254,1.2417,1.3595,1.5001,1.5141,1.5612,1.6122,1.6065,1.6867,1.7539,1.6356,1.7788,1.9298,1.8465,1.8315,1.8363,0.0,0.0,0.0,0.0,0.0,0.0,0.0,0.0,0.0,0.0,0.0,0.0,0.0,0.0,0.0,1.0717,0.0,0.0,0.0,1.2816,1.3079,1.1372,1.2816,1.2898,1.0845,0.0,1.4591,1.1843,1.5113,1.5575,1.2824,1.5849,1.6915,1.5947,1.7339,1.7572,1.6613,1.5121,1.4676,1.5114,1.5293,1.5817,1.6717,1.9422,2.0964,2.2019,2.4669,2.5859,2.6066,2.5583,2.549,2.5598,1.0717,1.0717,0.0,1.0717,0.0,0.0,1.0907,1.1056,0.0,1.1579,1.1877,0.0,1.2291,1.2427,1.2501,1.2501,1.2427,0.0,1.2074,0.0,0.0,1.1497,1.1199,1.1043,1.1043,1.0833,0.0,1.0717,0.0,0.0,1.0717,0.0,0.0,0.0,0.0,1.0717,0.0,1.0717,1.0717,1.0717,1.0717,1.0758,0.0,1.0819,1.0914,1.1029,1.0948,1.1447,1.2142,1.2232,1.3788,1.5618,1.5059,1.6397,1.797,1.7268,1.8191,1.9251,1.8331,1.939,2.0527,1.9611,1.9401,1.9401,1.9401,1.8751,1.79,0.0,1.7537,1.7462,0.0,0.0,0.0,0.0,0.0,0.0,0.0,0.0,0.0,0.0,1.1437,0.0,0.0,1.3276,1.3997,1.1769,1.3079,1.3276,0.0,0.0,1.4701,1.246,1.5016,1.5434,1.3317,1.5141,1.5843,1.5543,1.6496,1.6468,1.5702,1.5002,1.4871,1.5252,1.6299,1.6903,1.7419,2.0899,2.235,2.2579,2.5202,2.5945,2.5571,2.5571,2.5464,2.5304,1.0717,0.0,0.0,0.0,0.0,0.0,0.0,1.124,0.0,1.164,0.0,1.2121,1.2121,1.2345,1.2501,1.2501,0.0,1.2386,1.2108,1.2149,1.1938,1.166,1.1355,1.1255,1.1234,1.0894,0.0,0.0,0.0,0.0,0.0,0.0,0.0,0.0,0.0,0.0,0.0,1.0717,1.0717,1.0724,1.0744,1.0826,1.088,1.09,1.1063,1.1261,1.1261,1.1317,1.1455,1.1594,1.3526,1.5658,1.4497,1.6896,1.982,1.8471,1.9041,2.0098,2.0098,2.0237,2.0388,2.0388,2.0527,2.0665,2.0665,2.0665,2.0318,1.8971,1.9439,1.9347,1.6955,0.0,0.0,0.0,0.0,0.0,0.0,0.0,0.0,0.0,0.0,0.0,0.0,0.0,1.4089,1.2618,1.2684,0.0,0.0,0.0,1.4769,1.3344,1.4946,1.5079,1.3595,1.4085,1.4457,1.4642,1.5363,1.5206,1.4229,1.4781,1.5114,1.5404,1.7253,1.8304,1.887,2.2108,2.3712,2.4221,2.5453,2.5558,2.5077,2.5037,2.5024,2.5024,0.0,0.0,0.0,0.0,0.0,1.1219,1.1497,1.164,1.1775,1.1959,1.2244,1.2427,1.2427,1.2467,1.2501,1.2501,1.2501,0.0,0.0,0.0,0.0,1.1803,1.1511,1.1294,1.1165,1.0995,1.0779,0.0,0.0,0.0,1.0717,0.0,0.0,0.0,0.0,0.0,1.0717,1.0717,0.0,1.0731,1.0793,1.0853,1.0894,1.1084,1.1219,1.1348,1.1348,1.2025,1.294,1.2972,1.4181,1.569,1.545,1.6069,1.6836,1.6554,1.6695,1.6906,1.6906,1.783,1.8832,1.8832,1.975,2.0665,2.0665,2.0665,2.0596,2.0388,1.9437,1.8919,1.9415,0.0,0.0,0.0,0.0,0.0,0.0,0.0,0.0,0.0,0.0,1.2354,0.0,0.0,0.0,0.0,0.0,0.0,0.0,0.0,1.3617,0.0,1.3974,1.3531,0.0,1.3317,1.3602,1.2881,1.4566,1.5055,1.4389,1.4927,1.5366,1.5691,1.6228,1.7229,1.8789,2.0807,2.3194,2.5609,2.5628,2.5384,2.505,2.4796,2.4716,2.4716,0.0,0.0,0.0,0.0,0.0,0.0,0.0,1.1972,1.2067,1.2135,1.2182,1.2271,1.2271,1.2413,1.2501,1.2501,1.2501,1.244,1.2298,1.2074,1.1911,1.1837,1.147,0.0,1.1234,1.1023,1.0806,1.0717,0.0,0.0,1.0717,0.0,0.0,0.0,0.0,1.0717,0.0,0.0,0.0,1.0724,1.0799,1.0813,1.0894,1.1104,1.126,1.1402,1.1484,1.1882,1.2444,1.2444,1.3474,1.4657,1.382,1.4718,1.5919,1.515,1.5495,1.6131,1.6131,1.6625,1.7198,1.7198,1.776,1.8541,1.932,1.9541,1.975,2.0527,2.0098,1.9739,2.0191,1.838,0.0,0.0,0.0,0.0,0.0,0.0,0.0,0.0,0.0,0.0,0.0,0.0,0.0,0.0,0.0,0.0,0.0,0.0,1.3686,0.0,0.0,0.0,1.3951,0.0,1.3488,1.4728,1.4588,1.449,1.4453,1.5192,1.561,1.5942,1.7819,1.8626,1.8779,2.1322,2.3763,2.601,2.5625,2.5331,2.5064,2.4917,2.477,2.4636,0.0,1.0792,0.0,0.0,1.1389,0.0,1.2006,1.2216,1.2291,1.2169,1.2155,1.2155,1.2155,1.2366,1.2501,1.2501,1.2474,1.2393,1.225,1.1986,1.1816,1.1789,1.145,1.1246,1.1212,1.1104,1.0955,0.0,0.0,0.0,1.067,0.0,0.0,0.0,0.0,0.0,0.0,0.0,1.0717,1.0724,1.0792,1.0887,1.1016,1.1192,1.1335,1.1457,1.1572,1.1619,1.1619,1.1619,1.2395,1.3174,1.1972,1.3246,1.4937,1.3737,1.4227,1.515,1.515,1.5354,1.5707,1.599,1.6343,1.6987,1.8541,1.8901,1.9111,2.0028,1.9959,1.9681,1.9416,1.75,0.0,0.0,0.0,0.0,0.0,0.0,0.0,0.0,0.0,0.0,0.0,0.0,0.0,0.0,0.0,0.0,1.4444,0.0,0.0,0.0,0.0,1.3967,1.5203,0.0,1.3167,1.5867,1.4362,1.3859,1.4252,1.5169,1.5788,1.6397,1.8885,1.941,1.8794,2.1702,2.3653,2.4804,2.4893,2.4786,2.4612,2.4847,2.4836,2.4649,0.0,0.0,0.0,0.0,0.0,0.0,1.2054,1.2298,1.2474,1.2461,1.2461,1.2461,1.2461,1.2488,1.2501,1.2501,1.2386,1.2244,1.2094,1.1925,1.1775,1.1647,1.1599,1.1511,1.1375,1.1355,1.1212,0.0,0.0,1.0785,0.0,0.0,0.0,0.0,0.0,0.0,1.0717,1.0717,1.0717,1.0744,1.1009,1.1131,1.1172,1.1463,1.1586,1.1599,1.1613,1.1619,1.1619,1.1619,1.1691,1.1763,1.1619,1.1763,1.1972,1.1828,1.19,1.2043,1.2043,1.3031,1.4449,1.5778,1.7127,1.8622,2.0098,2.0457,2.0098,1.8901,1.7479,1.6545,1.6525,1.6244,1.6596,0.0,0.0,0.0,0.0,0.0,0.0,0.0,0.0,0.0,0.0,1.2909,0.0,0.0,1.1571,0.0,0.0,0.0,0.0,1.3587,1.245,1.1969,1.2168,1.1896,1.212,1.2698,1.3034,1.3347,1.3706,1.4312,1.5772,1.771,1.6517,1.6914,1.8612,2.0541,2.1249,2.1157,2.2621,2.2992,2.2888,2.4162,2.4663,2.4676,0.0,0.0,0.0,0.0,0.0,0.0,0.0,1.2427,1.2501,1.2501,1.2501,1.2501,1.2501,1.2501,1.2501,1.2501,1.2372,1.2223,1.2149,1.1837,1.1681,1.1619,1.1531,1.1457,1.1396,1.1389,1.1246,0.0,0.0,0.0,0.0,0.0,0.0,0.0,0.0,1.0717,1.0717,1.0717,1.0717,1.0738,1.0948,1.1036,1.107,1.1369,1.1484,1.1497,1.1586,1.1619,1.1619,1.1619,1.1619,1.1619,1.1619,1.1619,1.1619,1.1619,1.1619,1.1619,1.1619,1.2043,1.2681,1.3246,1.388,1.4733,1.6282,1.6635,1.6705,1.6987,1.6554,1.6131,1.6131,1.5354,1.5292,1.6775,0.0,0.0,0.0,0.0,0.0,0.0,0.0,0.0,0.0,0.0,0.0,0.0,0.0,0.0,0.0,0.0,0.0,1.3472,0.0,1.2205,1.3137,1.2459,1.2663,1.3793,1.351,1.3518,1.3739,1.4304,1.5877,1.7973,1.7458,1.8238,2.0061,2.1682,2.2252,2.2222,2.3868,2.4316,2.416,2.4904,2.505,2.4943,1.1219,0.0,1.1477,0.0,1.1972,1.2135,1.2454,1.2501,1.2501,1.2501,1.2501,1.2501,1.2501,1.2501,1.2501,1.2501,1.2332,1.2155,1.2006,1.1762,1.1599,1.1552,1.1491,0.0,1.1457,1.1457,1.1314,1.1009,1.1009,0.0,0.0,0.0,1.0677,1.0717,1.0717,1.0717,1.0717,1.0717,1.0717,1.0738,1.0934,1.1009,1.1043,1.1341,1.1457,1.147,1.1579,1.1619,1.1619,1.1619,1.1619,1.1619,1.1619,1.1619,1.1619,1.1619,1.1619,1.1619,1.1619,1.1619,1.1691,1.2187,1.2259,1.2681,1.4236,1.4583,1.4725,1.5354,1.5079,1.4796,1.4796,1.3951,1.388,1.5778,0.0,0.0,0.0,0.0,0.0,0.0,1.6778,1.6034,1.5838,1.3982,0.0,0.0,0.0,0.0,0.0,0.0,0.0,0.0,0.0,0.0,1.3583,1.2703,1.2915,1.4191,1.3699,1.3514,1.3669,1.4877,1.5991,1.6996,1.7987,1.8727,1.9391,2.0945,2.1567,2.1731,2.3819,2.4531,2.4516,2.5179,2.5304,2.5251,1.1362,1.1626,1.187,1.2033,1.2298,1.2494,1.2501,1.2501,1.2501,1.2501,1.2501,1.2501,1.2501,1.2501,1.2501,1.2501,1.2237,1.1999,1.1843,1.1701,1.1552,0.0,0.0,1.1613,1.1613,1.1613,1.1463,1.1227,0.0,0.0,1.0493,1.0493,1.0575,1.0717,1.0717,1.0717,1.0717,1.0717,1.0717,1.0744,1.1043,1.1227,1.1261,1.1497,1.1613,1.1619,1.1619,1.1619,1.1619,1.1619,1.1619,1.1619,1.1619,1.1619,1.1619,1.1619,1.1619,1.1619,1.1619,1.1619,1.1972,1.346,1.388,1.4236,1.5707,1.6061,1.5637,1.4236,1.2681,1.1619,1.1619,1.1619,1.261,1.5637,0.0,0.0,0.0,0.0,0.0,0.0,1.3523,1.2757,1.5431,1.3122,0.0,0.0,0.0,0.0,0.0,0.0,0.0,1.1816,1.183,0.0,1.2284,1.2291,1.2433,1.2732,1.2888,1.3118,1.3343,1.6008,1.6245,1.4726,1.7289,1.7234,1.5409,1.7229,1.7889,1.8087,2.1303,2.2689,2.3113,2.4566,2.5264,2.5545,1.1538,1.1626,1.1769,1.202,1.2142,1.2237,1.2338,1.2359,1.2318,1.2216,1.2291,1.2359,1.2359,1.2359,1.2359,0.0,1.2081,1.1884,0.0,1.1599,1.1443,1.1396,1.1436,1.1511,1.1619,1.1619,1.1518,1.1321,0.0,0.0,1.0649,1.0649,1.0731,1.0806,1.0765,1.0778,1.0806,1.0806,1.0806,1.09,1.1199,1.1321,1.1341,1.1545,1.1619,1.1619,1.1619,1.1619,1.1619,1.1619,1.1619,1.1619,1.1619,1.1619,1.1619,1.1619,1.1619,1.1619,1.1619,1.1619,1.1691,1.2187,1.233,1.2466,1.296,1.3031,1.2888,1.2395,1.1972,1.1619,1.1619,1.2466,1.346,1.4441,1.5079,0.0,1.6695,0.0,0.0,0.0,1.5212,1.4628,1.4506,1.2671,0.0,0.0,0.0,0.0,0.0,0.0,0.0,0.0,1.2033,0.0,1.2291,1.2488,1.2691,1.2888,1.3037,1.3186,1.3411,1.4848,1.5116,1.4556,1.5883,1.5931,1.5392,1.8319,1.946,1.9716,2.3197,2.4571,2.4739,2.5471,2.5611,2.5585,1.1619,1.166,1.1775,1.202,1.2108,1.2182,1.2277,1.2291,1.2237,1.2155,1.2196,1.2271,1.221,1.2203,0.0,1.2284,1.206,1.187,1.1755,1.1626,1.1504,1.1396,1.1443,1.1518,1.1619,1.1619,0.0,1.1389,1.1185,1.0962,1.0724,1.0778,1.0793,1.088,1.0779,1.0793,1.088,1.088,1.088,1.0907,1.1274,1.1389,1.1409,1.1558,1.1619,1.1619,1.1619,1.1619,1.1619,1.1619,1.1619,1.1619,1.1619,1.1619,1.1619,1.1619,1.1619,1.1619,1.1619,1.1619,1.1619,1.1619,1.1619,1.1619,1.1619,1.1619,1.1619,1.1619,1.1619,1.1763,1.2323,1.3246,1.4236,1.5434,1.5849,1.6272,1.6916,0.0,0.0,0.0,0.0,0.0,0.0,1.2538,1.1619,0.0,0.0,0.0,0.0,0.0,1.198,1.2706,1.2456,1.2318,1.2372,1.261,1.2807,1.2963,1.3166,1.3308,1.3397,1.4142,1.4437,1.4385,1.5001,1.5565,1.6398,1.909,2.0594,2.154,2.4431,2.5518,2.5531,2.5718,2.5745,2.5732,1.1647,1.1748,1.1884,1.2047,1.2189,1.2277,1.2277,1.2264,1.2203,1.2054,1.2162,1.221,1.2074,1.2135,1.2121,1.2277,0.0,0.0,1.164,1.1735,1.1681,1.1402,1.1531,1.1606,1.1619,1.1619,1.1545,1.1389,1.1118,1.09,1.0751,1.0826,1.09,1.0907,1.09,1.09,1.0907,1.0907,1.0907,1.0934,1.1294,1.1409,1.1423,1.1565,1.1619,1.1619,1.1619,1.1619,1.1619,1.1619,1.1619,1.1619,1.1619,1.1619,1.1619,1.1619,1.1619,1.1619,1.1619,1.1619,1.1619,1.1619,1.1619,1.1619,1.1619,1.1619,1.1619,1.1763,1.1763,1.2259,1.3737,1.4164,1.515,1.791,1.7268,1.6906,1.8331,1.7338,0.0,0.0,0.0,0.0,1.411,1.2711,1.1791,0.0,0.0,0.0,0.0,0.0,1.2574,1.4128,1.2971,1.2366,1.2501,1.2664,1.2827,1.2996,1.3268,1.3403,1.3403,1.3901,1.4148,1.4244,1.4803,1.6038,1.7961,1.9727,2.1485,2.3275,2.4918,2.5558,2.5571,2.5571,2.5732,2.6037,1.1911,0.0,1.1918,1.2189,1.2169,1.2115,1.2115,1.2013,1.1884,1.1742,1.185,1.1972,1.2054,1.2135,1.2121,1.2277,1.1945,1.1694,1.1626,1.1545,1.1463,1.1396,1.1423,1.1497,1.1619,1.1619,1.1545,1.1389,1.1321,1.1206,1.1056,1.1097,1.1172,1.128,1.1165,1.1179,1.1287,1.1287,1.1287,1.1301,1.1491,1.1565,1.1565,1.1606,1.1619,1.1619,1.1619,1.1619,1.1619,1.1619,1.1619,1.1619,1.1619,1.1619,1.1619,1.1619,1.1619,1.1619,1.1619,1.1619,1.1619,1.1619,1.1619,1.1619,1.1619,1.1619,1.19,1.3103,1.3389,1.3808,1.5283,1.6564,1.7559,1.8272,1.9111,1.9738,2.0098,1.982,1.9181,0.0,1.7703,1.7174,1.6028,1.4642,1.3798,0.0,0.0,1.2299,1.3501,1.2602,1.2223,1.2752,1.2525,1.2467,1.2501,1.2773,1.3037,1.3295,1.337,1.3403,1.3403,1.3901,1.4206,1.4503,1.6254,1.7411,1.825,2.1201,2.2835,2.3544,2.5218,2.5985,2.6186,2.6186,2.6079,2.6063,1.2033,1.1938,1.1925,1.2237,1.2162,1.2088,1.2155,1.2033,1.1911,1.183,1.183,1.1891,1.2047,1.1999,1.202,1.2176,1.2026,1.1864,1.1728,1.1708,1.164,1.1504,1.1497,1.1538,1.1619,1.1619,1.1545,1.1389,1.1389,1.1314,1.1234,1.1233,1.1314,1.1389,1.1307,1.1314,1.1389,1.1389,1.1389,1.1402,1.1558,1.1619,1.1619,1.1619,1.1619,1.1619,1.1619,1.1619,1.1619,1.1619,1.1619,1.1619,1.1619,1.1619,1.1619,1.1619,1.1619,1.1619,1.1619,1.1619,1.1619,1.1619,1.1619,1.1619,1.1619,1.1619,1.2043,1.3595,1.3317,1.3737,1.6635,1.7268,1.784,1.9251,2.0167,2.0665,2.0665,2.0665,2.0388,1.9541,1.9041,1.8471,1.7602,1.635,1.5251,1.4424,1.3536,0.0,1.3297,1.2564,1.2505,1.3256,1.2804,1.2535,1.2603,1.2908,1.3139,1.3295,1.337,1.3363,1.3302,1.3618,1.402,1.4451,1.6512,1.8055,1.9274,2.1943,2.372,2.475,2.5634,2.6052,2.6186,2.6186,2.6092,2.605,1.2088,1.1993,1.1993,1.2271,1.2176,1.2115,1.2271,1.2142,1.2033,1.2135,1.1925,1.1898,1.2081,1.1959,1.1938,1.2115,1.2244,1.2196,1.1884,1.1965,1.1918,1.166,1.1633,1.1619,1.1619,1.1619,1.1558,1.1423,1.1423,1.1362,1.1233,1.1362,1.1423,1.1423,1.1423,1.1423,1.1423,1.1423,1.1423,1.1436,1.1565,1.1619,1.1619,1.1619,1.1619,1.1619,1.1619,1.1619,1.1619,1.1619,1.1619,1.1619,1.1619,1.1619,1.1619,1.1619,1.1619,1.1619,1.1619,1.1619,1.1619,1.1619,1.1619,1.1619,1.1619,1.1619,1.2043,1.3595,1.2896,1.3182,1.7278,1.6987,1.6977,1.9599,2.0028,2.0098,2.0318,0.0,2.033,2.0366,1.945,1.8749,1.8566,1.7394,1.6028,1.4605,1.4308,1.3633,1.236,1.2291,1.2899,1.4195,1.3118,1.2583,1.2766,1.3037,1.3173,1.3173,1.3302,1.3302,1.3173,1.3528,1.4016,1.4746,1.687,1.8888,2.0825,2.2787,2.4584,2.6037,2.5999,2.6077,2.6037,2.6037,2.6063,2.6026,1.2203,1.2237,1.2271,1.244,1.2244,1.2115,1.2271,1.2047,1.1911,1.2047,1.1925,1.1938,1.2223,1.2115,1.2135,1.2413,1.2454,1.2345,1.2047,1.1925,1.1843,1.1803,1.1681,1.1619,1.1619,1.1619,1.1606,1.1586,1.1586,1.1572,1.1552,1.1572,1.1586,1.1586,1.1586,1.1586,1.1586,1.1586,1.1586,1.1586,1.1613,1.1619,1.1619,1.1619,1.1619,1.1619,1.1619,1.1619,1.1619,1.1619,1.1619,1.1619,1.1619,1.1619,1.1619,1.1619,1.1619,1.1619,1.1619,1.1619,1.1619,1.1619,1.1619,1.1619,1.1619,1.1619,1.2043,1.3595,1.3737,1.4164,1.6131,1.6272,1.6272,1.6766,1.6836,1.7268,1.8552,0.0,1.8827,1.8883,1.8979,1.855,1.7408,1.6033,1.5025,1.4735,1.3378,1.2567,1.2291,1.2291,1.2498,1.2769,1.2642,1.2637,1.2922,1.3091,1.3173,1.3173,1.32,1.3193,1.3247,1.4509,1.5626,1.6673,1.9881,2.1919,2.3062,2.5086,2.5897,2.5985,2.6226,2.6172,2.6037,2.6037,2.6106,2.6319,1.2359,1.2277,1.2237,1.2461,1.2325,1.2237,1.2379,1.2216,1.2128,1.2277,1.2101,1.204,1.2264,1.2155,1.2149,1.2372,1.2311,1.2244,1.2189,1.204,1.1884,1.1721,1.1653,1.1619,1.1619,1.1619,1.1619,1.1619,1.1619,1.1619,1.1619,1.1619,1.1619,1.1619,1.1619,1.1619,1.1619,1.1619,1.1619,1.1619,1.1619,1.1619,1.1619,1.1619,1.1619,1.1619,1.1619,1.1619,1.1619,1.1619,1.1619,1.1619,1.1619,1.1619,1.1619,1.1619,1.1619,1.1619,1.1619,1.1619,1.1619,1.1619,1.1619,1.1619,1.1619,1.1619,1.2043,1.3595,1.3246,1.3389,1.5637,1.5425,1.515,1.599,1.6131,1.6343,1.7057,1.7127,1.7208,1.7357,1.7649,1.7586,1.7057,1.65,1.5819,1.4906,1.4144,1.3694,1.3694,1.286,1.2811,1.3799,1.3127,1.282,1.3043,1.318,1.3254,1.3173,1.3173,1.3654,1.4622,1.5169,1.6245,1.7995,2.0673,2.2171,2.2841,2.4842,2.5692,2.5718,2.5692,2.5692,2.5718,2.5718,2.5905,2.6186,1.2386,1.2244,1.2189,1.2413,1.2332,1.2298,1.2474,1.2379,1.2338,1.2481,1.2277,1.2176,1.2325,1.2203,1.2176,1.2325,1.223,1.2203,1.2284,1.2182,1.1979,1.1681,1.164,1.1619,1.1619,1.1619,1.1619,1.1619,1.1619,1.1619,1.1619,1.1619,1.1619,1.1619,1.1619,1.1619,1.1619,1.1619,1.1619,1.1619,1.1619,1.1619,1.1619,1.1619,1.1619,1.1619,1.1619,1.1619,1.1619,1.1619,1.1619,1.1619,1.1619,1.1619,1.1619,1.1619,1.1619,1.1619,1.1619,1.1619,1.1619,1.1619,1.1619,1.1619,1.1619,1.1619,1.1972,1.3103,1.2395,1.2323,1.4654,1.4164,1.3737,1.4867,0.0,1.515,1.5566,1.5612,1.5712,1.5922,1.6488,1.6768,1.6524,1.7057,1.6846,1.5548,1.5472,1.5319,1.4944,1.3722,1.3436,1.4392,1.3526,1.2976,1.301,1.3268,1.3322,1.3173,1.358,1.4445,1.5763,1.6299,1.7493,1.926,2.1312,2.2378,2.287,2.449,2.5277,2.5411,2.5317,2.5384,2.5518,2.5585,2.5852,2.6186,1.2121,1.2189,1.2277,1.2305,1.2182,1.2176,1.2461,1.2379,1.2338,1.2481,1.2366,1.2325,1.2467,1.2359,1.2332,1.2474,1.2474,1.242,1.2298,1.2277,1.2135,1.183,1.1687,1.1619,1.1619,1.1619,1.1619,1.1619,1.1619,1.1619,1.1619,1.1619,1.1619,1.1619,1.1619,1.1619,1.1619,1.1619,1.1619,1.1619,1.1619,1.1619,1.1619,1.1619,1.1619,1.1619,1.1619,1.1619,1.1619,1.1619,1.1619,1.1619,1.1619,1.1619,1.1619,1.1619,1.1619,1.1619,1.1619,1.1619,1.1619,1.1619,1.1619,1.1619,1.1619,1.1619,1.1619,1.1763,1.1691,1.1691,1.19,1.1835,1.1835,1.19,0.0,0.0,1.388,1.417,1.4269,1.4441,1.5961,1.6458,1.5209,1.6456,1.7379,1.7227,1.7227,1.6541,1.502,1.479,1.4176,1.2862,1.2954,1.3024,1.3152,1.3315,1.3322,1.3254,1.4865,1.5586,1.5504,1.8504,2.0229,2.089,2.2919,2.4099,2.4713,2.5249,2.5331,2.5157,2.5692,2.5732,2.5545,2.5825,2.6279,2.676,1.2332,1.2311,1.2318,1.2406,1.2372,1.2372,1.2481,1.2454,1.244,1.2494,1.2454,1.244,1.2494,1.2454,1.244,1.2494,1.242,1.2345,1.2291,1.2203,1.2054,1.1837,1.1782,1.1708,1.1619,1.1619,1.1619,1.1619,1.1619,1.1619,1.1619,1.1619,1.1619,1.1619,1.1619,1.1619,1.1619,1.1619,1.1619,1.1619,1.1619,1.1619,1.1619,1.1619,1.1619,1.1619,1.1619,1.1619,1.1619,1.1619,1.1619,1.1619,1.1619,1.1619,1.1619,1.1619,1.1619,1.1619,1.1619,1.1619,1.1619,1.1619,1.1619,1.1619,1.1619,1.1619,1.1619,1.1619,1.1687,1.1748,1.1748,1.1748,1.1748,1.1748,0.0,1.2322,1.3898,1.3402,1.3282,1.4412,1.5169,1.5429,1.4927,1.6389,1.7379,1.7379,1.6465,1.6059,1.6567,1.5688,1.4497,1.3077,1.3064,1.3119,1.3173,1.4377,1.4998,1.4929,1.6487,1.7747,1.8818,1.9797,2.099,2.24,2.3627,2.4252,2.4598,2.5474,2.5611,2.5384,2.5798,2.5772,2.5545,2.5852,2.6213,2.66,1.2427,1.2359,1.2318,1.242,1.2433,1.2447,1.2494,1.2501,1.2501,1.2501,1.2501,1.2501,1.2501,1.2501,1.2501,1.2501,1.2413,1.2359,1.2359,1.2257,1.2088,1.1843,1.1789,1.1714,1.1619,1.1619,1.1619,1.1619,1.1619,1.1619,1.1619,1.1619,1.1619,1.1619,1.1619,1.1619,1.1619,1.1619,1.1619,1.1619,1.1619,1.1619,1.1619,1.1619,1.1619,1.1619,1.1619,1.1619,1.1619,1.1619,1.1619,1.1619,1.1619,1.1619,1.1619,1.1619,1.1619,1.1619,1.1619,1.1619,1.1619,1.1619,1.1619,1.1619,1.1619,1.1619,1.1619,1.1619,1.1694,1.1762,1.1762,1.1803,1.183,1.183,1.2304,1.3066,1.4229,1.394,1.4172,1.5344,1.5931,1.6322,1.6447,1.7986,1.8754,1.8214,1.713,1.6644,1.6928,1.5472,1.4267,1.3247,1.322,1.3247,1.3247,1.4564,1.544,1.5999,1.7387,1.9016,2.0669,2.1057,2.1932,2.3133,2.4158,2.4545,2.4635,2.57,2.5919,2.5678,2.5972,2.5972,2.5825,2.6119,2.6466,2.6854,1.2318,1.2291,1.2291,1.2291,1.2291,1.2338,1.2481,1.2501,1.2501,1.2501,1.2501,1.2501,1.2501,1.2501,1.2501,1.2501,1.2501,1.2501,1.2501,1.2501,1.2298,1.185,1.1701,1.1626,1.1619,1.1619,1.1619,1.1619,1.1619,1.1619,1.1619,1.1619,1.1619,1.1619,1.1619,1.1619,1.1619,1.1619,1.1619,1.1619,1.1619,1.1619,1.1619,1.1619,1.1619,1.1619,1.1619,1.1619,1.1619,1.1619,1.1619,1.1619,1.1619,1.1619,1.1619,1.1619,1.1619,1.1619,1.1619,1.1619,1.1619,1.1619,1.1619,1.1619,1.1619,1.1619,1.1619,1.1619,1.1619,1.1626,1.1626,1.1742,1.1837,1.1837,1.3354,1.449,1.449,1.6044,1.7216,1.7216,1.8761,1.9811,1.9811,2.1262,2.1574,1.9887,1.9885,1.865,1.5559,1.3974,1.3173,1.3173,1.3322,1.3397,1.3397,1.3397,1.43,1.5999,1.7521,1.9006,2.0455,2.2525,2.3309,2.3157,2.4494,2.513,2.513,2.6083,2.6226,2.6063,2.6279,2.6386,2.6426,2.672,2.7188,2.7696,1.2447,1.244,1.244,1.244,1.244,1.2454,1.2494,1.2501,1.2501,1.2501,1.2501,1.2501,1.2501,1.2501,1.2501,1.2501,1.2501,1.2501,1.2501,1.2406,1.2291,1.2162,1.2115,1.204,1.1932,1.1823,1.1769,1.1769,1.1667,1.1619,1.1619,1.1619,1.1619,1.1619,1.1619,1.1619,1.1619,1.1619,1.1619,1.1619,1.1619,1.1619,1.1619,1.1619,1.1619,1.1619,1.1619,1.1619,1.1619,1.1619,1.1619,1.1619,1.1619,1.1619,1.1619,1.1619,1.1619,1.1619,1.1619,1.1694,1.1742,1.1647,1.1619,1.1619,1.1619,1.1694,1.1769,1.1769,1.1938,1.2088,1.2088,1.2121,1.2155,1.2155,1.3529,1.5052,1.6229,1.6927,1.7737,1.8867,1.8476,1.8138,1.8138,1.8592,1.8668,1.8138,1.7253,1.5906,1.3829,1.3438,1.3336,1.3336,1.4593,1.5193,1.5193,1.5193,1.6024,1.7602,1.9224,2.0827,2.2334,2.3086,2.3435,2.3623,2.4949,2.5422,2.5435,2.6598,2.6707,2.6293,2.6587,2.6573,2.6453,2.6947,2.7241,2.7455,1.2501,1.2501,1.2501,1.2501,1.2501,1.2501,1.2501,1.2501,1.2501,1.2501,1.2501,1.2501,1.2501,1.2501,1.2501,1.2501,1.2501,1.2501,1.2501,1.242,1.2372,1.2372,1.2372,1.2277,1.2067,1.1911,1.183,1.183,1.1687,1.1619,1.1619,1.1619,1.1619,1.1619,1.1619,1.1619,1.1619,1.1619,1.1619,1.1619,1.1619,1.1619,1.1619,1.1619,1.1619,1.1619,1.1619,1.1619,1.1619,1.1619,1.1619,1.1633,1.1687,1.1701,1.1714,1.1775,1.1796,1.1796,1.1796,1.1857,1.1904,1.1816,1.1796,1.1796,1.1796,1.1864,1.1925,1.1925,1.2067,1.2203,1.2203,1.225,1.2291,1.2291,1.3695,1.516,1.6135,1.6915,1.7759,1.8754,1.7986,1.7379,1.7379,1.7379,1.7139,1.6611,1.5909,1.5074,1.4246,1.5003,1.5448,1.5448,1.65,1.7065,1.7065,1.7065,1.7819,1.9403,1.9634,2.0644,2.2174,2.1715,2.1985,2.2797,2.3982,2.4968,2.5809,2.6698,2.6826,2.6573,2.6747,2.6707,2.66,2.6961,2.7161,2.7335,1.2501,1.2501,1.2501,1.2501,1.2501,1.2501,1.2501,1.2501,1.2501,1.2501,1.2501,1.2501,1.2501,1.2501,1.2501,1.2501,1.2501,1.2501,1.2501,1.2501,1.2501,1.2501,1.2501,1.2379,1.2108,1.1952,1.1864,1.185,1.1708,1.1633,1.1619,1.1619,1.1619,1.1619,1.1619,1.1619,1.1619,1.1619,1.1619,1.1619,1.1619,1.1619,1.1619,1.1619,1.1619,1.1619,1.1619,1.1619,1.1619,1.1633,1.1633,1.1647,1.1789,1.1823,1.1837,1.1979,1.2033,1.204,1.204,1.2135,1.2081,1.2081,1.2169,1.2094,1.2142,1.2149,1.2081,1.2081,1.2169,1.2176,1.2176,1.2216,1.2311,1.2311,1.3778,1.4867,1.4867,1.6312,1.7379,1.7379,1.7303,1.715,1.715,1.715,1.6703,1.5518,1.563,1.5946,1.6204,1.771,1.8626,1.8626,1.8789,1.8789,1.8626,1.8789,1.9501,2.0937,1.9072,1.9054,2.0559,1.9199,1.9541,2.1276,2.2317,2.3951,2.6051,2.641,2.6648,2.6814,2.6787,2.6787,2.6787,2.6814,2.6987,2.7268,1.2501,1.2501,1.2501,1.2501,1.2501,1.2501,1.2501,1.2501,1.2501,1.2501,1.2501,1.2501,1.2501,1.2501,1.2501,1.2501,1.2501,1.2501,1.2501,1.2501,1.2501,1.2501,1.2501,1.2474,1.2406,1.2264,1.2128,1.2013,1.1857,1.1728,1.1619,1.1619,1.1619,1.1619,1.1619,1.1619,1.1619,1.1619,1.1619,1.1619,1.1619,1.1619,1.1619,1.1619,1.1619,1.1619,1.1619,1.1619,1.164,1.1748,1.1708,1.1647,1.1789,1.1755,1.1674,1.1708,1.1796,1.1877,1.1877,1.206,1.2244,1.2244,1.2325,1.2345,1.2115,1.2155,1.2244,1.2244,1.2332,1.2406,1.2406,1.2433,1.2454,1.2454,1.3853,1.4867,1.4867,1.6312,1.7379,1.7379,1.6236,1.5472,1.5472,1.5472,1.541,1.5331,1.6652,1.7631,1.7879,1.8369,1.8626,1.8626,1.9917,1.9998,1.8626,1.9917,2.0078,1.8862,1.8584,1.8636,1.8724,1.8783,1.9779,2.1605,2.2643,2.4187,2.6026,2.6528,2.68,2.68,2.6573,2.648,2.6507,2.6734,2.6867,2.6961,1.261,1.2556,1.2501,1.2501,1.2501,1.2501,1.2501,1.2501,1.2501,1.2501,1.2501,1.2501,1.2501,1.2501,1.2501,1.2501,1.2501,1.2501,1.2501,1.2501,1.2501,1.2501,1.2501,1.2501,1.2501,1.2427,1.2318,1.2169,1.202,1.1904,1.183,1.1755,1.1721,1.1714,1.1647,1.1619,1.1619,1.1619,1.1619,1.1619,1.1619,1.1619,1.1619,1.1619,1.1619,1.1626,1.1694,1.1721,1.1735,1.1809,1.1782,1.1762,1.1979,1.1999,1.1952,1.202,1.2094,1.2149,1.2149,1.2271,1.2393,1.2393,1.2447,1.2461,1.2305,1.2332,1.2393,1.2393,1.2447,1.2501,1.2501,1.2501,1.2501,1.2501,1.319,1.3722,1.3722,1.4483,1.5097,1.5097,1.4253,1.403,1.4867,1.5701,1.6379,1.6573,1.8346,1.9523,1.9735,2.0593,2.1071,2.1071,2.1141,2.0727,1.9836,1.9917,1.9047,1.717,1.8163,1.8617,1.8617,1.8834,1.999,2.1843,2.2504,2.3915,2.5822,2.6172,2.6454,2.66,2.6453,2.6386,2.6413,2.656,2.6707,2.6827,1.2766,1.2664,1.2569,1.2549,1.2542,1.2528,1.2508,1.2501,1.2501,1.2501,1.2501,1.2501,1.2501,1.2501,1.2501,1.2501,1.2501,1.2501,1.2501,1.2501,1.2501,1.2501,1.2501,1.2501,1.2501,1.2501,1.2433,1.2291,1.2162,1.2074,1.202,1.1891,1.1816,1.1789,1.1674,1.1619,1.1619,1.1619,1.1619,1.1619,1.1647,1.1653,1.166,1.1687,1.1694,1.1708,1.183,1.187,1.187,1.1898,1.1891,1.1918,1.2203,1.2271,1.2277,1.2393,1.2447,1.2467,1.2467,1.2481,1.2501,1.2501,1.2501,1.2501,1.2501,1.2501,1.2501,1.2501,1.2501,1.2501,1.2501,1.2501,1.2579,1.2881,1.2656,1.2579,1.2881,1.2656,1.2579,1.2881,1.319,1.3876,1.5174,1.7106,1.8319,1.8455,2.0274,2.1464,2.1614,2.3027,2.368,2.3348,2.1959,2.106,2.0727,1.9359,1.7892,1.65,1.8209,1.8894,1.8597,1.8883,2.0143,2.2034,2.2366,2.3645,2.5541,2.5829,2.6109,2.6386,2.6386,2.6386,2.6386,2.6386,2.6547,2.6707,1.2929,1.2915,1.2854,1.2725,1.2698,1.2657,1.2522,1.2501,1.2501,1.2501,1.2501,1.2501,1.2501,1.2501,1.2501,1.2501,1.2501,1.2501,1.2501,1.2501,1.2501,1.2501,1.2501,1.2501,1.2501,1.2501,1.2433,1.2291,1.2271,1.2121,1.1864,1.1843,1.1769,1.1647,1.1626,1.1619,1.1619,1.1619,1.1619,1.1633,1.1755,1.1803,1.1816,1.1952,1.1999,1.2006,1.2026,1.2033,1.2054,1.2182,1.2142,1.206,1.2237,1.2196,1.2094,1.2115,1.2216,1.2318,1.2318,1.2406,1.2501,1.2501,1.2501,1.2501,1.2501,1.2501,1.2501,1.2501,1.2501,1.2501,1.2501,1.2501,1.2958,1.433,1.3414,1.2958,1.4406,1.3421,1.3035,1.4406,1.5854,1.6846,1.7074,1.8795,1.9955,2.0199,2.2031,2.3167,2.3416,2.368,2.3107,2.1625,2.1303,2.0484,1.8952,1.8708,1.8463,1.83,1.9998,1.9385,1.6793,1.8457,2.0286,2.2288,2.2879,2.4124,2.5831,2.6427,2.6534,2.6386,2.6386,2.6386,2.6386,2.6386,2.6413,2.644,1.3078,1.3017,1.2942,1.2868,1.2861,1.2834,1.2766,1.2684,1.263,1.263,1.2556,1.2501,1.2501,1.2501,1.2501,1.2501,1.2501,1.2501,1.2501,1.2501,1.2542,1.2623,1.263,1.263,1.263,1.263,1.2556,1.2406,1.2406,1.2298,1.2088,1.1999,1.1884,1.1735,1.1653,1.1619,1.1626,1.1701,1.1735,1.1748,1.1898,1.1959,1.1965,1.2033,1.2135,1.2135,1.2135,1.2115,1.2196,1.2271,1.2244,1.2216,1.2366,1.2366,1.2311,1.2311,1.2359,1.2406,1.2406,1.2454,1.2501,1.2501,1.2501,1.2501,1.2501,1.2501,1.2501,1.2501,1.2501,1.2501,1.2501,1.2501,1.3035,1.4637,1.3568,1.3421,1.593,1.4867,1.4483,1.6083,1.7759,1.8744,1.8744,2.0605,2.1897,2.2012,2.3036,2.3229,2.2361,2.2372,2.1556,1.9836,1.9755,1.9349,1.8626,1.8626,1.8626,1.8626,2.0548,2.0662,1.9362,2.1189,2.2587,2.361,2.4399,2.5062,2.568,2.6452,2.6653,2.6386,2.6386,2.6386,2.6386,2.6386,2.6386,2.6386]}]]